Wetterdaten: Montag, 25.01.2021
Datum Zeit Temp. 2m Temp +5 cm Feuchte A. Luftdruck Regen Wind Richtung Richtung Sonnenschein UV Solar Taupunkt Windchill Windben
25.01.2021 00:00 -1,7 C -1,1 C 93 % 999,2 hPa 0,0 l/m 4,8 km/h (1 Bft) SO 135 0 min 0,0 UV-I 0 W/m -2,7 C -1,7 C 6,4 km/h (2 Bft)
25.01.2021 00:01 -1,7 C -1,1 C 93 % 999,2 hPa 0,0 l/m 4,8 km/h (1 Bft) SO 135 0 min 0,0 UV-I 0 W/m -2,7 C -1,7 C 8,0 km/h (2 Bft)
25.01.2021 00:02 -1,7 C -1,1 C 93 % 999,2 hPa 0,0 l/m 4,8 km/h (1 Bft) O-SO 112 0 min 0,0 UV-I 0 W/m -2,7 C -1,7 C 8,0 km/h (2 Bft)
25.01.2021 00:03 -1,7 C -1,1 C 93 % 999,1 hPa 0,0 l/m 3,2 km/h (1 Bft) O-SO 112 0 min 0,0 UV-I 0 W/m -2,7 C -1,7 C 4,8 km/h (1 Bft)
25.01.2021 00:04 -1,7 C -1,1 C 93 % 999,1 hPa 0,0 l/m 6,4 km/h (2 Bft) O-SO 112 0 min 0,0 UV-I 0 W/m -2,7 C -1,7 C 12,9 km/h (3 Bft)
25.01.2021 00:05 -1,7 C -1,1 C 93 % 999,3 hPa 0,0 l/m 4,8 km/h (1 Bft) S-SO 157 0 min 0,0 UV-I 0 W/m -2,7 C -1,7 C 8,0 km/h (2 Bft)
25.01.2021 00:06 -1,7 C -1,1 C 93 % 999,3 hPa 0,0 l/m 4,8 km/h (1 Bft) S-SO 157 0 min 0,0 UV-I 0 W/m -2,7 C -1,7 C 6,4 km/h (2 Bft)
25.01.2021 00:07 -1,6 C -1,1 C 93 % 999,3 hPa 0,0 l/m 4,8 km/h (1 Bft) S-SO 157 0 min 0,0 UV-I 0 W/m -2,6 C -1,6 C 8,0 km/h (2 Bft)
25.01.2021 00:08 -1,7 C -1,1 C 93 % 999,3 hPa 0,0 l/m 8,0 km/h (2 Bft) O-SO 112 0 min 0,0 UV-I 0 W/m -2,7 C -3,4 C 11,3 km/h (2 Bft)
25.01.2021 00:09 -1,7 C -1,1 C 93 % 999,3 hPa 0,0 l/m 6,4 km/h (2 Bft) O-SO 112 0 min 0,0 UV-I 0 W/m -2,7 C -1,7 C 9,7 km/h (2 Bft)
25.01.2021 00:10 -1,7 C -1,1 C 93 % 999,3 hPa 0,0 l/m 6,4 km/h (2 Bft) SO 135 0 min 0,0 UV-I 0 W/m -2,7 C -1,7 C 8,0 km/h (2 Bft)
25.01.2021 00:11 -1,7 C -1,1 C 93 % 999,3 hPa 0,0 l/m 6,4 km/h (2 Bft) SO 135 0 min 0,0 UV-I 0 W/m -2,7 C -1,7 C 12,9 km/h (3 Bft)
25.01.2021 00:12 -1,7 C -1,1 C 93 % 999,3 hPa 0,0 l/m 6,4 km/h (2 Bft) SO 135 0 min 0,0 UV-I 0 W/m -2,7 C -1,7 C 14,5 km/h (3 Bft)
25.01.2021 00:13 -1,7 C -1,1 C 93 % 999,3 hPa 0,0 l/m 6,4 km/h (2 Bft) S-SO 157 0 min 0,0 UV-I 0 W/m -2,7 C -1,7 C 11,3 km/h (2 Bft)
25.01.2021 00:14 -1,7 C -1,1 C 93 % 999,3 hPa 0,0 l/m 6,4 km/h (2 Bft) SO 135 0 min 0,0 UV-I 0 W/m -2,7 C -1,7 C 11,3 km/h (2 Bft)
25.01.2021 00:15 -1,7 C -1,1 C 93 % 999,3 hPa 0,0 l/m 8,0 km/h (2 Bft) SO 135 0 min 0,0 UV-I 0 W/m -2,7 C -3,4 C 12,9 km/h (3 Bft)
25.01.2021 00:16 -1,7 C -0,6 C 93 % 999,4 hPa 0,0 l/m 6,4 km/h (2 Bft) O-SO 112 0 min 0,0 UV-I 0 W/m -2,7 C -1,7 C 11,3 km/h (2 Bft)
25.01.2021 00:17 -1,7 C -0,6 C 93 % 999,4 hPa 0,0 l/m 6,4 km/h (2 Bft) SO 135 0 min 0,0 UV-I 0 W/m -2,7 C -1,7 C 11,3 km/h (2 Bft)
25.01.2021 00:18 -1,7 C -0,6 C 93 % 999,4 hPa 0,0 l/m 8,0 km/h (2 Bft) S-SO 157 0 min 0,0 UV-I 0 W/m -2,7 C -3,4 C 14,5 km/h (3 Bft)
25.01.2021 00:19 -1,7 C -1,1 C 93 % 999,3 hPa 0,0 l/m 6,4 km/h (2 Bft) SO 135 0 min 0,0 UV-I 0 W/m -2,7 C -1,7 C 9,7 km/h (2 Bft)
25.01.2021 00:20 -1,7 C -1,1 C 93 % 999,3 hPa 0,0 l/m 6,4 km/h (2 Bft) SO 135 0 min 0,0 UV-I 0 W/m -2,7 C -1,7 C 11,3 km/h (2 Bft)
25.01.2021 00:21 -1,7 C -1,1 C 93 % 999,2 hPa 0,0 l/m 3,2 km/h (1 Bft) SO 135 0 min 0,0 UV-I 0 W/m -2,7 C -1,7 C 4,8 km/h (1 Bft)
25.01.2021 00:22 -1,7 C -1,1 C 93 % 999,2 hPa 0,0 l/m 3,2 km/h (1 Bft) SO 135 0 min 0,0 UV-I 0 W/m -2,7 C -1,7 C 6,4 km/h (2 Bft)
25.01.2021 00:23 -1,7 C -1,1 C 93 % 999,3 hPa 0,0 l/m 4,8 km/h (1 Bft) SO 135 0 min 0,0 UV-I 0 W/m -2,7 C -1,7 C 8,0 km/h (2 Bft)
25.01.2021 00:24 -1,7 C -1,1 C 93 % 999,3 hPa 0,0 l/m 6,4 km/h (2 Bft) S-SO 157 0 min 0,0 UV-I 0 W/m -2,7 C -1,7 C 11,3 km/h (2 Bft)
25.01.2021 00:25 -1,7 C -1,1 C 93 % 999,3 hPa 0,0 l/m 4,8 km/h (1 Bft) S-SO 157 0 min 0,0 UV-I 0 W/m -2,7 C -1,7 C 8,0 km/h (2 Bft)
25.01.2021 00:26 -1,7 C -1,1 C 93 % 999,2 hPa 0,0 l/m 4,8 km/h (1 Bft) S-SO 157 0 min 0,0 UV-I 0 W/m -2,7 C -1,7 C 8,0 km/h (2 Bft)
25.01.2021 00:27 -1,7 C -1,1 C 93 % 999,3 hPa 0,0 l/m 3,2 km/h (1 Bft) S-SO 157 0 min 0,0 UV-I 0 W/m -2,7 C -1,7 C 9,7 km/h (2 Bft)
25.01.2021 00:28 -1,7 C -1,1 C 93 % 999,3 hPa 0,0 l/m 6,4 km/h (2 Bft) S-SO 157 0 min 0,0 UV-I 0 W/m -2,7 C -1,7 C 9,7 km/h (2 Bft)
25.01.2021 00:29 -1,7 C -1,1 C 93 % 999,3 hPa 0,0 l/m 3,2 km/h (1 Bft) S-SO 157 0 min 0,0 UV-I 0 W/m -2,7 C -1,7 C 4,8 km/h (1 Bft)
25.01.2021 00:30 -1,7 C -1,1 C 93 % 999,2 hPa 0,0 l/m 6,4 km/h (2 Bft) S-SO 157 0 min 0,0 UV-I 0 W/m -2,7 C -1,7 C 9,7 km/h (2 Bft)
25.01.2021 00:31 -1,7 C -1,1 C 93 % 999,3 hPa 0,0 l/m 4,8 km/h (1 Bft) S-SO 157 0 min 0,0 UV-I 0 W/m -2,7 C -1,7 C 9,7 km/h (2 Bft)
25.01.2021 00:32 -1,7 C -1,1 C 93 % 999,3 hPa 0,0 l/m 6,4 km/h (2 Bft) S 180 0 min 0,0 UV-I 0 W/m -2,7 C -1,7 C 9,7 km/h (2 Bft)
25.01.2021 00:33 -1,7 C -1,1 C 93 % 999,2 hPa 0,0 l/m 6,4 km/h (2 Bft) S-SO 157 0 min 0,0 UV-I 0 W/m -2,7 C -1,7 C 8,0 km/h (2 Bft)
25.01.2021 00:34 -1,7 C -1,1 C 93 % 999,3 hPa 0,0 l/m 6,4 km/h (2 Bft) S-SO 157 0 min 0,0 UV-I 0 W/m -2,7 C -1,7 C 9,7 km/h (2 Bft)
25.01.2021 00:35 -1,7 C -1,1 C 93 % 999,2 hPa 0,0 l/m 6,4 km/h (2 Bft) S 180 0 min 0,0 UV-I 0 W/m -2,7 C -1,7 C 8,0 km/h (2 Bft)
25.01.2021 00:36 -1,7 C -1,1 C 93 % 999,2 hPa 0,0 l/m 4,8 km/h (1 Bft) S-SO 157 0 min 0,0 UV-I 0 W/m -2,7 C -1,7 C 8,0 km/h (2 Bft)
25.01.2021 00:37 -1,7 C -1,1 C 93 % 999,3 hPa 0,0 l/m 4,8 km/h (1 Bft) SO 135 0 min 0,0 UV-I 0 W/m -2,7 C -1,7 C 6,4 km/h (2 Bft)
25.01.2021 00:38 -1,7 C -1,1 C 93 % 999,3 hPa 0,0 l/m 4,8 km/h (1 Bft) SO 135 0 min 0,0 UV-I 0 W/m -2,7 C -1,7 C 6,4 km/h (2 Bft)
25.01.2021 00:39 -1,7 C -1,1 C 93 % 999,3 hPa 0,0 l/m 4,8 km/h (1 Bft) S-SO 157 0 min 0,0 UV-I 0 W/m -2,7 C -1,7 C 8,0 km/h (2 Bft)
25.01.2021 00:40 -1,7 C -1,1 C 93 % 999,3 hPa 0,0 l/m 8,0 km/h (2 Bft) S-SO 157 0 min 0,0 UV-I 0 W/m -2,7 C -3,4 C 11,3 km/h (2 Bft)
25.01.2021 00:41 -1,7 C -1,1 C 93 % 999,3 hPa 0,0 l/m 6,4 km/h (2 Bft) SO 135 0 min 0,0 UV-I 0 W/m -2,7 C -1,7 C 8,0 km/h (2 Bft)
25.01.2021 00:42 -1,7 C -1,1 C 93 % 999,2 hPa 0,0 l/m 8,0 km/h (2 Bft) S-SO 157 0 min 0,0 UV-I 0 W/m -2,7 C -3,4 C 12,9 km/h (3 Bft)
25.01.2021 00:43 -1,7 C -1,1 C 93 % 999,2 hPa 0,0 l/m 8,0 km/h (2 Bft) SO 135 0 min 0,0 UV-I 0 W/m -2,7 C -3,4 C 12,9 km/h (3 Bft)
25.01.2021 00:44 -1,7 C -1,1 C 93 % 999,3 hPa 0,0 l/m 8,0 km/h (2 Bft) S-SO 157 0 min 0,0 UV-I 0 W/m -2,7 C -3,4 C 9,7 km/h (2 Bft)
25.01.2021 00:45 -1,7 C -1,1 C 93 % 999,2 hPa 0,0 l/m 6,4 km/h (2 Bft) S-SO 157 0 min 0,0 UV-I 0 W/m -2,7 C -1,7 C 8,0 km/h (2 Bft)
25.01.2021 00:46 -1,7 C -1,1 C 93 % 999,3 hPa 0,0 l/m 6,4 km/h (2 Bft) S-SO 157 0 min 0,0 UV-I 0 W/m -2,7 C -1,7 C 8,0 km/h (2 Bft)
25.01.2021 00:47 -1,7 C -1,1 C 93 % 999,3 hPa 0,0 l/m 11,3 km/h (2 Bft) SO 135 0 min 0,0 UV-I 0 W/m -2,7 C -6,4 C 14,5 km/h (3 Bft)
25.01.2021 00:48 -1,7 C -1,1 C 93 % 999,3 hPa 0,0 l/m 6,4 km/h (2 Bft) SO 135 0 min 0,0 UV-I 0 W/m -2,7 C -1,7 C 11,3 km/h (2 Bft)
25.01.2021 00:49 -1,7 C -1,1 C 93 % 999,4 hPa 0,0 l/m 8,0 km/h (2 Bft) SO 135 0 min 0,0 UV-I 0 W/m -2,7 C -3,4 C 9,7 km/h (2 Bft)
25.01.2021 00:50 -1,7 C -1,1 C 93 % 999,3 hPa 0,0 l/m 6,4 km/h (2 Bft) SO 135 0 min 0,0 UV-I 0 W/m -2,7 C -1,7 C 9,7 km/h (2 Bft)
25.01.2021 00:51 -1,7 C -1,1 C 93 % 999,3 hPa 0,0 l/m 9,7 km/h (2 Bft) SO 135 0 min 0,0 UV-I 0 W/m -2,7 C -5,1 C 12,9 km/h (3 Bft)
25.01.2021 00:52 -1,7 C -1,1 C 93 % 999,3 hPa 0,0 l/m 9,7 km/h (2 Bft) SO 135 0 min 0,0 UV-I 0 W/m -2,7 C -5,1 C 16,1 km/h (3 Bft)
25.01.2021 00:53 -1,7 C -0,6 C 93 % 999,3 hPa 0,0 l/m 8,0 km/h (2 Bft) SO 135 0 min 0,0 UV-I 0 W/m -2,7 C -3,4 C 16,1 km/h (3 Bft)
25.01.2021 00:54 -1,7 C -0,6 C 93 % 999,3 hPa 0,0 l/m 9,7 km/h (2 Bft) SO 135 0 min 0,0 UV-I 0 W/m -2,7 C -5,1 C 16,1 km/h (3 Bft)
25.01.2021 00:55 -1,7 C -0,6 C 93 % 999,3 hPa 0,0 l/m 9,7 km/h (2 Bft) SO 135 0 min 0,0 UV-I 0 W/m -2,7 C -5,1 C 12,9 km/h (3 Bft)
25.01.2021 00:56 -1,7 C -0,6 C 93 % 999,3 hPa 0,0 l/m 6,4 km/h (2 Bft) SO 135 0 min 0,0 UV-I 0 W/m -2,7 C -1,7 C 9,7 km/h (2 Bft)
25.01.2021 00:57 -1,7 C -1,1 C 93 % 999,3 hPa 0,0 l/m 8,0 km/h (2 Bft) SO 135 0 min 0,0 UV-I 0 W/m -2,7 C -3,4 C 11,3 km/h (2 Bft)
25.01.2021 00:58 -1,7 C -1,1 C 93 % 999,3 hPa 0,0 l/m 4,8 km/h (1 Bft) SO 135 0 min 0,0 UV-I 0 W/m -2,7 C -1,7 C 8,0 km/h (2 Bft)
25.01.2021 00:59 -1,7 C -1,1 C 93 % 999,3 hPa 0,0 l/m 6,4 km/h (2 Bft) SO 135 0 min 0,0 UV-I 0 W/m -2,7 C -1,7 C 9,7 km/h (2 Bft)
25.01.2021 01:00 -1,7 C -1,1 C 93 % 999,2 hPa 0,0 l/m 6,4 km/h (2 Bft) S-SO 157 0 min 0,0 UV-I 0 W/m -2,7 C -1,7 C 11,3 km/h (2 Bft)
25.01.2021 01:01 -1,7 C -1,1 C 93 % 999,3 hPa 0,0 l/m 6,4 km/h (2 Bft) S-SO 157 0 min 0,0 UV-I 0 W/m -2,7 C -1,7 C 9,7 km/h (2 Bft)
25.01.2021 01:02 -1,7 C -1,1 C 93 % 999,2 hPa 0,0 l/m 9,7 km/h (2 Bft) S-SO 157 0 min 0,0 UV-I 0 W/m -2,7 C -5,1 C 12,9 km/h (3 Bft)
25.01.2021 01:03 -1,7 C -1,1 C 93 % 999,3 hPa 0,0 l/m 9,7 km/h (2 Bft) SO 135 0 min 0,0 UV-I 0 W/m -2,7 C -5,1 C 14,5 km/h (3 Bft)
25.01.2021 01:04 -1,7 C -1,1 C 93 % 999,2 hPa 0,0 l/m 11,3 km/h (2 Bft) SO 135 0 min 0,0 UV-I 0 W/m -2,7 C -6,4 C 17,7 km/h (3 Bft)
25.01.2021 01:05 -1,7 C -0,6 C 93 % 999,3 hPa 0,0 l/m 11,3 km/h (2 Bft) S-SO 157 0 min 0,0 UV-I 0 W/m -2,7 C -6,4 C 17,7 km/h (3 Bft)
25.01.2021 01:06 -1,7 C -0,6 C 93 % 999,2 hPa 0,0 l/m 9,7 km/h (2 Bft) SO 135 0 min 0,0 UV-I 0 W/m -2,7 C -5,1 C 12,9 km/h (3 Bft)
25.01.2021 01:07 -1,6 C -0,6 C 93 % 999,2 hPa 0,0 l/m 8,0 km/h (2 Bft) S-SO 157 0 min 0,0 UV-I 0 W/m -2,6 C -3,3 C 12,9 km/h (3 Bft)
25.01.2021 01:08 -1,7 C -0,6 C 93 % 999,2 hPa 0,0 l/m 12,9 km/h (3 Bft) SO 135 0 min 0,0 UV-I 0 W/m -2,7 C -7,6 C 16,1 km/h (3 Bft)
25.01.2021 01:09 -1,6 C -0,6 C 93 % 999,2 hPa 0,0 l/m 8,0 km/h (2 Bft) SO 135 0 min 0,0 UV-I 0 W/m -2,6 C -3,3 C 12,9 km/h (3 Bft)
25.01.2021 01:10 -1,7 C -0,6 C 93 % 999,2 hPa 0,0 l/m 8,0 km/h (2 Bft) S-SO 157 0 min 0,0 UV-I 0 W/m -2,7 C -3,4 C 17,7 km/h (3 Bft)
25.01.2021 01:11 -1,7 C -0,6 C 93 % 999,2 hPa 0,0 l/m 8,0 km/h (2 Bft) SO 135 0 min 0,0 UV-I 0 W/m -2,7 C -3,4 C 12,9 km/h (3 Bft)
25.01.2021 01:12 -1,7 C -0,6 C 93 % 999,2 hPa 0,0 l/m 4,8 km/h (1 Bft) S-SO 157 0 min 0,0 UV-I 0 W/m -2,7 C -1,7 C 8,0 km/h (2 Bft)
25.01.2021 01:13 -1,7 C -0,6 C 93 % 999,2 hPa 0,0 l/m 9,7 km/h (2 Bft) SO 135 0 min 0,0 UV-I 0 W/m -2,7 C -5,1 C 12,9 km/h (3 Bft)
25.01.2021 01:14 -1,7 C -0,6 C 93 % 999,2 hPa 0,0 l/m 6,4 km/h (2 Bft) S-SO 157 0 min 0,0 UV-I 0 W/m -2,7 C -1,7 C 9,7 km/h (2 Bft)
25.01.2021 01:15 -1,7 C -0,6 C 93 % 999,2 hPa 0,0 l/m 6,4 km/h (2 Bft) S-SO 157 0 min 0,0 UV-I 0 W/m -2,7 C -1,7 C 11,3 km/h (2 Bft)
25.01.2021 01:16 -1,6 C -1,1 C 93 % 999,1 hPa 0,0 l/m 4,8 km/h (1 Bft) S-SO 157 0 min 0,0 UV-I 0 W/m -2,6 C -1,6 C 8,0 km/h (2 Bft)
25.01.2021 01:17 -1,6 C -0,6 C 93 % 999,2 hPa 0,0 l/m 8,0 km/h (2 Bft) SO 135 0 min 0,0 UV-I 0 W/m -2,6 C -3,3 C 11,3 km/h (2 Bft)
25.01.2021 01:18 -1,7 C -0,6 C 93 % 999,2 hPa 0,0 l/m 4,8 km/h (1 Bft) S-SO 157 0 min 0,0 UV-I 0 W/m -2,7 C -1,7 C 8,0 km/h (2 Bft)
25.01.2021 01:19 -1,6 C -0,6 C 93 % 999,2 hPa 0,0 l/m 6,4 km/h (2 Bft) S-SO 157 0 min 0,0 UV-I 0 W/m -2,6 C -1,6 C 11,3 km/h (2 Bft)
25.01.2021 01:20 -1,7 C -0,6 C 93 % 999,2 hPa 0,0 l/m 8,0 km/h (2 Bft) SO 135 0 min 0,0 UV-I 0 W/m -2,7 C -3,4 C 12,9 km/h (3 Bft)
25.01.2021 01:21 -1,6 C -0,6 C 93 % 999,2 hPa 0,0 l/m 8,0 km/h (2 Bft) S-SO 157 0 min 0,0 UV-I 0 W/m -2,6 C -3,3 C 9,7 km/h (2 Bft)
25.01.2021 01:22 -1,6 C -1,1 C 93 % 999,2 hPa 0,0 l/m 4,8 km/h (1 Bft) S-SO 157 0 min 0,0 UV-I 0 W/m -2,6 C -1,6 C 8,0 km/h (2 Bft)
25.01.2021 01:23 -1,7 C -1,1 C 93 % 999,2 hPa 0,0 l/m 6,4 km/h (2 Bft) S-SO 157 0 min 0,0 UV-I 0 W/m -2,7 C -1,7 C 11,3 km/h (2 Bft)
25.01.2021 01:24 -1,7 C -1,1 C 93 % 999,2 hPa 0,2 l/m 8,0 km/h (2 Bft) S-SO 157 0 min 0,0 UV-I 0 W/m -2,7 C -3,4 C 12,9 km/h (3 Bft)
25.01.2021 01:25 -1,6 C -1,1 C 93 % 999,2 hPa 0,0 l/m 6,4 km/h (2 Bft) S-SO 157 0 min 0,0 UV-I 0 W/m -2,6 C -1,6 C 9,7 km/h (2 Bft)
25.01.2021 01:26 -1,6 C -1,1 C 93 % 999,2 hPa 0,0 l/m 8,0 km/h (2 Bft) SO 135 0 min 0,0 UV-I 0 W/m -2,6 C -3,3 C 11,3 km/h (2 Bft)
25.01.2021 01:27 -1,6 C -1,1 C 93 % 999,2 hPa 0,0 l/m 6,4 km/h (2 Bft) SO 135 0 min 0,0 UV-I 0 W/m -2,6 C -1,6 C 9,7 km/h (2 Bft)
25.01.2021 01:28 -1,6 C -1,1 C 93 % 999,3 hPa 0,0 l/m 6,4 km/h (2 Bft) SO 135 0 min 0,0 UV-I 0 W/m -2,6 C -1,6 C 8,0 km/h (2 Bft)
25.01.2021 01:29 -1,6 C -1,1 C 94 % 999,2 hPa 0,0 l/m 4,8 km/h (1 Bft) SO 135 0 min 0,0 UV-I 0 W/m -2,4 C -1,6 C 6,4 km/h (2 Bft)
25.01.2021 01:30 -1,7 C -1,1 C 93 % 999,2 hPa 0,0 l/m 3,2 km/h (1 Bft) SO 135 0 min 0,0 UV-I 0 W/m -2,7 C -1,7 C 4,8 km/h (1 Bft)
25.01.2021 01:31 -1,7 C -1,1 C 93 % 999,3 hPa 0,0 l/m 8,0 km/h (2 Bft) S-SO 157 0 min 0,0 UV-I 0 W/m -2,7 C -3,4 C 11,3 km/h (2 Bft)
25.01.2021 01:32 -1,6 C -1,1 C 93 % 999,3 hPa 0,0 l/m 6,4 km/h (2 Bft) SO 135 0 min 0,0 UV-I 0 W/m -2,6 C -1,6 C 8,0 km/h (2 Bft)
25.01.2021 01:33 -1,6 C -1,1 C 94 % 999,2 hPa 0,0 l/m 6,4 km/h (2 Bft) S-SO 157 0 min 0,0 UV-I 0 W/m -2,4 C -1,6 C 9,7 km/h (2 Bft)
25.01.2021 01:34 -1,6 C -1,1 C 94 % 999,3 hPa 0,0 l/m 6,4 km/h (2 Bft) S-SO 157 0 min 0,0 UV-I 0 W/m -2,4 C -1,6 C 9,7 km/h (2 Bft)
25.01.2021 01:35 -1,6 C -1,1 C 94 % 999,2 hPa 0,0 l/m 6,4 km/h (2 Bft) S-SO 157 0 min 0,0 UV-I 0 W/m -2,4 C -1,6 C 8,0 km/h (2 Bft)
25.01.2021 01:36 -1,6 C -1,1 C 94 % 999,3 hPa 0,0 l/m 6,4 km/h (2 Bft) S-SO 157 0 min 0,0 UV-I 0 W/m -2,4 C -1,6 C 8,0 km/h (2 Bft)
25.01.2021 01:37 -1,6 C -1,1 C 94 % 999,2 hPa 0,0 l/m 4,8 km/h (1 Bft) S-SO 157 0 min 0,0 UV-I 0 W/m -2,4 C -1,6 C 8,0 km/h (2 Bft)
25.01.2021 01:38 -1,6 C -1,1 C 94 % 999,3 hPa 0,0 l/m 1,6 km/h (1 Bft) S-SO 157 0 min 0,0 UV-I 0 W/m -2,4 C -1,6 C 6,4 km/h (2 Bft)
25.01.2021 01:39 -1,6 C -1,1 C 94 % 999,2 hPa 0,0 l/m 3,2 km/h (1 Bft) S-SO 157 0 min 0,0 UV-I 0 W/m -2,4 C -1,6 C 3,2 km/h (1 Bft)
25.01.2021 01:40 -1,6 C -1,1 C 94 % 999,3 hPa 0,0 l/m 3,2 km/h (1 Bft) S-SO 157 0 min 0,0 UV-I 0 W/m -2,4 C -1,6 C 6,4 km/h (2 Bft)
25.01.2021 01:41 -1,6 C -1,1 C 94 % 999,3 hPa 0,0 l/m 3,2 km/h (1 Bft) S-SO 157 0 min 0,0 UV-I 0 W/m -2,4 C -1,6 C 6,4 km/h (2 Bft)
25.01.2021 01:42 -1,6 C -1,1 C 94 % 999,2 hPa 0,0 l/m 6,4 km/h (2 Bft) S-SO 157 0 min 0,0 UV-I 0 W/m -2,4 C -1,6 C 8,0 km/h (2 Bft)
25.01.2021 01:43 -1,6 C -1,1 C 94 % 999,3 hPa 0,0 l/m 4,8 km/h (1 Bft) S-SO 157 0 min 0,0 UV-I 0 W/m -2,4 C -1,6 C 8,0 km/h (2 Bft)
25.01.2021 01:44 -1,6 C -1,1 C 94 % 999,3 hPa 0,0 l/m 6,4 km/h (2 Bft) S-SO 157 0 min 0,0 UV-I 0 W/m -2,4 C -1,6 C 8,0 km/h (2 Bft)
25.01.2021 01:45 -1,6 C -1,1 C 94 % 999,2 hPa 0,0 l/m 3,2 km/h (1 Bft) S-SO 157 0 min 0,0 UV-I 0 W/m -2,4 C -1,6 C 6,4 km/h (2 Bft)
25.01.2021 01:46 -1,6 C -1,1 C 93 % 999,3 hPa 0,0 l/m 3,2 km/h (1 Bft) S-SO 157 0 min 0,0 UV-I 0 W/m -2,6 C -1,6 C 6,4 km/h (2 Bft)
25.01.2021 01:47 -1,6 C -1,1 C 94 % 999,3 hPa 0,0 l/m 1,6 km/h (1 Bft) S-SO 157 0 min 0,0 UV-I 0 W/m -2,4 C -1,6 C 6,4 km/h (2 Bft)
25.01.2021 01:48 -1,6 C -1,1 C 94 % 999,2 hPa 0,0 l/m 1,6 km/h (1 Bft) S-SO 157 0 min 0,0 UV-I 0 W/m -2,4 C -1,6 C 1,6 km/h (1 Bft)
25.01.2021 01:49 -1,6 C -1,1 C 94 % 999,3 hPa 0,2 l/m 0,0 km/h (0 Bft) S-SO 157 0 min 0,0 UV-I 0 W/m -2,4 C -1,6 C 1,6 km/h (1 Bft)
25.01.2021 01:50 -1,6 C -1,1 C 94 % 999,2 hPa 0,0 l/m 1,6 km/h (1 Bft) S-SO 157 0 min 0,0 UV-I 0 W/m -2,4 C -1,6 C 6,4 km/h (2 Bft)
25.01.2021 01:51 -1,6 C -1,1 C 94 % 999,2 hPa 0,0 l/m 4,8 km/h (1 Bft) S-SO 157 0 min 0,0 UV-I 0 W/m -2,4 C -1,6 C 6,4 km/h (2 Bft)
25.01.2021 01:52 -1,6 C -1,1 C 94 % 999,3 hPa 0,0 l/m 3,2 km/h (1 Bft) S-SO 157 0 min 0,0 UV-I 0 W/m -2,4 C -1,6 C 6,4 km/h (2 Bft)
25.01.2021 01:53 -1,6 C -1,1 C 94 % 999,2 hPa 0,0 l/m 3,2 km/h (1 Bft) S-SO 157 0 min 0,0 UV-I 0 W/m -2,4 C -1,6 C 6,4 km/h (2 Bft)
25.01.2021 01:54 -1,6 C -1,1 C 94 % 999,3 hPa 0,0 l/m 4,8 km/h (1 Bft) S-SO 157 0 min 0,0 UV-I 0 W/m -2,4 C -1,6 C 6,4 km/h (2 Bft)
25.01.2021 01:55 -1,6 C -1,1 C 94 % 999,2 hPa 0,0 l/m 3,2 km/h (1 Bft) S-SO 157 0 min 0,0 UV-I 0 W/m -2,4 C -1,6 C 6,4 km/h (2 Bft)
25.01.2021 01:56 -1,6 C -1,1 C 94 % 999,3 hPa 0,0 l/m 3,2 km/h (1 Bft) S-SO 157 0 min 0,0 UV-I 0 W/m -2,4 C -1,6 C 3,2 km/h (1 Bft)
25.01.2021 01:57 -1,6 C -1,1 C 94 % 999,3 hPa 0,0 l/m 3,2 km/h (1 Bft) S-SO 157 0 min 0,0 UV-I 0 W/m -2,4 C -1,6 C 6,4 km/h (2 Bft)
25.01.2021 01:58 -1,6 C -1,1 C 94 % 999,3 hPa 0,0 l/m 3,2 km/h (1 Bft) S-SO 157 0 min 0,0 UV-I 0 W/m -2,4 C -1,6 C 6,4 km/h (2 Bft)
25.01.2021 01:59 -1,6 C -1,1 C 94 % 999,3 hPa 0,0 l/m 3,2 km/h (1 Bft) S-SO 157 0 min 0,0 UV-I 0 W/m -2,4 C -1,6 C 6,4 km/h (2 Bft)
25.01.2021 02:00 -1,6 C -1,1 C 94 % 999,3 hPa 0,0 l/m 1,6 km/h (1 Bft) S-SO 157 0 min 0,0 UV-I 0 W/m -2,4 C -1,6 C 3,2 km/h (1 Bft)
25.01.2021 02:01 -1,6 C -0,6 C 94 % 999,3 hPa 0,0 l/m 1,6 km/h (1 Bft) S-SO 157 0 min 0,0 UV-I 0 W/m -2,4 C -1,6 C 3,2 km/h (1 Bft)
25.01.2021 02:02 -1,6 C -0,6 C 94 % 999,4 hPa 0,0 l/m 3,2 km/h (1 Bft) S-SO 157 0 min 0,0 UV-I 0 W/m -2,4 C -1,6 C 6,4 km/h (2 Bft)
25.01.2021 02:03 -1,6 C -1,1 C 94 % 999,2 hPa 0,0 l/m 4,8 km/h (1 Bft) S-SO 157 0 min 0,0 UV-I 0 W/m -2,4 C -1,6 C 6,4 km/h (2 Bft)
25.01.2021 02:04 -1,6 C -1,1 C 94 % 999,2 hPa 0,0 l/m 3,2 km/h (1 Bft) SO 135 0 min 0,0 UV-I 0 W/m -2,4 C -1,6 C 4,8 km/h (1 Bft)
25.01.2021 02:05 -1,6 C -0,6 C 94 % 999,2 hPa 0,0 l/m 1,6 km/h (1 Bft) SO 135 0 min 0,0 UV-I 0 W/m -2,4 C -1,6 C 3,2 km/h (1 Bft)
25.01.2021 02:06 -1,6 C -0,6 C 94 % 999,3 hPa 0,0 l/m 4,8 km/h (1 Bft) SO 135 0 min 0,0 UV-I 0 W/m -2,4 C -1,6 C 8,0 km/h (2 Bft)
25.01.2021 02:07 -1,6 C -0,6 C 94 % 999,3 hPa 0,0 l/m 4,8 km/h (1 Bft) S-SO 157 0 min 0,0 UV-I 0 W/m -2,4 C -1,6 C 8,0 km/h (2 Bft)
25.01.2021 02:08 -1,6 C -0,6 C 94 % 999,1 hPa 0,0 l/m 6,4 km/h (2 Bft) S-SO 157 0 min 0,0 UV-I 0 W/m -2,4 C -1,6 C 8,0 km/h (2 Bft)
25.01.2021 02:09 -1,6 C -0,6 C 94 % 999,2 hPa 0,0 l/m 6,4 km/h (2 Bft) S-SO 157 0 min 0,0 UV-I 0 W/m -2,4 C -1,6 C 8,0 km/h (2 Bft)
25.01.2021 02:10 -1,6 C -0,6 C 94 % 999,2 hPa 0,0 l/m 8,0 km/h (2 Bft) S-SO 157 0 min 0,0 UV-I 0 W/m -2,4 C -3,3 C 12,9 km/h (3 Bft)
25.01.2021 02:11 -1,6 C -0,6 C 94 % 999,2 hPa 0,0 l/m 6,4 km/h (2 Bft) SO 135 0 min 0,0 UV-I 0 W/m -2,4 C -1,6 C 8,0 km/h (2 Bft)
25.01.2021 02:12 -1,6 C -0,6 C 94 % 999,3 hPa 0,0 l/m 3,2 km/h (1 Bft) S-SO 157 0 min 0,0 UV-I 0 W/m -2,4 C -1,6 C 8,0 km/h (2 Bft)
25.01.2021 02:13 -1,6 C -0,6 C 94 % 999,2 hPa 0,0 l/m 4,8 km/h (1 Bft) S-SO 157 0 min 0,0 UV-I 0 W/m -2,4 C -1,6 C 8,0 km/h (2 Bft)
25.01.2021 02:14 -1,6 C -0,6 C 94 % 999,3 hPa 0,0 l/m 4,8 km/h (1 Bft) SO 135 0 min 0,0 UV-I 0 W/m -2,4 C -1,6 C 6,4 km/h (2 Bft)
25.01.2021 02:15 -1,6 C -0,6 C 94 % 999,2 hPa 0,0 l/m 3,2 km/h (1 Bft) SO 135 0 min 0,0 UV-I 0 W/m -2,4 C -1,6 C 4,8 km/h (1 Bft)
25.01.2021 02:16 -1,6 C -0,6 C 94 % 999,2 hPa 0,2 l/m 3,2 km/h (1 Bft) SO 135 0 min 0,0 UV-I 0 W/m -2,4 C -1,6 C 6,4 km/h (2 Bft)
25.01.2021 02:17 -1,6 C -0,6 C 94 % 999,3 hPa 0,0 l/m 4,8 km/h (1 Bft) SO 135 0 min 0,0 UV-I 0 W/m -2,4 C -1,6 C 8,0 km/h (2 Bft)
25.01.2021 02:18 -1,6 C -0,6 C 94 % 999,3 hPa 0,0 l/m 3,2 km/h (1 Bft) SO 135 0 min 0,0 UV-I 0 W/m -2,4 C -1,6 C 4,8 km/h (1 Bft)
25.01.2021 02:19 -1,6 C -0,6 C 94 % 999,2 hPa 0,0 l/m 4,8 km/h (1 Bft) SO 135 0 min 0,0 UV-I 0 W/m -2,4 C -1,6 C 8,0 km/h (2 Bft)
25.01.2021 02:20 -1,6 C -0,6 C 94 % 999,3 hPa 0,0 l/m 3,2 km/h (1 Bft) S-SO 157 0 min 0,0 UV-I 0 W/m -2,4 C -1,6 C 6,4 km/h (2 Bft)
25.01.2021 02:21 -1,6 C -0,6 C 94 % 999,3 hPa 0,0 l/m 4,8 km/h (1 Bft) S-SO 157 0 min 0,0 UV-I 0 W/m -2,4 C -1,6 C 6,4 km/h (2 Bft)
25.01.2021 02:22 -1,6 C -0,6 C 94 % 999,3 hPa 0,0 l/m 4,8 km/h (1 Bft) S-SO 157 0 min 0,0 UV-I 0 W/m -2,4 C -1,6 C 6,4 km/h (2 Bft)
25.01.2021 02:23 -1,6 C -0,6 C 94 % 999,3 hPa 0,0 l/m 4,8 km/h (1 Bft) SO 135 0 min 0,0 UV-I 0 W/m -2,4 C -1,6 C 6,4 km/h (2 Bft)
25.01.2021 02:24 -1,6 C -0,6 C 94 % 999,3 hPa 0,0 l/m 3,2 km/h (1 Bft) SO 135 0 min 0,0 UV-I 0 W/m -2,4 C -1,6 C 4,8 km/h (1 Bft)
25.01.2021 02:25 -1,6 C -0,6 C 94 % 999,3 hPa 0,0 l/m 3,2 km/h (1 Bft) SO 135 0 min 0,0 UV-I 0 W/m -2,4 C -1,6 C 4,8 km/h (1 Bft)
25.01.2021 02:26 -1,6 C -0,6 C 94 % 999,2 hPa 0,0 l/m 3,2 km/h (1 Bft) SO 135 0 min 0,0 UV-I 0 W/m -2,4 C -1,6 C 4,8 km/h (1 Bft)
25.01.2021 02:27 -1,6 C -0,6 C 94 % 999,3 hPa 0,0 l/m 3,2 km/h (1 Bft) SO 135 0 min 0,0 UV-I 0 W/m -2,4 C -1,6 C 4,8 km/h (1 Bft)
25.01.2021 02:28 -1,6 C -0,6 C 94 % 999,3 hPa 0,0 l/m 3,2 km/h (1 Bft) SO 135 0 min 0,0 UV-I 0 W/m -2,4 C -1,6 C 4,8 km/h (1 Bft)
25.01.2021 02:29 -1,6 C -0,6 C 94 % 999,3 hPa 0,0 l/m 1,6 km/h (1 Bft) SO 135 0 min 0,0 UV-I 0 W/m -2,4 C -1,6 C 3,2 km/h (1 Bft)
25.01.2021 02:30 -1,6 C -0,6 C 94 % 999,3 hPa 0,0 l/m 1,6 km/h (1 Bft) SO 135 0 min 0,0 UV-I 0 W/m -2,4 C -1,6 C 3,2 km/h (1 Bft)
25.01.2021 02:31 -1,6 C -0,6 C 94 % 999,3 hPa 0,0 l/m 3,2 km/h (1 Bft) SO 135 0 min 0,0 UV-I 0 W/m -2,4 C -1,6 C 4,8 km/h (1 Bft)
25.01.2021 02:32 -1,6 C -0,6 C 94 % 999,3 hPa 0,0 l/m 3,2 km/h (1 Bft) SO 135 0 min 0,0 UV-I 0 W/m -2,4 C -1,6 C 4,8 km/h (1 Bft)
25.01.2021 02:33 -1,6 C -0,6 C 94 % 999,3 hPa 0,0 l/m 3,2 km/h (1 Bft) SO 135 0 min 0,0 UV-I 0 W/m -2,4 C -1,6 C 4,8 km/h (1 Bft)
25.01.2021 02:34 -1,6 C -0,6 C 94 % 999,3 hPa 0,0 l/m 4,8 km/h (1 Bft) S-SO 157 0 min 0,0 UV-I 0 W/m -2,4 C -1,6 C 8,0 km/h (2 Bft)
25.01.2021 02:35 -1,6 C -0,6 C 94 % 999,3 hPa 0,0 l/m 4,8 km/h (1 Bft) S-SO 157 0 min 0,0 UV-I 0 W/m -2,4 C -1,6 C 8,0 km/h (2 Bft)
25.01.2021 02:36 -1,6 C -0,6 C 94 % 999,3 hPa 0,0 l/m 4,8 km/h (1 Bft) S-SO 157 0 min 0,0 UV-I 0 W/m -2,4 C -1,6 C 8,0 km/h (2 Bft)
25.01.2021 02:37 -1,6 C -0,6 C 94 % 999,3 hPa 0,0 l/m 4,8 km/h (1 Bft) S-SO 157 0 min 0,0 UV-I 0 W/m -2,4 C -1,6 C 6,4 km/h (2 Bft)
25.01.2021 02:38 -1,6 C -0,6 C 94 % 999,3 hPa 0,0 l/m 1,6 km/h (1 Bft) S-SO 157 0 min 0,0 UV-I 0 W/m -2,4 C -1,6 C 3,2 km/h (1 Bft)
25.01.2021 02:39 -1,6 C -0,6 C 94 % 999,3 hPa 0,0 l/m 1,6 km/h (1 Bft) S-SO 157 0 min 0,0 UV-I 0 W/m -2,4 C -1,6 C 1,6 km/h (1 Bft)
25.01.2021 02:40 -1,6 C -0,6 C 94 % 999,3 hPa 0,0 l/m 1,6 km/h (1 Bft) S-SO 157 0 min 0,0 UV-I 0 W/m -2,4 C -1,6 C 3,2 km/h (1 Bft)
25.01.2021 02:41 -1,6 C -0,6 C 94 % 999,4 hPa 0,0 l/m 3,2 km/h (1 Bft) S-SO 157 0 min 0,0 UV-I 0 W/m -2,4 C -1,6 C 6,4 km/h (2 Bft)
25.01.2021 02:42 -1,6 C -0,6 C 94 % 999,4 hPa 0,0 l/m 3,2 km/h (1 Bft) S-SO 157 0 min 0,0 UV-I 0 W/m -2,4 C -1,6 C 3,2 km/h (1 Bft)
25.01.2021 02:43 -1,6 C -0,6 C 94 % 999,3 hPa 0,0 l/m 1,6 km/h (1 Bft) S-SO 157 0 min 0,0 UV-I 0 W/m -2,4 C -1,6 C 3,2 km/h (1 Bft)
25.01.2021 02:44 -1,6 C -0,6 C 94 % 999,4 hPa 0,2 l/m 3,2 km/h (1 Bft) S-SO 157 0 min 0,0 UV-I 0 W/m -2,4 C -1,6 C 6,4 km/h (2 Bft)
25.01.2021 02:45 -1,6 C -0,6 C 94 % 999,3 hPa 0,0 l/m 4,8 km/h (1 Bft) S-SO 157 0 min 0,0 UV-I 0 W/m -2,4 C -1,6 C 8,0 km/h (2 Bft)
25.01.2021 02:46 -1,6 C -0,6 C 94 % 999,3 hPa 0,0 l/m 3,2 km/h (1 Bft) S-SO 157 0 min 0,0 UV-I 0 W/m -2,4 C -1,6 C 6,4 km/h (2 Bft)
25.01.2021 02:47 -1,6 C -0,6 C 94 % 999,3 hPa 0,0 l/m 3,2 km/h (1 Bft) S-SO 157 0 min 0,0 UV-I 0 W/m -2,4 C -1,6 C 6,4 km/h (2 Bft)
25.01.2021 02:48 -1,6 C -0,6 C 94 % 999,3 hPa 0,0 l/m 3,2 km/h (1 Bft) S-SO 157 0 min 0,0 UV-I 0 W/m -2,4 C -1,6 C 3,2 km/h (1 Bft)
25.01.2021 02:49 -1,6 C -0,6 C 94 % 999,3 hPa 0,0 l/m 3,2 km/h (1 Bft) S-SO 157 0 min 0,0 UV-I 0 W/m -2,4 C -1,6 C 3,2 km/h (1 Bft)
25.01.2021 02:50 -1,6 C -0,6 C 94 % 999,3 hPa 0,0 l/m 1,6 km/h (1 Bft) S-SO 157 0 min 0,0 UV-I 0 W/m -2,4 C -1,6 C 3,2 km/h (1 Bft)
25.01.2021 02:51 -1,6 C -0,6 C 94 % 999,3 hPa 0,0 l/m 3,2 km/h (1 Bft) S-SO 157 0 min 0,0 UV-I 0 W/m -2,4 C -1,6 C 6,4 km/h (2 Bft)
25.01.2021 02:52 -1,5 C -0,6 C 94 % 999,3 hPa 0,0 l/m 3,2 km/h (1 Bft) S-SO 157 0 min 0,0 UV-I 0 W/m -2,3 C -1,5 C 6,4 km/h (2 Bft)
25.01.2021 02:53 -1,5 C -0,6 C 94 % 999,3 hPa 0,0 l/m 3,2 km/h (1 Bft) S-SO 157 0 min 0,0 UV-I 0 W/m -2,3 C -1,5 C 6,4 km/h (2 Bft)
25.01.2021 02:54 -1,5 C -0,6 C 94 % 999,3 hPa 0,0 l/m 3,2 km/h (1 Bft) S-SO 157 0 min 0,0 UV-I 0 W/m -2,3 C -1,5 C 3,2 km/h (1 Bft)
25.01.2021 02:55 -1,6 C -0,6 C 94 % 999,3 hPa 0,0 l/m 3,2 km/h (1 Bft) S-SO 157 0 min 0,0 UV-I 0 W/m -2,4 C -1,6 C 6,4 km/h (2 Bft)
25.01.2021 02:56 -1,5 C -0,6 C 94 % 999,3 hPa 0,0 l/m 4,8 km/h (1 Bft) S-SO 157 0 min 0,0 UV-I 0 W/m -2,3 C -1,5 C 8,0 km/h (2 Bft)
25.01.2021 02:57 -1,5 C -0,6 C 94 % 999,3 hPa 0,0 l/m 3,2 km/h (1 Bft) S-SO 157 0 min 0,0 UV-I 0 W/m -2,3 C -1,5 C 3,2 km/h (1 Bft)
25.01.2021 02:58 -1,5 C -0,6 C 94 % 999,3 hPa 0,0 l/m 1,6 km/h (1 Bft) S-SO 157 0 min 0,0 UV-I 0 W/m -2,3 C -1,5 C 3,2 km/h (1 Bft)
25.01.2021 02:59 -1,6 C -0,6 C 94 % 999,4 hPa 0,0 l/m 1,6 km/h (1 Bft) S-SO 157 0 min 0,0 UV-I 0 W/m -2,4 C -1,6 C 3,2 km/h (1 Bft)
25.01.2021 03:00 -1,5 C -0,6 C 94 % 999,3 hPa 0,0 l/m 1,6 km/h (1 Bft) S-SO 157 0 min 0,0 UV-I 0 W/m -2,3 C -1,5 C 3,2 km/h (1 Bft)
25.01.2021 03:01 -1,5 C -0,6 C 94 % 999,3 hPa 0,0 l/m 1,6 km/h (1 Bft) S-SO 157 0 min 0,0 UV-I 0 W/m -2,3 C -1,5 C 3,2 km/h (1 Bft)
25.01.2021 03:02 -1,5 C -0,6 C 94 % 999,3 hPa 0,0 l/m 1,6 km/h (1 Bft) S-SO 157 0 min 0,0 UV-I 0 W/m -2,3 C -1,5 C 3,2 km/h (1 Bft)
25.01.2021 03:03 -1,5 C -0,6 C 94 % 999,3 hPa 0,0 l/m 1,6 km/h (1 Bft) S-SO 157 0 min 0,0 UV-I 0 W/m -2,3 C -1,5 C 3,2 km/h (1 Bft)
25.01.2021 03:04 -1,5 C -0,6 C 94 % 999,3 hPa 0,2 l/m 3,2 km/h (1 Bft) S-SO 157 0 min 0,0 UV-I 0 W/m -2,3 C -1,5 C 3,2 km/h (1 Bft)
25.01.2021 03:05 -1,5 C -0,6 C 94 % 999,3 hPa 0,0 l/m 1,6 km/h (1 Bft) S-SO 157 0 min 0,0 UV-I 0 W/m -2,3 C -1,5 C 3,2 km/h (1 Bft)
25.01.2021 03:06 -1,5 C -0,6 C 94 % 999,3 hPa 0,0 l/m 3,2 km/h (1 Bft) S-SO 157 0 min 0,0 UV-I 0 W/m -2,3 C -1,5 C 3,2 km/h (1 Bft)
25.01.2021 03:07 -1,5 C -0,6 C 94 % 999,4 hPa 0,0 l/m 1,6 km/h (1 Bft) S-SO 157 0 min 0,0 UV-I 0 W/m -2,3 C -1,5 C 3,2 km/h (1 Bft)
25.01.2021 03:08 -1,5 C -0,6 C 94 % 999,3 hPa 0,0 l/m 1,6 km/h (1 Bft) S-SO 157 0 min 0,0 UV-I 0 W/m -2,3 C -1,5 C 1,6 km/h (1 Bft)
25.01.2021 03:09 -1,5 C -0,6 C 94 % 999,3 hPa 0,0 l/m 3,2 km/h (1 Bft) S-SO 157 0 min 0,0 UV-I 0 W/m -2,3 C -1,5 C 3,2 km/h (1 Bft)
25.01.2021 03:10 -1,5 C -0,6 C 94 % 999,3 hPa 0,0 l/m 1,6 km/h (1 Bft) S-SO 157 0 min 0,0 UV-I 0 W/m -2,3 C -1,5 C 3,2 km/h (1 Bft)
25.01.2021 03:11 -1,6 C -0,6 C 94 % 999,3 hPa 0,0 l/m 1,6 km/h (1 Bft) S-SO 157 0 min 0,0 UV-I 0 W/m -2,4 C -1,6 C 1,6 km/h (1 Bft)
25.01.2021 03:12 -1,6 C -0,6 C 94 % 999,4 hPa 0,0 l/m 1,6 km/h (1 Bft) S-SO 157 0 min 0,0 UV-I 0 W/m -2,4 C -1,6 C 3,2 km/h (1 Bft)
25.01.2021 03:13 -1,5 C -0,6 C 94 % 999,4 hPa 0,0 l/m 1,6 km/h (1 Bft) S-SO 157 0 min 0,0 UV-I 0 W/m -2,3 C -1,5 C 3,2 km/h (1 Bft)
25.01.2021 03:14 -1,5 C -0,6 C 94 % 999,3 hPa 0,0 l/m 1,6 km/h (1 Bft) S-SO 157 0 min 0,0 UV-I 0 W/m -2,3 C -1,5 C 3,2 km/h (1 Bft)
25.01.2021 03:15 -1,5 C -0,6 C 94 % 999,4 hPa 0,0 l/m 1,6 km/h (1 Bft) S-SO 157 0 min 0,0 UV-I 0 W/m -2,3 C -1,5 C 3,2 km/h (1 Bft)
25.01.2021 03:16 -1,5 C -0,6 C 94 % 999,3 hPa 0,0 l/m 1,6 km/h (1 Bft) S-SO 157 0 min 0,0 UV-I 0 W/m -2,3 C -1,5 C 3,2 km/h (1 Bft)
25.01.2021 03:17 -1,5 C -0,6 C 94 % 999,3 hPa 0,0 l/m 1,6 km/h (1 Bft) S-SO 157 0 min 0,0 UV-I 0 W/m -2,3 C -1,5 C 3,2 km/h (1 Bft)
25.01.2021 03:18 -1,5 C -0,6 C 94 % 999,3 hPa 0,0 l/m 1,6 km/h (1 Bft) S-SO 157 0 min 0,0 UV-I 0 W/m -2,3 C -1,5 C 3,2 km/h (1 Bft)
25.01.2021 03:19 -1,4 C -0,6 C 94 % 999,4 hPa 0,0 l/m 3,2 km/h (1 Bft) S-SO 157 0 min 0,0 UV-I 0 W/m -2,2 C -1,4 C 6,4 km/h (2 Bft)
25.01.2021 03:20 -1,5 C -0,6 C 94 % 999,3 hPa 0,2 l/m 1,6 km/h (1 Bft) S-SO 157 0 min 0,0 UV-I 0 W/m -2,3 C -1,5 C 3,2 km/h (1 Bft)
25.01.2021 03:21 -1,5 C -0,6 C 94 % 999,4 hPa 0,0 l/m 1,6 km/h (1 Bft) S-SO 157 0 min 0,0 UV-I 0 W/m -2,3 C -1,5 C 1,6 km/h (1 Bft)
25.01.2021 03:22 -1,5 C -0,6 C 94 % 999,3 hPa 0,0 l/m 1,6 km/h (1 Bft) S-SO 157 0 min 0,0 UV-I 0 W/m -2,3 C -1,5 C 6,4 km/h (2 Bft)
25.01.2021 03:23 -1,5 C -0,6 C 94 % 999,3 hPa 0,0 l/m 1,6 km/h (1 Bft) S-SO 157 0 min 0,0 UV-I 0 W/m -2,3 C -1,5 C 3,2 km/h (1 Bft)
25.01.2021 03:24 -1,5 C -0,6 C 94 % 999,3 hPa 0,0 l/m 0,0 km/h (0 Bft) S-SO 157 0 min 0,0 UV-I 0 W/m -2,3 C -1,5 C 1,6 km/h (1 Bft)
25.01.2021 03:25 -1,5 C -0,6 C 94 % 999,2 hPa 0,0 l/m 1,6 km/h (1 Bft) S-SO 157 0 min 0,0 UV-I 0 W/m -2,3 C -1,5 C 3,2 km/h (1 Bft)
25.01.2021 03:26 -1,5 C -0,6 C 94 % 999,3 hPa 0,0 l/m 1,6 km/h (1 Bft) S-SO 157 0 min 0,0 UV-I 0 W/m -2,3 C -1,5 C 3,2 km/h (1 Bft)
25.01.2021 03:27 -1,5 C -0,6 C 94 % 999,4 hPa 0,0 l/m 1,6 km/h (1 Bft) S-SO 157 0 min 0,0 UV-I 0 W/m -2,3 C -1,5 C 1,6 km/h (1 Bft)
25.01.2021 03:28 -1,5 C -0,6 C 94 % 999,3 hPa 0,0 l/m 1,6 km/h (1 Bft) S-SO 157 0 min 0,0 UV-I 0 W/m -2,3 C -1,5 C 3,2 km/h (1 Bft)
25.01.2021 03:29 -1,5 C -0,6 C 94 % 999,3 hPa 0,0 l/m 0,0 km/h (0 Bft) S-SO 157 0 min 0,0 UV-I 0 W/m -2,3 C -1,5 C 1,6 km/h (1 Bft)
25.01.2021 03:30 -1,5 C -0,6 C 94 % 999,3 hPa 0,0 l/m 1,6 km/h (1 Bft) S-SO 157 0 min 0,0 UV-I 0 W/m -2,3 C -1,5 C 1,6 km/h (1 Bft)
25.01.2021 03:31 -1,4 C -0,6 C 94 % 999,3 hPa 0,0 l/m 1,6 km/h (1 Bft) S-SO 157 0 min 0,0 UV-I 0 W/m -2,2 C -1,4 C 1,6 km/h (1 Bft)
25.01.2021 03:32 -1,5 C -0,6 C 94 % 999,3 hPa 0,0 l/m 0,0 km/h (0 Bft) S-SO 157 0 min 0,0 UV-I 0 W/m -2,3 C -1,5 C 1,6 km/h (1 Bft)
25.01.2021 03:33 -1,5 C -0,6 C 94 % 999,3 hPa 0,0 l/m 1,6 km/h (1 Bft) S-SO 157 0 min 0,0 UV-I 0 W/m -2,3 C -1,5 C 1,6 km/h (1 Bft)
25.01.2021 03:34 -1,5 C -0,6 C 94 % 999,4 hPa 0,0 l/m 1,6 km/h (1 Bft) S-SO 157 0 min 0,0 UV-I 0 W/m -2,3 C -1,5 C 3,2 km/h (1 Bft)
25.01.2021 03:35 -1,5 C -0,6 C 94 % 999,4 hPa 0,2 l/m 1,6 km/h (1 Bft) S-SO 157 0 min 0,0 UV-I 0 W/m -2,3 C -1,5 C 3,2 km/h (1 Bft)
25.01.2021 03:36 -1,4 C -0,6 C 94 % 999,3 hPa 0,0 l/m 1,6 km/h (1 Bft) S-SO 157 0 min 0,0 UV-I 0 W/m -2,2 C -1,4 C 3,2 km/h (1 Bft)
25.01.2021 03:37 -1,4 C -0,6 C 94 % 999,4 hPa 0,0 l/m 1,6 km/h (1 Bft) S-SO 157 0 min 0,0 UV-I 0 W/m -2,2 C -1,4 C 1,6 km/h (1 Bft)
25.01.2021 03:38 -1,4 C -0,6 C 94 % 999,3 hPa 0,0 l/m 1,6 km/h (1 Bft) S-SO 157 0 min 0,0 UV-I 0 W/m -2,2 C -1,4 C 1,6 km/h (1 Bft)
25.01.2021 03:39 -1,5 C -0,6 C 94 % 999,4 hPa 0,0 l/m 1,6 km/h (1 Bft) S-SO 157 0 min 0,0 UV-I 0 W/m -2,3 C -1,5 C 3,2 km/h (1 Bft)
25.01.2021 03:40 -1,5 C -0,6 C 94 % 999,3 hPa 0,0 l/m 1,6 km/h (1 Bft) S-SO 157 0 min 0,0 UV-I 0 W/m -2,3 C -1,5 C 1,6 km/h (1 Bft)
25.01.2021 03:41 -1,4 C -0,6 C 94 % 999,4 hPa 0,0 l/m 3,2 km/h (1 Bft) S-SO 157 0 min 0,0 UV-I 0 W/m -2,2 C -1,4 C 3,2 km/h (1 Bft)
25.01.2021 03:42 -1,5 C -0,6 C 94 % 999,3 hPa 0,0 l/m 1,6 km/h (1 Bft) S-SO 157 0 min 0,0 UV-I 0 W/m -2,3 C -1,5 C 3,2 km/h (1 Bft)
25.01.2021 03:43 -1,4 C -0,6 C 94 % 999,3 hPa 0,0 l/m 1,6 km/h (1 Bft) S-SO 157 0 min 0,0 UV-I 0 W/m -2,2 C -1,4 C 3,2 km/h (1 Bft)
25.01.2021 03:44 -1,4 C -0,6 C 94 % 999,3 hPa 0,0 l/m 0,0 km/h (0 Bft) S-SO 157 0 min 0,0 UV-I 0 W/m -2,2 C -1,4 C 1,6 km/h (1 Bft)
25.01.2021 03:45 -1,4 C -0,6 C 94 % 999,4 hPa 0,0 l/m 0,0 km/h (0 Bft) S-SO 157 0 min 0,0 UV-I 0 W/m -2,2 C -1,4 C 1,6 km/h (1 Bft)
25.01.2021 03:46 -1,4 C -0,6 C 94 % 999,3 hPa 0,0 l/m 1,6 km/h (1 Bft) S-SO 157 0 min 0,0 UV-I 0 W/m -2,2 C -1,4 C 1,6 km/h (1 Bft)
25.01.2021 03:47 -1,4 C -0,6 C 94 % 999,4 hPa 0,0 l/m 3,2 km/h (1 Bft) S-SO 157 0 min 0,0 UV-I 0 W/m -2,2 C -1,4 C 3,2 km/h (1 Bft)
25.01.2021 03:48 -1,4 C -0,6 C 94 % 999,3 hPa 0,0 l/m 3,2 km/h (1 Bft) S-SO 157 0 min 0,0 UV-I 0 W/m -2,2 C -1,4 C 3,2 km/h (1 Bft)
25.01.2021 03:49 -1,4 C -0,6 C 94 % 999,4 hPa 0,0 l/m 1,6 km/h (1 Bft) S-SO 157 0 min 0,0 UV-I 0 W/m -2,2 C -1,4 C 3,2 km/h (1 Bft)
25.01.2021 03:50 -1,4 C -0,6 C 94 % 999,4 hPa 0,0 l/m 1,6 km/h (1 Bft) S-SO 157 0 min 0,0 UV-I 0 W/m -2,2 C -1,4 C 3,2 km/h (1 Bft)
25.01.2021 03:51 -1,4 C -0,6 C 94 % 999,4 hPa 0,0 l/m 1,6 km/h (1 Bft) S-SO 157 0 min 0,0 UV-I 0 W/m -2,2 C -1,4 C 3,2 km/h (1 Bft)
25.01.2021 03:52 -1,4 C -0,6 C 94 % 999,4 hPa 0,0 l/m 1,6 km/h (1 Bft) S-SO 157 0 min 0,0 UV-I 0 W/m -2,2 C -1,4 C 1,6 km/h (1 Bft)
25.01.2021 03:53 -1,4 C -0,6 C 94 % 999,4 hPa 0,2 l/m 1,6 km/h (1 Bft) S-SO 157 0 min 0,0 UV-I 0 W/m -2,2 C -1,4 C 3,2 km/h (1 Bft)
25.01.2021 03:54 -1,4 C -0,6 C 94 % 999,4 hPa 0,0 l/m 1,6 km/h (1 Bft) S-SO 157 0 min 0,0 UV-I 0 W/m -2,2 C -1,4 C 1,6 km/h (1 Bft)
25.01.2021 03:55 -1,4 C -0,6 C 94 % 999,4 hPa 0,0 l/m 1,6 km/h (1 Bft) S-SO 157 0 min 0,0 UV-I 0 W/m -2,2 C -1,4 C 1,6 km/h (1 Bft)
25.01.2021 03:56 -1,4 C -0,6 C 94 % 999,3 hPa 0,0 l/m 1,6 km/h (1 Bft) S-SO 157 0 min 0,0 UV-I 0 W/m -2,2 C -1,4 C 3,2 km/h (1 Bft)
25.01.2021 03:57 -1,4 C -0,6 C 94 % 999,4 hPa 0,0 l/m 1,6 km/h (1 Bft) S-SO 157 0 min 0,0 UV-I 0 W/m -2,2 C -1,4 C 3,2 km/h (1 Bft)
25.01.2021 03:58 -1,4 C -0,6 C 94 % 999,4 hPa 0,0 l/m 1,6 km/h (1 Bft) S-SO 157 0 min 0,0 UV-I 0 W/m -2,2 C -1,4 C 3,2 km/h (1 Bft)
25.01.2021 03:59 -1,4 C -0,6 C 94 % 999,4 hPa 0,0 l/m 1,6 km/h (1 Bft) S-SO 157 0 min 0,0 UV-I 0 W/m -2,2 C -1,4 C 3,2 km/h (1 Bft)
25.01.2021 04:00 -1,4 C -0,6 C 94 % 999,4 hPa 0,0 l/m 1,6 km/h (1 Bft) S-SO 157 0 min 0,0 UV-I 0 W/m -2,2 C -1,4 C 3,2 km/h (1 Bft)
25.01.2021 04:01 -1,4 C -0,6 C 94 % 999,4 hPa 0,0 l/m 1,6 km/h (1 Bft) S-SO 157 0 min 0,0 UV-I 0 W/m -2,2 C -1,4 C 3,2 km/h (1 Bft)
25.01.2021 04:02 -1,4 C -0,6 C 94 % 999,4 hPa 0,0 l/m 1,6 km/h (1 Bft) S-SO 157 0 min 0,0 UV-I 0 W/m -2,2 C -1,4 C 3,2 km/h (1 Bft)
25.01.2021 04:03 -1,4 C -0,6 C 94 % 999,4 hPa 0,0 l/m 3,2 km/h (1 Bft) S-SO 157 0 min 0,0 UV-I 0 W/m -2,2 C -1,4 C 3,2 km/h (1 Bft)
25.01.2021 04:04 -1,4 C -0,6 C 94 % 999,4 hPa 0,0 l/m 1,6 km/h (1 Bft) S-SO 157 0 min 0,0 UV-I 0 W/m -2,2 C -1,4 C 3,2 km/h (1 Bft)
25.01.2021 04:05 -1,4 C -0,6 C 94 % 999,5 hPa 0,0 l/m 0,0 km/h (0 Bft) S-SO 157 0 min 0,0 UV-I 0 W/m -2,2 C -1,4 C 3,2 km/h (1 Bft)
25.01.2021 04:06 -1,4 C -0,6 C 94 % 999,4 hPa 0,0 l/m 0,0 km/h (0 Bft) S-SO 157 0 min 0,0 UV-I 0 W/m -2,2 C -1,4 C 1,6 km/h (1 Bft)
25.01.2021 04:07 -1,4 C -0,6 C 94 % 999,5 hPa 0,0 l/m 0,0 km/h (0 Bft) S-SO 157 0 min 0,0 UV-I 0 W/m -2,2 C -1,4 C 1,6 km/h (1 Bft)
25.01.2021 04:08 -1,4 C -0,6 C 94 % 999,5 hPa 0,0 l/m 3,2 km/h (1 Bft) S-SO 157 0 min 0,0 UV-I 0 W/m -2,2 C -1,4 C 6,4 km/h (2 Bft)
25.01.2021 04:09 -1,4 C -0,6 C 94 % 999,5 hPa 0,0 l/m 3,2 km/h (1 Bft) SW 225 0 min 0,0 UV-I 0 W/m -2,2 C -1,4 C 4,8 km/h (1 Bft)
25.01.2021 04:10 -1,4 C -0,6 C 94 % 999,4 hPa 0,0 l/m 1,6 km/h (1 Bft) SW 225 0 min 0,0 UV-I 0 W/m -2,2 C -1,4 C 3,2 km/h (1 Bft)
25.01.2021 04:11 -1,4 C -0,6 C 94 % 999,4 hPa 0,0 l/m 1,6 km/h (1 Bft) SW 225 0 min 0,0 UV-I 0 W/m -2,2 C -1,4 C 3,2 km/h (1 Bft)
25.01.2021 04:12 -1,4 C -0,6 C 94 % 999,5 hPa 0,0 l/m 3,2 km/h (1 Bft) SW 225 0 min 0,0 UV-I 0 W/m -2,2 C -1,4 C 6,4 km/h (2 Bft)
25.01.2021 04:13 -1,4 C -0,6 C 94 % 999,4 hPa 0,0 l/m 4,8 km/h (1 Bft) S-SW 202 0 min 0,0 UV-I 0 W/m -2,2 C -1,4 C 6,4 km/h (2 Bft)
25.01.2021 04:14 -1,4 C -0,6 C 94 % 999,5 hPa 0,0 l/m 4,8 km/h (1 Bft) S 180 0 min 0,0 UV-I 0 W/m -2,2 C -1,4 C 6,4 km/h (2 Bft)
25.01.2021 04:15 -1,4 C -0,6 C 94 % 999,4 hPa 0,0 l/m 4,8 km/h (1 Bft) S 180 0 min 0,0 UV-I 0 W/m -2,2 C -1,4 C 8,0 km/h (2 Bft)
25.01.2021 04:16 -1,4 C -0,6 C 94 % 999,5 hPa 0,0 l/m 4,8 km/h (1 Bft) S 180 0 min 0,0 UV-I 0 W/m -2,2 C -1,4 C 6,4 km/h (2 Bft)
25.01.2021 04:17 -1,5 C -0,6 C 94 % 999,4 hPa 0,0 l/m 3,2 km/h (1 Bft) S 180 0 min 0,0 UV-I 0 W/m -2,3 C -1,5 C 4,8 km/h (1 Bft)
25.01.2021 04:18 -1,4 C -0,6 C 94 % 999,5 hPa 0,0 l/m 1,6 km/h (1 Bft) S 180 0 min 0,0 UV-I 0 W/m -2,2 C -1,4 C 3,2 km/h (1 Bft)
25.01.2021 04:19 -1,4 C -0,6 C 94 % 999,5 hPa 0,0 l/m 1,6 km/h (1 Bft) S 180 0 min 0,0 UV-I 0 W/m -2,2 C -1,4 C 3,2 km/h (1 Bft)
25.01.2021 04:20 -1,4 C -0,6 C 94 % 999,6 hPa 0,0 l/m 3,2 km/h (1 Bft) S 180 0 min 0,0 UV-I 0 W/m -2,2 C -1,4 C 4,8 km/h (1 Bft)
25.01.2021 04:21 -1,4 C -0,6 C 94 % 999,5 hPa 0,0 l/m 4,8 km/h (1 Bft) S 180 0 min 0,0 UV-I 0 W/m -2,2 C -1,4 C 6,4 km/h (2 Bft)
25.01.2021 04:22 -1,5 C -0,6 C 94 % 999,6 hPa 0,0 l/m 3,2 km/h (1 Bft) S-SW 202 0 min 0,0 UV-I 0 W/m -2,3 C -1,5 C 3,2 km/h (1 Bft)
25.01.2021 04:23 -1,4 C -0,6 C 94 % 999,6 hPa 0,0 l/m 3,2 km/h (1 Bft) S-SW 202 0 min 0,0 UV-I 0 W/m -2,2 C -1,4 C 6,4 km/h (2 Bft)
25.01.2021 04:24 -1,4 C -0,6 C 94 % 999,6 hPa 0,0 l/m 4,8 km/h (1 Bft) S-SW 202 0 min 0,0 UV-I 0 W/m -2,2 C -1,4 C 6,4 km/h (2 Bft)
25.01.2021 04:25 -1,4 C -0,6 C 94 % 999,6 hPa 0,0 l/m 3,2 km/h (1 Bft) S-SW 202 0 min 0,0 UV-I 0 W/m -2,2 C -1,4 C 4,8 km/h (1 Bft)
25.01.2021 04:26 -1,4 C -0,6 C 94 % 999,6 hPa 0,0 l/m 4,8 km/h (1 Bft) S-SW 202 0 min 0,0 UV-I 0 W/m -2,2 C -1,4 C 8,0 km/h (2 Bft)
25.01.2021 04:27 -1,4 C -0,6 C 94 % 999,5 hPa 0,0 l/m 3,2 km/h (1 Bft) S-SW 202 0 min 0,0 UV-I 0 W/m -2,2 C -1,4 C 6,4 km/h (2 Bft)
25.01.2021 04:28 -1,4 C -0,6 C 94 % 999,6 hPa 0,0 l/m 1,6 km/h (1 Bft) S-SW 202 0 min 0,0 UV-I 0 W/m -2,2 C -1,4 C 4,8 km/h (1 Bft)
25.01.2021 04:29 -1,4 C -0,6 C 94 % 999,6 hPa 0,0 l/m 4,8 km/h (1 Bft) S-SW 202 0 min 0,0 UV-I 0 W/m -2,2 C -1,4 C 6,4 km/h (2 Bft)
25.01.2021 04:30 -1,4 C -0,6 C 94 % 999,5 hPa 0,0 l/m 3,2 km/h (1 Bft) S-SW 202 0 min 0,0 UV-I 0 W/m -2,2 C -1,4 C 3,2 km/h (1 Bft)
25.01.2021 04:31 -1,4 C -0,6 C 94 % 999,6 hPa 0,0 l/m 3,2 km/h (1 Bft) S-SW 202 0 min 0,0 UV-I 0 W/m -2,2 C -1,4 C 4,8 km/h (1 Bft)
25.01.2021 04:32 -1,4 C -0,6 C 94 % 999,6 hPa 0,0 l/m 1,6 km/h (1 Bft) S-SW 202 0 min 0,0 UV-I 0 W/m -2,2 C -1,4 C 3,2 km/h (1 Bft)
25.01.2021 04:33 -1,4 C -0,6 C 94 % 999,6 hPa 0,0 l/m 3,2 km/h (1 Bft) S-SW 202 0 min 0,0 UV-I 0 W/m -2,2 C -1,4 C 4,8 km/h (1 Bft)
25.01.2021 04:34 -1,4 C -0,6 C 94 % 999,6 hPa 0,0 l/m 6,4 km/h (2 Bft) S-SW 202 0 min 0,0 UV-I 0 W/m -2,2 C -1,4 C 9,7 km/h (2 Bft)
25.01.2021 04:35 -1,4 C -0,6 C 94 % 999,7 hPa 0,0 l/m 3,2 km/h (1 Bft) S-SW 202 0 min 0,0 UV-I 0 W/m -2,2 C -1,4 C 4,8 km/h (1 Bft)
25.01.2021 04:36 -1,4 C -0,6 C 94 % 999,7 hPa 0,0 l/m 3,2 km/h (1 Bft) S-SW 202 0 min 0,0 UV-I 0 W/m -2,2 C -1,4 C 6,4 km/h (2 Bft)
25.01.2021 04:37 -1,4 C -0,6 C 94 % 999,7 hPa 0,0 l/m 4,8 km/h (1 Bft) S-SO 157 0 min 0,0 UV-I 0 W/m -2,2 C -1,4 C 8,0 km/h (2 Bft)
25.01.2021 04:38 -1,4 C -0,6 C 94 % 999,7 hPa 0,0 l/m 6,4 km/h (2 Bft) S-SO 157 0 min 0,0 UV-I 0 W/m -2,2 C -1,4 C 8,0 km/h (2 Bft)
25.01.2021 04:39 -1,4 C -0,6 C 94 % 999,8 hPa 0,0 l/m 4,8 km/h (1 Bft) S-SW 202 0 min 0,0 UV-I 0 W/m -2,2 C -1,4 C 6,4 km/h (2 Bft)
25.01.2021 04:40 -1,4 C -0,6 C 94 % 999,8 hPa 0,0 l/m 4,8 km/h (1 Bft) S-SW 202 0 min 0,0 UV-I 0 W/m -2,2 C -1,4 C 4,8 km/h (1 Bft)
25.01.2021 04:41 -1,4 C -0,6 C 94 % 999,8 hPa 0,0 l/m 3,2 km/h (1 Bft) S-SW 202 0 min 0,0 UV-I 0 W/m -2,2 C -1,4 C 4,8 km/h (1 Bft)
25.01.2021 04:42 -1,4 C -0,6 C 94 % 999,8 hPa 0,0 l/m 3,2 km/h (1 Bft) S 180 0 min 0,0 UV-I 0 W/m -2,2 C -1,4 C 4,8 km/h (1 Bft)
25.01.2021 04:43 -1,4 C -0,6 C 94 % 999,7 hPa 0,0 l/m 6,4 km/h (2 Bft) S-SW 202 0 min 0,0 UV-I 0 W/m -2,2 C -1,4 C 9,7 km/h (2 Bft)
25.01.2021 04:44 -1,4 C -0,6 C 94 % 999,9 hPa 0,0 l/m 4,8 km/h (1 Bft) S-SW 202 0 min 0,0 UV-I 0 W/m -2,2 C -1,4 C 8,0 km/h (2 Bft)
25.01.2021 04:45 -1,4 C -0,6 C 94 % 999,8 hPa 0,0 l/m 3,2 km/h (1 Bft) S-SW 202 0 min 0,0 UV-I 0 W/m -2,2 C -1,4 C 4,8 km/h (1 Bft)
25.01.2021 04:46 -1,4 C -0,6 C 94 % 999,8 hPa 0,0 l/m 6,4 km/h (2 Bft) S-SW 202 0 min 0,0 UV-I 0 W/m -2,2 C -1,4 C 8,0 km/h (2 Bft)
25.01.2021 04:47 -1,4 C -0,6 C 94 % 999,8 hPa 0,0 l/m 4,8 km/h (1 Bft) S-SW 202 0 min 0,0 UV-I 0 W/m -2,2 C -1,4 C 6,4 km/h (2 Bft)
25.01.2021 04:48 -1,4 C -0,6 C 94 % 999,8 hPa 0,0 l/m 4,8 km/h (1 Bft) S-SW 202 0 min 0,0 UV-I 0 W/m -2,2 C -1,4 C 6,4 km/h (2 Bft)
25.01.2021 04:49 -1,4 C -0,6 C 94 % 999,9 hPa 0,0 l/m 4,8 km/h (1 Bft) S-SW 202 0 min 0,0 UV-I 0 W/m -2,2 C -1,4 C 8,0 km/h (2 Bft)
25.01.2021 04:50 -1,4 C -0,6 C 94 % 999,8 hPa 0,0 l/m 6,4 km/h (2 Bft) S 180 0 min 0,0 UV-I 0 W/m -2,2 C -1,4 C 9,7 km/h (2 Bft)
25.01.2021 04:51 -1,4 C -0,6 C 94 % 999,9 hPa 0,0 l/m 6,4 km/h (2 Bft) S-SW 202 0 min 0,0 UV-I 0 W/m -2,2 C -1,4 C 9,7 km/h (2 Bft)
25.01.2021 04:52 -1,4 C -0,6 C 94 % 999,8 hPa 0,0 l/m 6,4 km/h (2 Bft) S 180 0 min 0,0 UV-I 0 W/m -2,2 C -1,4 C 9,7 km/h (2 Bft)
25.01.2021 04:53 -1,3 C -0,6 C 94 % 999,8 hPa 0,0 l/m 4,8 km/h (1 Bft) S-SW 202 0 min 0,0 UV-I 0 W/m -2,1 C -1,3 C 6,4 km/h (2 Bft)
25.01.2021 04:54 -1,3 C -0,6 C 94 % 999,9 hPa 0,0 l/m 4,8 km/h (1 Bft) S-SW 202 0 min 0,0 UV-I 0 W/m -2,1 C -1,3 C 6,4 km/h (2 Bft)
25.01.2021 04:55 -1,3 C -0,6 C 94 % 999,9 hPa 0,0 l/m 4,8 km/h (1 Bft) S-SW 202 0 min 0,0 UV-I 0 W/m -2,1 C -1,3 C 6,4 km/h (2 Bft)
25.01.2021 04:56 -1,3 C -0,6 C 94 % 1000,0 hPa 0,0 l/m 1,6 km/h (1 Bft) S-SW 202 0 min 0,0 UV-I 0 W/m -2,1 C -1,3 C 3,2 km/h (1 Bft)
25.01.2021 04:57 -1,3 C -0,6 C 94 % 1000,0 hPa 0,0 l/m 4,8 km/h (1 Bft) S-SW 202 0 min 0,0 UV-I 0 W/m -2,1 C -1,3 C 6,4 km/h (2 Bft)
25.01.2021 04:58 -1,3 C -0,6 C 94 % 999,9 hPa 0,0 l/m 3,2 km/h (1 Bft) S-SW 202 0 min 0,0 UV-I 0 W/m -2,1 C -1,3 C 4,8 km/h (1 Bft)
25.01.2021 04:59 -1,3 C -0,6 C 94 % 1000,0 hPa 0,0 l/m 3,2 km/h (1 Bft) S-SW 202 0 min 0,0 UV-I 0 W/m -2,1 C -1,3 C 6,4 km/h (2 Bft)
25.01.2021 05:00 -1,3 C -0,6 C 94 % 1000,0 hPa 0,0 l/m 3,2 km/h (1 Bft) S-SW 202 0 min 0,0 UV-I 0 W/m -2,1 C -1,3 C 4,8 km/h (1 Bft)
25.01.2021 05:01 -1,3 C -0,6 C 94 % 1000,0 hPa 0,0 l/m 3,2 km/h (1 Bft) S-SW 202 0 min 0,0 UV-I 0 W/m -2,1 C -1,3 C 6,4 km/h (2 Bft)
25.01.2021 05:02 -1,3 C -0,6 C 94 % 1000,0 hPa 0,0 l/m 3,2 km/h (1 Bft) S-SW 202 0 min 0,0 UV-I 0 W/m -2,1 C -1,3 C 4,8 km/h (1 Bft)
25.01.2021 05:03 -1,3 C -0,6 C 94 % 1000,0 hPa 0,0 l/m 3,2 km/h (1 Bft) S 180 0 min 0,0 UV-I 0 W/m -2,1 C -1,3 C 4,8 km/h (1 Bft)
25.01.2021 05:04 -1,3 C -0,6 C 94 % 1000,0 hPa 0,0 l/m 3,2 km/h (1 Bft) S 180 0 min 0,0 UV-I 0 W/m -2,1 C -1,3 C 4,8 km/h (1 Bft)
25.01.2021 05:05 -1,3 C -0,6 C 94 % 1000,0 hPa 0,0 l/m 4,8 km/h (1 Bft) S 180 0 min 0,0 UV-I 0 W/m -2,1 C -1,3 C 6,4 km/h (2 Bft)
25.01.2021 05:06 -1,3 C -0,6 C 94 % 1000,0 hPa 0,0 l/m 3,2 km/h (1 Bft) S-SW 202 0 min 0,0 UV-I 0 W/m -2,1 C -1,3 C 4,8 km/h (1 Bft)
25.01.2021 05:07 -1,3 C -0,6 C 94 % 1000,0 hPa 0,0 l/m 3,2 km/h (1 Bft) S-SW 202 0 min 0,0 UV-I 0 W/m -2,1 C -1,3 C 6,4 km/h (2 Bft)
25.01.2021 05:08 -1,3 C -0,6 C 94 % 1000,0 hPa 0,0 l/m 4,8 km/h (1 Bft) S-SO 157 0 min 0,0 UV-I 0 W/m -2,1 C -1,3 C 8,0 km/h (2 Bft)
25.01.2021 05:09 -1,3 C -0,6 C 94 % 1000,0 hPa 0,0 l/m 3,2 km/h (1 Bft) S 180 0 min 0,0 UV-I 0 W/m -2,1 C -1,3 C 6,4 km/h (2 Bft)
25.01.2021 05:10 -1,3 C -0,6 C 94 % 1000,0 hPa 0,0 l/m 4,8 km/h (1 Bft) S-SW 202 0 min 0,0 UV-I 0 W/m -2,1 C -1,3 C 6,4 km/h (2 Bft)
25.01.2021 05:11 -1,3 C -0,6 C 94 % 1000,0 hPa 0,0 l/m 3,2 km/h (1 Bft) S-SW 202 0 min 0,0 UV-I 0 W/m -2,1 C -1,3 C 4,8 km/h (1 Bft)
25.01.2021 05:12 -1,3 C -0,6 C 94 % 1000,0 hPa 0,0 l/m 1,6 km/h (1 Bft) S-SW 202 0 min 0,0 UV-I 0 W/m -2,1 C -1,3 C 4,8 km/h (1 Bft)
25.01.2021 05:13 -1,3 C -0,6 C 94 % 1000,0 hPa 0,0 l/m 3,2 km/h (1 Bft) S-SW 202 0 min 0,0 UV-I 0 W/m -2,1 C -1,3 C 4,8 km/h (1 Bft)
25.01.2021 05:14 -1,3 C -0,6 C 94 % 1000,0 hPa 0,0 l/m 3,2 km/h (1 Bft) S-SW 202 0 min 0,0 UV-I 0 W/m -2,1 C -1,3 C 6,4 km/h (2 Bft)
25.01.2021 05:15 -1,3 C -0,6 C 94 % 1000,1 hPa 0,0 l/m 3,2 km/h (1 Bft) S-SW 202 0 min 0,0 UV-I 0 W/m -2,1 C -1,3 C 6,4 km/h (2 Bft)
25.01.2021 05:16 -1,3 C -0,6 C 94 % 1000,0 hPa 0,0 l/m 4,8 km/h (1 Bft) S-SW 202 0 min 0,0 UV-I 0 W/m -2,1 C -1,3 C 6,4 km/h (2 Bft)
25.01.2021 05:17 -1,2 C -0,6 C 94 % 1000,0 hPa 0,0 l/m 4,8 km/h (1 Bft) SW 225 0 min 0,0 UV-I 0 W/m -2,0 C -1,2 C 6,4 km/h (2 Bft)
25.01.2021 05:18 -1,3 C -0,6 C 94 % 1000,0 hPa 0,0 l/m 4,8 km/h (1 Bft) SW 225 0 min 0,0 UV-I 0 W/m -2,1 C -1,3 C 6,4 km/h (2 Bft)
25.01.2021 05:19 -1,3 C -0,6 C 94 % 1000,0 hPa 0,0 l/m 3,2 km/h (1 Bft) SW 225 0 min 0,0 UV-I 0 W/m -2,1 C -1,3 C 6,4 km/h (2 Bft)
25.01.2021 05:20 -1,3 C -0,6 C 94 % 1000,0 hPa 0,0 l/m 4,8 km/h (1 Bft) SW 225 0 min 0,0 UV-I 0 W/m -2,1 C -1,3 C 6,4 km/h (2 Bft)
25.01.2021 05:21 -1,3 C -0,6 C 94 % 1000,0 hPa 0,0 l/m 3,2 km/h (1 Bft) SW 225 0 min 0,0 UV-I 0 W/m -2,1 C -1,3 C 4,8 km/h (1 Bft)
25.01.2021 05:22 -1,3 C -0,6 C 94 % 1000,0 hPa 0,0 l/m 3,2 km/h (1 Bft) SW 225 0 min 0,0 UV-I 0 W/m -2,1 C -1,3 C 4,8 km/h (1 Bft)
25.01.2021 05:23 -1,3 C -0,6 C 94 % 1000,1 hPa 0,0 l/m 4,8 km/h (1 Bft) SW 225 0 min 0,0 UV-I 0 W/m -2,1 C -1,3 C 6,4 km/h (2 Bft)
25.01.2021 05:24 -1,3 C -0,6 C 94 % 1000,1 hPa 0,0 l/m 4,8 km/h (1 Bft) S-SW 202 0 min 0,0 UV-I 0 W/m -2,1 C -1,3 C 6,4 km/h (2 Bft)
25.01.2021 05:25 -1,3 C -0,6 C 94 % 1000,1 hPa 0,0 l/m 4,8 km/h (1 Bft) S-SW 202 0 min 0,0 UV-I 0 W/m -2,1 C -1,3 C 6,4 km/h (2 Bft)
25.01.2021 05:26 -1,3 C -0,6 C 94 % 1000,1 hPa 0,0 l/m 4,8 km/h (1 Bft) S-SW 202 0 min 0,0 UV-I 0 W/m -2,1 C -1,3 C 6,4 km/h (2 Bft)
25.01.2021 05:27 -1,3 C -0,6 C 94 % 1000,1 hPa 0,0 l/m 3,2 km/h (1 Bft) S-SW 202 0 min 0,0 UV-I 0 W/m -2,1 C -1,3 C 4,8 km/h (1 Bft)
25.01.2021 05:28 -1,3 C -0,6 C 94 % 1000,1 hPa 0,0 l/m 3,2 km/h (1 Bft) S-SW 202 0 min 0,0 UV-I 0 W/m -2,1 C -1,3 C 6,4 km/h (2 Bft)
25.01.2021 05:29 -1,3 C -0,6 C 94 % 1000,1 hPa 0,0 l/m 6,4 km/h (2 Bft) S-SW 202 0 min 0,0 UV-I 0 W/m -2,1 C -1,3 C 8,0 km/h (2 Bft)
25.01.2021 05:30 -1,3 C -0,6 C 94 % 1000,1 hPa 0,0 l/m 3,2 km/h (1 Bft) S 180 0 min 0,0 UV-I 0 W/m -2,1 C -1,3 C 6,4 km/h (2 Bft)
25.01.2021 05:31 -1,3 C -0,6 C 94 % 1000,1 hPa 0,0 l/m 4,8 km/h (1 Bft) S-SW 202 0 min 0,0 UV-I 0 W/m -2,1 C -1,3 C 6,4 km/h (2 Bft)
25.01.2021 05:32 -1,3 C -0,6 C 94 % 1000,1 hPa 0,0 l/m 4,8 km/h (1 Bft) S-SW 202 0 min 0,0 UV-I 0 W/m -2,1 C -1,3 C 6,4 km/h (2 Bft)
25.01.2021 05:33 -1,3 C -0,6 C 94 % 1000,2 hPa 0,0 l/m 3,2 km/h (1 Bft) S 180 0 min 0,0 UV-I 0 W/m -2,1 C -1,3 C 4,8 km/h (1 Bft)
25.01.2021 05:34 -1,2 C -0,6 C 94 % 1000,2 hPa 0,0 l/m 4,8 km/h (1 Bft) S 180 0 min 0,0 UV-I 0 W/m -2,0 C -1,2 C 4,8 km/h (1 Bft)
25.01.2021 05:35 -1,2 C -0,6 C 94 % 1000,2 hPa 0,0 l/m 4,8 km/h (1 Bft) S-SW 202 0 min 0,0 UV-I 0 W/m -2,0 C -1,2 C 8,0 km/h (2 Bft)
25.01.2021 05:36 -1,3 C -0,6 C 94 % 1000,1 hPa 0,0 l/m 4,8 km/h (1 Bft) S-SW 202 0 min 0,0 UV-I 0 W/m -2,1 C -1,3 C 6,4 km/h (2 Bft)
25.01.2021 05:37 -1,2 C -0,6 C 94 % 1000,1 hPa 0,0 l/m 4,8 km/h (1 Bft) S-SW 202 0 min 0,0 UV-I 0 W/m -2,0 C -1,2 C 6,4 km/h (2 Bft)
25.01.2021 05:38 -1,3 C -0,6 C 94 % 1000,2 hPa 0,0 l/m 3,2 km/h (1 Bft) S-SW 202 0 min 0,0 UV-I 0 W/m -2,1 C -1,3 C 4,8 km/h (1 Bft)
25.01.2021 05:39 -1,3 C -0,6 C 94 % 1000,2 hPa 0,0 l/m 3,2 km/h (1 Bft) S-SW 202 0 min 0,0 UV-I 0 W/m -2,1 C -1,3 C 6,4 km/h (2 Bft)
25.01.2021 05:40 -1,2 C -0,6 C 94 % 1000,2 hPa 0,0 l/m 1,6 km/h (1 Bft) S-SW 202 0 min 0,0 UV-I 0 W/m -2,0 C -1,2 C 1,6 km/h (1 Bft)
25.01.2021 05:41 -1,3 C -0,6 C 94 % 1000,1 hPa 0,0 l/m 3,2 km/h (1 Bft) S-SW 202 0 min 0,0 UV-I 0 W/m -2,1 C -1,3 C 4,8 km/h (1 Bft)
25.01.2021 05:42 -1,2 C -0,6 C 94 % 1000,3 hPa 0,0 l/m 3,2 km/h (1 Bft) S-SW 202 0 min 0,0 UV-I 0 W/m -2,0 C -1,2 C 4,8 km/h (1 Bft)
25.01.2021 05:43 -1,2 C -0,6 C 94 % 1000,2 hPa 0,0 l/m 3,2 km/h (1 Bft) S-SW 202 0 min 0,0 UV-I 0 W/m -2,0 C -1,2 C 4,8 km/h (1 Bft)
25.01.2021 05:44 -1,2 C -0,6 C 94 % 1000,3 hPa 0,0 l/m 3,2 km/h (1 Bft) S-SW 202 0 min 0,0 UV-I 0 W/m -2,0 C -1,2 C 4,8 km/h (1 Bft)
25.01.2021 05:45 -1,2 C -0,6 C 94 % 1000,3 hPa 0,0 l/m 1,6 km/h (1 Bft) S-SW 202 0 min 0,0 UV-I 0 W/m -2,0 C -1,2 C 1,6 km/h (1 Bft)
25.01.2021 05:46 -1,2 C -0,6 C 94 % 1000,2 hPa 0,0 l/m 0,0 km/h (0 Bft) S-SW 202 0 min 0,0 UV-I 0 W/m -2,0 C -1,2 C 1,6 km/h (1 Bft)
25.01.2021 05:47 -1,2 C -0,6 C 94 % 1000,3 hPa 0,0 l/m 1,6 km/h (1 Bft) S-SW 202 0 min 0,0 UV-I 0 W/m -2,0 C -1,2 C 3,2 km/h (1 Bft)
25.01.2021 05:48 -1,2 C -0,6 C 94 % 1000,2 hPa 0,0 l/m 4,8 km/h (1 Bft) S-SW 202 0 min 0,0 UV-I 0 W/m -2,0 C -1,2 C 6,4 km/h (2 Bft)
25.01.2021 05:49 -1,2 C -0,6 C 94 % 1000,3 hPa 0,0 l/m 4,8 km/h (1 Bft) S-SW 202 0 min 0,0 UV-I 0 W/m -2,0 C -1,2 C 6,4 km/h (2 Bft)
25.01.2021 05:50 -1,2 C -0,6 C 94 % 1000,3 hPa 0,0 l/m 3,2 km/h (1 Bft) S-SW 202 0 min 0,0 UV-I 0 W/m -2,0 C -1,2 C 6,4 km/h (2 Bft)
25.01.2021 05:51 -1,2 C -0,6 C 94 % 1000,3 hPa 0,0 l/m 3,2 km/h (1 Bft) S-SW 202 0 min 0,0 UV-I 0 W/m -2,0 C -1,2 C 4,8 km/h (1 Bft)
25.01.2021 05:52 -1,3 C -0,6 C 94 % 1000,3 hPa 0,0 l/m 4,8 km/h (1 Bft) S-SW 202 0 min 0,0 UV-I 0 W/m -2,1 C -1,3 C 6,4 km/h (2 Bft)
25.01.2021 05:53 -1,2 C -0,6 C 94 % 1000,3 hPa 0,0 l/m 4,8 km/h (1 Bft) S-SW 202 0 min 0,0 UV-I 0 W/m -2,0 C -1,2 C 6,4 km/h (2 Bft)
25.01.2021 05:54 -1,2 C -0,6 C 94 % 1000,3 hPa 0,0 l/m 4,8 km/h (1 Bft) S-SW 202 0 min 0,0 UV-I 0 W/m -2,0 C -1,2 C 6,4 km/h (2 Bft)
25.01.2021 05:55 -1,2 C -0,6 C 94 % 1000,3 hPa 0,0 l/m 4,8 km/h (1 Bft) S-SW 202 0 min 0,0 UV-I 0 W/m -2,0 C -1,2 C 4,8 km/h (1 Bft)
25.01.2021 05:56 -1,2 C -0,6 C 94 % 1000,3 hPa 0,0 l/m 4,8 km/h (1 Bft) S-SW 202 0 min 0,0 UV-I 0 W/m -2,0 C -1,2 C 6,4 km/h (2 Bft)
25.01.2021 05:57 -1,2 C -0,6 C 94 % 1000,3 hPa 0,0 l/m 3,2 km/h (1 Bft) S-SW 202 0 min 0,0 UV-I 0 W/m -2,0 C -1,2 C 4,8 km/h (1 Bft)
25.01.2021 05:58 -1,2 C -0,6 C 94 % 1000,3 hPa 0,0 l/m 4,8 km/h (1 Bft) S-SW 202 0 min 0,0 UV-I 0 W/m -2,0 C -1,2 C 6,4 km/h (2 Bft)
25.01.2021 05:59 -1,2 C -0,6 C 94 % 1000,4 hPa 0,0 l/m 4,8 km/h (1 Bft) S-SW 202 0 min 0,0 UV-I 0 W/m -2,0 C -1,2 C 6,4 km/h (2 Bft)
25.01.2021 06:00 -1,2 C -0,6 C 94 % 1000,2 hPa 0,0 l/m 4,8 km/h (1 Bft) S-SW 202 0 min 0,0 UV-I 0 W/m -2,0 C -1,2 C 6,4 km/h (2 Bft)
25.01.2021 06:01 -1,2 C -0,6 C 94 % 1000,4 hPa 0,0 l/m 3,2 km/h (1 Bft) S-SW 202 0 min 0,0 UV-I 0 W/m -2,0 C -1,2 C 4,8 km/h (1 Bft)
25.01.2021 06:02 -1,2 C -0,6 C 94 % 1000,3 hPa 0,0 l/m 3,2 km/h (1 Bft) S-SW 202 0 min 0,0 UV-I 0 W/m -2,0 C -1,2 C 4,8 km/h (1 Bft)
25.01.2021 06:03 -1,2 C -0,6 C 94 % 1000,4 hPa 0,0 l/m 1,6 km/h (1 Bft) S-SW 202 0 min 0,0 UV-I 0 W/m -2,0 C -1,2 C 3,2 km/h (1 Bft)
25.01.2021 06:04 -1,2 C -0,6 C 94 % 1000,4 hPa 0,0 l/m 3,2 km/h (1 Bft) S-SW 202 0 min 0,0 UV-I 0 W/m -2,0 C -1,2 C 4,8 km/h (1 Bft)
25.01.2021 06:05 -1,2 C -0,6 C 94 % 1000,4 hPa 0,0 l/m 3,2 km/h (1 Bft) S-SW 202 0 min 0,0 UV-I 0 W/m -2,0 C -1,2 C 4,8 km/h (1 Bft)
25.01.2021 06:06 -1,2 C -0,6 C 94 % 1000,4 hPa 0,0 l/m 4,8 km/h (1 Bft) S-SW 202 0 min 0,0 UV-I 0 W/m -2,0 C -1,2 C 6,4 km/h (2 Bft)
25.01.2021 06:07 -1,2 C -0,6 C 94 % 1000,4 hPa 0,0 l/m 4,8 km/h (1 Bft) S-SW 202 0 min 0,0 UV-I 0 W/m -2,0 C -1,2 C 6,4 km/h (2 Bft)
25.01.2021 06:08 -1,2 C -0,6 C 94 % 1000,4 hPa 0,0 l/m 3,2 km/h (1 Bft) S-SW 202 0 min 0,0 UV-I 0 W/m -2,0 C -1,2 C 4,8 km/h (1 Bft)
25.01.2021 06:09 -1,2 C -0,6 C 94 % 1000,4 hPa 0,0 l/m 3,2 km/h (1 Bft) S-SW 202 0 min 0,0 UV-I 0 W/m -2,0 C -1,2 C 6,4 km/h (2 Bft)
25.01.2021 06:10 -1,2 C -0,6 C 94 % 1000,4 hPa 0,0 l/m 3,2 km/h (1 Bft) S-SW 202 0 min 0,0 UV-I 0 W/m -2,0 C -1,2 C 3,2 km/h (1 Bft)
25.01.2021 06:11 -1,2 C -0,6 C 94 % 1000,4 hPa 0,0 l/m 3,2 km/h (1 Bft) S-SW 202 0 min 0,0 UV-I 0 W/m -2,0 C -1,2 C 4,8 km/h (1 Bft)
25.01.2021 06:12 -1,3 C -0,6 C 94 % 1000,4 hPa 0,0 l/m 6,4 km/h (2 Bft) SW 225 0 min 0,0 UV-I 0 W/m -2,1 C -1,3 C 8,0 km/h (2 Bft)
25.01.2021 06:13 -1,2 C -0,6 C 94 % 1000,5 hPa 0,0 l/m 4,8 km/h (1 Bft) SW 225 0 min 0,0 UV-I 0 W/m -2,0 C -1,2 C 6,4 km/h (2 Bft)
25.01.2021 06:14 -1,2 C -0,6 C 94 % 1000,4 hPa 0,0 l/m 3,2 km/h (1 Bft) SW 225 0 min 0,0 UV-I 0 W/m -2,0 C -1,2 C 4,8 km/h (1 Bft)
25.01.2021 06:15 -1,2 C -0,6 C 94 % 1000,5 hPa 0,0 l/m 3,2 km/h (1 Bft) SW 225 0 min 0,0 UV-I 0 W/m -2,0 C -1,2 C 4,8 km/h (1 Bft)
25.01.2021 06:16 -1,3 C -0,6 C 94 % 1000,5 hPa 0,0 l/m 3,2 km/h (1 Bft) SW 225 0 min 0,0 UV-I 0 W/m -2,1 C -1,3 C 6,4 km/h (2 Bft)
25.01.2021 06:17 -1,3 C -0,6 C 94 % 1000,5 hPa 0,0 l/m 1,6 km/h (1 Bft) SW 225 0 min 0,0 UV-I 0 W/m -2,1 C -1,3 C 3,2 km/h (1 Bft)
25.01.2021 06:18 -1,2 C -0,6 C 94 % 1000,5 hPa 0,0 l/m 1,6 km/h (1 Bft) SW 225 0 min 0,0 UV-I 0 W/m -2,0 C -1,2 C 1,6 km/h (1 Bft)
25.01.2021 06:19 -1,2 C -0,6 C 94 % 1000,6 hPa 0,0 l/m 1,6 km/h (1 Bft) SW 225 0 min 0,0 UV-I 0 W/m -2,0 C -1,2 C 3,2 km/h (1 Bft)
25.01.2021 06:20 -1,3 C -0,6 C 94 % 1000,6 hPa 0,0 l/m 1,6 km/h (1 Bft) SW 225 0 min 0,0 UV-I 0 W/m -2,1 C -1,3 C 3,2 km/h (1 Bft)
25.01.2021 06:21 -1,3 C -0,6 C 94 % 1000,6 hPa 0,0 l/m 0,0 km/h (0 Bft) SW 225 0 min 0,0 UV-I 0 W/m -2,1 C -1,3 C 1,6 km/h (1 Bft)
25.01.2021 06:22 -1,3 C -0,6 C 94 % 1000,5 hPa 0,0 l/m 3,2 km/h (1 Bft) SW 225 0 min 0,0 UV-I 0 W/m -2,1 C -1,3 C 4,8 km/h (1 Bft)
25.01.2021 06:23 -1,2 C -0,6 C 94 % 1000,6 hPa 0,0 l/m 4,8 km/h (1 Bft) SW 225 0 min 0,0 UV-I 0 W/m -2,0 C -1,2 C 6,4 km/h (2 Bft)
25.01.2021 06:24 -1,3 C -0,6 C 94 % 1000,6 hPa 0,0 l/m 3,2 km/h (1 Bft) SW 225 0 min 0,0 UV-I 0 W/m -2,1 C -1,3 C 4,8 km/h (1 Bft)
25.01.2021 06:25 -1,3 C -0,6 C 94 % 1000,6 hPa 0,0 l/m 4,8 km/h (1 Bft) SW 225 0 min 0,0 UV-I 0 W/m -2,1 C -1,3 C 6,4 km/h (2 Bft)
25.01.2021 06:26 -1,3 C -0,6 C 94 % 1000,7 hPa 0,0 l/m 3,2 km/h (1 Bft) SW 225 0 min 0,0 UV-I 0 W/m -2,1 C -1,3 C 4,8 km/h (1 Bft)
25.01.2021 06:27 -1,3 C -0,6 C 94 % 1000,6 hPa 0,0 l/m 3,2 km/h (1 Bft) SW 225 0 min 0,0 UV-I 0 W/m -2,1 C -1,3 C 6,4 km/h (2 Bft)
25.01.2021 06:28 -1,3 C -0,6 C 94 % 1000,7 hPa 0,0 l/m 4,8 km/h (1 Bft) SW 225 0 min 0,0 UV-I 0 W/m -2,1 C -1,3 C 6,4 km/h (2 Bft)
25.01.2021 06:29 -1,3 C -0,6 C 94 % 1000,6 hPa 0,0 l/m 3,2 km/h (1 Bft) W-SW 247 0 min 0,0 UV-I 0 W/m -2,1 C -1,3 C 8,0 km/h (2 Bft)
25.01.2021 06:30 -1,3 C -0,6 C 94 % 1000,6 hPa 0,0 l/m 3,2 km/h (1 Bft) W-SW 247 0 min 0,0 UV-I 0 W/m -2,1 C -1,3 C 8,0 km/h (2 Bft)
25.01.2021 06:31 -1,3 C -0,6 C 94 % 1000,7 hPa 0,0 l/m 6,4 km/h (2 Bft) SW 225 0 min 0,0 UV-I 0 W/m -2,1 C -1,3 C 8,0 km/h (2 Bft)
25.01.2021 06:32 -1,3 C -0,6 C 94 % 1000,7 hPa 0,0 l/m 3,2 km/h (1 Bft) SW 225 0 min 0,0 UV-I 0 W/m -2,1 C -1,3 C 4,8 km/h (1 Bft)
25.01.2021 06:33 -1,3 C -0,6 C 94 % 1000,6 hPa 0,0 l/m 3,2 km/h (1 Bft) SW 225 0 min 0,0 UV-I 0 W/m -2,1 C -1,3 C 6,4 km/h (2 Bft)
25.01.2021 06:34 -1,3 C -0,6 C 94 % 1000,7 hPa 0,0 l/m 3,2 km/h (1 Bft) SW 225 0 min 0,0 UV-I 0 W/m -2,1 C -1,3 C 4,8 km/h (1 Bft)
25.01.2021 06:35 -1,3 C -0,6 C 94 % 1000,6 hPa 0,0 l/m 3,2 km/h (1 Bft) SW 225 0 min 0,0 UV-I 0 W/m -2,1 C -1,3 C 4,8 km/h (1 Bft)
25.01.2021 06:36 -1,3 C -0,6 C 94 % 1000,6 hPa 0,0 l/m 4,8 km/h (1 Bft) SW 225 0 min 0,0 UV-I 0 W/m -2,1 C -1,3 C 8,0 km/h (2 Bft)
25.01.2021 06:37 -1,3 C -0,6 C 94 % 1000,7 hPa 0,0 l/m 4,8 km/h (1 Bft) S-SW 202 0 min 0,0 UV-I 0 W/m -2,1 C -1,3 C 4,8 km/h (1 Bft)
25.01.2021 06:38 -1,3 C -0,6 C 94 % 1000,7 hPa 0,0 l/m 4,8 km/h (1 Bft) SW 225 0 min 0,0 UV-I 0 W/m -2,1 C -1,3 C 8,0 km/h (2 Bft)
25.01.2021 06:39 -1,3 C -0,6 C 94 % 1000,6 hPa 0,0 l/m 6,4 km/h (2 Bft) SW 225 0 min 0,0 UV-I 0 W/m -2,1 C -1,3 C 8,0 km/h (2 Bft)
25.01.2021 06:40 -1,3 C -0,6 C 94 % 1000,7 hPa 0,0 l/m 4,8 km/h (1 Bft) SW 225 0 min 0,0 UV-I 0 W/m -2,1 C -1,3 C 6,4 km/h (2 Bft)
25.01.2021 06:41 -1,3 C -0,6 C 94 % 1000,7 hPa 0,0 l/m 3,2 km/h (1 Bft) W-SW 247 0 min 0,0 UV-I 0 W/m -2,1 C -1,3 C 6,4 km/h (2 Bft)
25.01.2021 06:42 -1,3 C -0,6 C 94 % 1000,8 hPa 0,0 l/m 3,2 km/h (1 Bft) W-SW 247 0 min 0,0 UV-I 0 W/m -2,1 C -1,3 C 4,8 km/h (1 Bft)
25.01.2021 06:43 -1,3 C -0,6 C 94 % 1000,7 hPa 0,0 l/m 6,4 km/h (2 Bft) W-SW 247 0 min 0,0 UV-I 0 W/m -2,1 C -1,3 C 11,3 km/h (2 Bft)
25.01.2021 06:44 -1,3 C -0,6 C 94 % 1000,7 hPa 0,0 l/m 6,4 km/h (2 Bft) W-SW 247 0 min 0,0 UV-I 0 W/m -2,1 C -1,3 C 11,3 km/h (2 Bft)
25.01.2021 06:45 -1,3 C -0,6 C 94 % 1000,8 hPa 0,0 l/m 3,2 km/h (1 Bft) W-SW 247 0 min 0,0 UV-I 0 W/m -2,1 C -1,3 C 9,7 km/h (2 Bft)
25.01.2021 06:46 -1,3 C -0,6 C 94 % 1000,9 hPa 0,0 l/m 4,8 km/h (1 Bft) W-SW 247 0 min 0,0 UV-I 0 W/m -2,1 C -1,3 C 8,0 km/h (2 Bft)
25.01.2021 06:47 -1,3 C -0,6 C 94 % 1000,8 hPa 0,0 l/m 4,8 km/h (1 Bft) W-SW 247 0 min 0,0 UV-I 0 W/m -2,1 C -1,3 C 6,4 km/h (2 Bft)
25.01.2021 06:48 -1,3 C -0,6 C 94 % 1000,8 hPa 0,0 l/m 4,8 km/h (1 Bft) W-SW 247 0 min 0,0 UV-I 0 W/m -2,1 C -1,3 C 8,0 km/h (2 Bft)
25.01.2021 06:49 -1,3 C -0,6 C 94 % 1000,9 hPa 0,0 l/m 3,2 km/h (1 Bft) SW 225 0 min 0,0 UV-I 0 W/m -2,1 C -1,3 C 4,8 km/h (1 Bft)
25.01.2021 06:50 -1,3 C -0,6 C 94 % 1000,9 hPa 0,0 l/m 4,8 km/h (1 Bft) SW 225 0 min 0,0 UV-I 0 W/m -2,1 C -1,3 C 6,4 km/h (2 Bft)
25.01.2021 06:51 -1,3 C -0,6 C 94 % 1000,9 hPa 0,0 l/m 6,4 km/h (2 Bft) W-SW 247 0 min 0,0 UV-I 0 W/m -2,1 C -1,3 C 11,3 km/h (2 Bft)
25.01.2021 06:52 -1,3 C -0,6 C 94 % 1000,9 hPa 0,0 l/m 4,8 km/h (1 Bft) S-SW 202 0 min 0,0 UV-I 0 W/m -2,1 C -1,3 C 8,0 km/h (2 Bft)
25.01.2021 06:53 -1,3 C -0,6 C 94 % 1000,9 hPa 0,0 l/m 8,0 km/h (2 Bft) W 270 0 min 0,0 UV-I 0 W/m -2,1 C -3,0 C 9,7 km/h (2 Bft)
25.01.2021 06:54 -1,3 C -0,6 C 94 % 1000,9 hPa 0,0 l/m 6,4 km/h (2 Bft) W-SW 247 0 min 0,0 UV-I 0 W/m -2,1 C -1,3 C 9,7 km/h (2 Bft)
25.01.2021 06:55 -1,3 C -0,6 C 94 % 1000,9 hPa 0,0 l/m 4,8 km/h (1 Bft) W-SW 247 0 min 0,0 UV-I 0 W/m -2,1 C -1,3 C 6,4 km/h (2 Bft)
25.01.2021 06:56 -1,3 C -0,6 C 94 % 1000,9 hPa 0,0 l/m 3,2 km/h (1 Bft) W-SW 247 0 min 0,0 UV-I 0 W/m -2,1 C -1,3 C 6,4 km/h (2 Bft)
25.01.2021 06:57 -1,2 C -0,6 C 94 % 1001,0 hPa 0,0 l/m 4,8 km/h (1 Bft) W-SW 247 0 min 0,0 UV-I 0 W/m -2,0 C -1,2 C 11,3 km/h (2 Bft)
25.01.2021 06:58 -1,3 C -0,6 C 94 % 1001,0 hPa 0,0 l/m 8,0 km/h (2 Bft) W-SW 247 0 min 0,0 UV-I 0 W/m -2,1 C -3,0 C 12,9 km/h (3 Bft)
25.01.2021 06:59 -1,3 C -0,6 C 94 % 1001,0 hPa 0,0 l/m 8,0 km/h (2 Bft) W 270 0 min 0,0 UV-I 0 W/m -2,1 C -3,0 C 12,9 km/h (3 Bft)
25.01.2021 07:00 -1,3 C -0,6 C 94 % 1000,9 hPa 0,0 l/m 8,0 km/h (2 Bft) W 270 0 min 0,0 UV-I 0 W/m -2,1 C -3,0 C 11,3 km/h (2 Bft)
25.01.2021 07:01 -1,3 C -0,6 C 94 % 1001,0 hPa 0,0 l/m 6,4 km/h (2 Bft) W-SW 247 0 min 0,0 UV-I 0 W/m -2,1 C -1,3 C 9,7 km/h (2 Bft)
25.01.2021 07:02 -1,3 C -0,6 C 94 % 1001,0 hPa 0,0 l/m 4,8 km/h (1 Bft) W-SW 247 0 min 0,0 UV-I 0 W/m -2,1 C -1,3 C 8,0 km/h (2 Bft)
25.01.2021 07:03 -1,3 C -0,6 C 94 % 1001,0 hPa 0,0 l/m 8,0 km/h (2 Bft) W 270 0 min 0,0 UV-I 0 W/m -2,1 C -3,0 C 12,9 km/h (3 Bft)
25.01.2021 07:04 -1,3 C -0,6 C 94 % 1001,0 hPa 0,0 l/m 4,8 km/h (1 Bft) W-SW 247 0 min 0,0 UV-I 0 W/m -2,1 C -1,3 C 6,4 km/h (2 Bft)
25.01.2021 07:05 -1,3 C -0,6 C 94 % 1001,1 hPa 0,0 l/m 4,8 km/h (1 Bft) S-SW 202 0 min 0,0 UV-I 0 W/m -2,1 C -1,3 C 8,0 km/h (2 Bft)
25.01.2021 07:06 -1,3 C -0,6 C 94 % 1001,0 hPa 0,0 l/m 6,4 km/h (2 Bft) SW 225 0 min 0,0 UV-I 0 W/m -2,1 C -1,3 C 9,7 km/h (2 Bft)
25.01.2021 07:07 -1,3 C -0,6 C 94 % 1001,1 hPa 0,0 l/m 4,8 km/h (1 Bft) W-SW 247 0 min 0,0 UV-I 0 W/m -2,1 C -1,3 C 6,4 km/h (2 Bft)
25.01.2021 07:08 -1,3 C -0,6 C 94 % 1001,2 hPa 0,0 l/m 3,2 km/h (1 Bft) W-SW 247 0 min 0,0 UV-I 0 W/m -2,1 C -1,3 C 4,8 km/h (1 Bft)
25.01.2021 07:09 -1,3 C -0,6 C 94 % 1001,2 hPa 0,0 l/m 3,2 km/h (1 Bft) W-SW 247 0 min 0,0 UV-I 0 W/m -2,1 C -1,3 C 4,8 km/h (1 Bft)
25.01.2021 07:10 -1,3 C -0,6 C 94 % 1001,2 hPa 0,0 l/m 3,2 km/h (1 Bft) W-SW 247 0 min 0,0 UV-I 0 W/m -2,1 C -1,3 C 3,2 km/h (1 Bft)
25.01.2021 07:11 -1,3 C -0,6 C 94 % 1001,1 hPa 0,0 l/m 1,6 km/h (1 Bft) W-SW 247 0 min 0,0 UV-I 0 W/m -2,1 C -1,3 C 3,2 km/h (1 Bft)
25.01.2021 07:12 -1,3 C -0,6 C 94 % 1001,1 hPa 0,0 l/m 3,2 km/h (1 Bft) W-SW 247 0 min 0,0 UV-I 0 W/m -2,1 C -1,3 C 4,8 km/h (1 Bft)
25.01.2021 07:13 -1,3 C -0,6 C 94 % 1001,2 hPa 0,0 l/m 4,8 km/h (1 Bft) W 270 0 min 0,0 UV-I 0 W/m -2,1 C -1,3 C 6,4 km/h (2 Bft)
25.01.2021 07:14 -1,3 C -0,6 C 94 % 1001,2 hPa 0,0 l/m 1,6 km/h (1 Bft) W 270 0 min 0,0 UV-I 0 W/m -2,1 C -1,3 C 3,2 km/h (1 Bft)
25.01.2021 07:15 -1,3 C -0,6 C 94 % 1001,1 hPa 0,0 l/m 3,2 km/h (1 Bft) W 270 0 min 0,0 UV-I 0 W/m -2,1 C -1,3 C 3,2 km/h (1 Bft)
25.01.2021 07:16 -1,3 C -0,6 C 94 % 1001,3 hPa 0,0 l/m 1,6 km/h (1 Bft) W 270 0 min 0,0 UV-I 0 W/m -2,1 C -1,3 C 3,2 km/h (1 Bft)
25.01.2021 07:17 -1,3 C -0,6 C 94 % 1001,2 hPa 0,0 l/m 0,0 km/h (0 Bft) W 270 0 min 0,0 UV-I 0 W/m -2,1 C -1,3 C 1,6 km/h (1 Bft)
25.01.2021 07:18 -1,3 C -0,6 C 94 % 1001,2 hPa 0,0 l/m 0,0 km/h (0 Bft) W 270 0 min 0,0 UV-I 0 W/m -2,1 C -1,3 C 3,2 km/h (1 Bft)
25.01.2021 07:19 -1,3 C -0,6 C 94 % 1001,3 hPa 0,0 l/m 1,6 km/h (1 Bft) W 270 0 min 0,0 UV-I 0 W/m -2,1 C -1,3 C 4,8 km/h (1 Bft)
25.01.2021 07:20 -1,3 C -0,6 C 94 % 1001,2 hPa 0,0 l/m 4,8 km/h (1 Bft) W-SW 247 0 min 0,0 UV-I 0 W/m -2,1 C -1,3 C 6,4 km/h (2 Bft)
25.01.2021 07:21 -1,3 C -0,6 C 94 % 1001,3 hPa 0,0 l/m 3,2 km/h (1 Bft) W-SW 247 0 min 0,0 UV-I 0 W/m -2,1 C -1,3 C 4,8 km/h (1 Bft)
25.01.2021 07:22 -1,3 C -0,6 C 94 % 1001,3 hPa 0,0 l/m 3,2 km/h (1 Bft) W-SW 247 0 min 0,0 UV-I 0 W/m -2,1 C -1,3 C 3,2 km/h (1 Bft)
25.01.2021 07:23 -1,3 C -0,6 C 94 % 1001,2 hPa 0,0 l/m 3,2 km/h (1 Bft) W-SW 247 0 min 0,0 UV-I 0 W/m -2,1 C -1,3 C 3,2 km/h (1 Bft)
25.01.2021 07:24 -1,3 C -0,6 C 94 % 1001,3 hPa 0,0 l/m 3,2 km/h (1 Bft) W-SW 247 0 min 0,0 UV-I 0 W/m -2,1 C -1,3 C 3,2 km/h (1 Bft)
25.01.2021 07:25 -1,3 C -0,6 C 94 % 1001,3 hPa 0,0 l/m 1,6 km/h (1 Bft) W-SW 247 0 min 0,0 UV-I 0 W/m -2,1 C -1,3 C 3,2 km/h (1 Bft)
25.01.2021 07:26 -1,3 C -0,6 C 94 % 1001,2 hPa 0,0 l/m 1,6 km/h (1 Bft) W-SW 247 0 min 0,0 UV-I 0 W/m -2,1 C -1,3 C 1,6 km/h (1 Bft)
25.01.2021 07:27 -1,3 C -0,6 C 94 % 1001,3 hPa 0,0 l/m 0,0 km/h (0 Bft) W-SW 247 0 min 0,0 UV-I 0 W/m -2,1 C -1,3 C 1,6 km/h (1 Bft)
25.01.2021 07:28 -1,3 C -0,6 C 94 % 1001,4 hPa 0,0 l/m 1,6 km/h (1 Bft) W-SW 247 0 min 0,0 UV-I 0 W/m -2,1 C -1,3 C 3,2 km/h (1 Bft)
25.01.2021 07:29 -1,3 C -0,6 C 94 % 1001,4 hPa 0,0 l/m 1,6 km/h (1 Bft) W-SW 247 0 min 0,0 UV-I 0 W/m -2,1 C -1,3 C 3,2 km/h (1 Bft)
25.01.2021 07:30 -1,3 C -0,6 C 94 % 1001,4 hPa 0,0 l/m 1,6 km/h (1 Bft) W-SW 247 0 min 0,0 UV-I 0 W/m -2,1 C -1,3 C 3,2 km/h (1 Bft)
25.01.2021 07:31 -1,3 C -0,6 C 94 % 1001,5 hPa 0,0 l/m 3,2 km/h (1 Bft) W-SW 247 0 min 0,0 UV-I 0 W/m -2,1 C -1,3 C 4,8 km/h (1 Bft)
25.01.2021 07:32 -1,3 C -0,6 C 94 % 1001,5 hPa 0,0 l/m 3,2 km/h (1 Bft) W-SW 247 0 min 0,0 UV-I 0 W/m -2,1 C -1,3 C 4,8 km/h (1 Bft)
25.01.2021 07:33 -1,3 C -0,6 C 94 % 1001,4 hPa 0,0 l/m 1,6 km/h (1 Bft) W-SW 247 0 min 0,0 UV-I 0 W/m -2,1 C -1,3 C 4,8 km/h (1 Bft)
25.01.2021 07:34 -1,3 C -0,6 C 94 % 1001,4 hPa 0,0 l/m 1,6 km/h (1 Bft) W-SW 247 0 min 0,0 UV-I 0 W/m -2,1 C -1,3 C 3,2 km/h (1 Bft)
25.01.2021 07:35 -1,3 C -0,6 C 94 % 1001,4 hPa 0,0 l/m 0,0 km/h (0 Bft) W-SW 247 0 min 0,0 UV-I 0 W/m -2,1 C -1,3 C 1,6 km/h (1 Bft)
25.01.2021 07:36 -1,3 C -0,6 C 94 % 1001,5 hPa 0,0 l/m 0,0 km/h (0 Bft) N 0 0 min 0,0 UV-I 0 W/m -2,1 C -1,3 C 0,0 km/h (0 Bft)
25.01.2021 07:37 -1,3 C -0,6 C 94 % 1001,5 hPa 0,0 l/m 0,0 km/h (0 Bft) N 0 0 min 0,0 UV-I 0 W/m -2,1 C -1,3 C 0,0 km/h (0 Bft)
25.01.2021 07:38 -1,3 C -0,6 C 94 % 1001,5 hPa 0,0 l/m 0,0 km/h (0 Bft) N 0 0 min 0,0 UV-I 0 W/m -2,1 C -1,3 C 0,0 km/h (0 Bft)
25.01.2021 07:39 -1,3 C -0,6 C 94 % 1001,6 hPa 0,0 l/m 0,0 km/h (0 Bft) W-SW 247 0 min 0,0 UV-I 0 W/m -2,1 C -1,3 C 1,6 km/h (1 Bft)
25.01.2021 07:40 -1,3 C -0,6 C 94 % 1001,6 hPa 0,0 l/m 0,0 km/h (0 Bft) N 0 0 min 0,0 UV-I 0 W/m -2,1 C -1,3 C 0,0 km/h (0 Bft)
25.01.2021 07:41 -1,3 C -0,6 C 94 % 1001,5 hPa 0,0 l/m 0,0 km/h (0 Bft) N 0 0 min 0,0 UV-I 0 W/m -2,1 C -1,3 C 0,0 km/h (0 Bft)
25.01.2021 07:42 -1,3 C -0,6 C 94 % 1001,5 hPa 0,0 l/m 3,2 km/h (1 Bft) W-SW 247 0 min 0,0 UV-I 0 W/m -2,1 C -1,3 C 3,2 km/h (1 Bft)
25.01.2021 07:43 -1,3 C -0,6 C 94 % 1001,6 hPa 0,0 l/m 1,6 km/h (1 Bft) W-SW 247 0 min 0,0 UV-I 0 W/m -2,1 C -1,3 C 3,2 km/h (1 Bft)
25.01.2021 07:44 -1,3 C -0,6 C 94 % 1001,6 hPa 0,0 l/m 1,6 km/h (1 Bft) W-SW 247 0 min 0,0 UV-I 0 W/m -2,1 C -1,3 C 3,2 km/h (1 Bft)
25.01.2021 07:45 -1,3 C -0,6 C 94 % 1001,6 hPa 0,0 l/m 0,0 km/h (0 Bft) N 0 0 min 0,0 UV-I 0 W/m -2,1 C -1,3 C 0,0 km/h (0 Bft)
25.01.2021 07:48 -1,3 C -0,6 C 94 % 1001,6 hPa 0,0 l/m 0,1 km/h (0 Bft) W-SW 239 0 min 0,0 UV-I 0 W/m -2,1 C -1,3 C 1,6 km/h (1 Bft)
25.01.2021 07:50 -1,3 C -0,6 C 94 % 1001,6 hPa 0,0 l/m 0,0 km/h (0 Bft) W-SW 239 0 min 0,0 UV-I 0 W/m -2,1 C -1,3 C 0,0 km/h (0 Bft)
25.01.2021 07:52 -1,3 C -0,6 C 94 % 1001,6 hPa 0,0 l/m 0,7 km/h (0 Bft) W-SW 239 0 min 0,0 UV-I 0 W/m -2,1 C -1,3 C 1,6 km/h (1 Bft)
25.01.2021 07:54 -1,3 C -0,6 C 94 % 1001,7 hPa 0,0 l/m 0,6 km/h (0 Bft) W-SW 239 0 min 0,0 UV-I 0 W/m -2,1 C -1,3 C 3,2 km/h (1 Bft)
25.01.2021 07:56 -1,3 C -0,6 C 94 % 1001,7 hPa 0,0 l/m 1,1 km/h (1 Bft) W-SW 239 0 min 0,0 UV-I 0 W/m -2,1 C -1,3 C 3,2 km/h (1 Bft)
25.01.2021 07:58 -1,3 C -0,6 C 94 % 1001,7 hPa 0,0 l/m 0,5 km/h (0 Bft) W-SW 239 0 min 0,0 UV-I 0 W/m -2,1 C -1,3 C 3,2 km/h (1 Bft)
25.01.2021 08:00 -1,3 C -0,6 C 94 % 1001,7 hPa 0,0 l/m 2,7 km/h (1 Bft) W-SW 239 0 min 0,0 UV-I 0 W/m -2,1 C -1,3 C 3,2 km/h (1 Bft)
25.01.2021 08:02 -1,3 C -0,6 C 94 % 1001,7 hPa 0,0 l/m 3,1 km/h (1 Bft) W-SW 240 0 min 0,0 UV-I 0 W/m -2,1 C -1,3 C 4,8 km/h (1 Bft)
25.01.2021 08:04 -1,3 C -0,6 C 94 % 1001,8 hPa 0,0 l/m 5,9 km/h (2 Bft) W-SW 258 0 min 0,0 UV-I 0 W/m -2,1 C -1,3 C 11,3 km/h (2 Bft)
25.01.2021 08:06 -1,3 C -0,6 C 94 % 1001,9 hPa 0,0 l/m 3,1 km/h (1 Bft) W-SW 258 0 min 0,0 UV-I 0 W/m -2,1 C -1,3 C 4,8 km/h (1 Bft)
25.01.2021 08:08 -1,2 C -0,6 C 94 % 1001,9 hPa 0,0 l/m 3,2 km/h (1 Bft) W-SW 258 0 min 0,0 UV-I 0 W/m -2,0 C -1,2 C 6,4 km/h (2 Bft)
25.01.2021 08:10 -1,2 C -0,6 C 94 % 1001,9 hPa 0,0 l/m 3,6 km/h (1 Bft) W 277 0 min 0,0 UV-I 0 W/m -2,0 C -1,2 C 6,4 km/h (2 Bft)
25.01.2021 08:12 -1,2 C -0,6 C 94 % 1002,1 hPa 0,0 l/m 2,8 km/h (1 Bft) W 277 0 min 0,0 UV-I 0 W/m -2,0 C -1,2 C 3,2 km/h (1 Bft)
25.01.2021 08:14 -1,2 C -0,6 C 94 % 1002,0 hPa 0,0 l/m 2,1 km/h (1 Bft) W 277 0 min 0,0 UV-I 0 W/m -2,0 C -1,2 C 3,2 km/h (1 Bft)
25.01.2021 08:16 -1,2 C -0,6 C 94 % 1002,1 hPa 0,0 l/m 2,3 km/h (1 Bft) W 277 0 min 0,0 UV-I 0 W/m -2,0 C -1,2 C 4,8 km/h (1 Bft)
25.01.2021 08:18 -1,2 C -0,6 C 94 % 1002,0 hPa 0,0 l/m 3,3 km/h (1 Bft) W 277 0 min 0,0 UV-I 0 W/m -2,0 C -1,2 C 6,4 km/h (2 Bft)
25.01.2021 08:20 -1,2 C -0,6 C 94 % 1002,1 hPa 0,0 l/m 2,2 km/h (1 Bft) W 277 0 min 0,0 UV-I 0 W/m -2,0 C -1,2 C 4,8 km/h (1 Bft)
25.01.2021 08:22 -1,2 C -0,6 C 94 % 1002,2 hPa 0,0 l/m 4,2 km/h (1 Bft) W-NW 286 0 min 0,0 UV-I 0 W/m -2,0 C -1,2 C 6,4 km/h (2 Bft)
25.01.2021 08:24 -1,2 C -0,6 C 94 % 1002,2 hPa 0,0 l/m 1,5 km/h (1 Bft) W-NW 286 0 min 0,0 UV-I 0 W/m -2,0 C -1,2 C 3,2 km/h (1 Bft)
25.01.2021 08:26 -1,2 C -0,6 C 94 % 1002,3 hPa 0,0 l/m 1,1 km/h (1 Bft) W-NW 286 0 min 0,0 UV-I 0 W/m -2,0 C -1,2 C 1,6 km/h (1 Bft)
25.01.2021 08:28 -1,2 C -0,6 C 94 % 1002,2 hPa 0,0 l/m 0,4 km/h (0 Bft) W-NW 286 0 min 0,0 UV-I 0 W/m -2,0 C -1,2 C 1,6 km/h (1 Bft)
25.01.2021 08:30 -1,2 C -0,6 C 94 % 1002,4 hPa 0,0 l/m 2,8 km/h (1 Bft) W-NW 298 0 min 0,0 UV-I 0 W/m -2,0 C -1,2 C 6,4 km/h (2 Bft)
25.01.2021 08:32 -1,2 C -0,6 C 94 % 1002,4 hPa 0,0 l/m 2,7 km/h (1 Bft) NW 315 0 min 0,0 UV-I 0 W/m -2,0 C -1,2 C 4,8 km/h (1 Bft)
25.01.2021 08:34 -1,1 C -0,6 C 94 % 1002,4 hPa 0,0 l/m 1,1 km/h (1 Bft) NW 315 0 min 0,0 UV-I 0 W/m -1,9 C -1,1 C 3,2 km/h (1 Bft)
25.01.2021 08:36 -1,2 C -0,6 C 94 % 1002,5 hPa 0,0 l/m 1,1 km/h (1 Bft) NW 315 0 min 0,0 UV-I 0 W/m -2,0 C -1,2 C 4,8 km/h (1 Bft)
25.01.2021 08:38 -1,1 C -0,6 C 94 % 1002,5 hPa 0,0 l/m 3,9 km/h (1 Bft) W-SW 248 0 min 0,0 UV-I 0 W/m -1,9 C -1,1 C 9,7 km/h (2 Bft)
25.01.2021 08:40 -1,1 C -0,6 C 94 % 1002,5 hPa 0,0 l/m 2,3 km/h (1 Bft) W-SW 248 0 min 0,0 UV-I 0 W/m -1,9 C -1,1 C 4,8 km/h (1 Bft)
25.01.2021 08:42 -1,1 C -0,6 C 94 % 1002,6 hPa 0,0 l/m 1,4 km/h (1 Bft) W-SW 248 0 min 0,0 UV-I 2 W/m -1,9 C -1,1 C 4,8 km/h (1 Bft)
25.01.2021 08:44 -1,1 C -0,6 C 95 % 1002,6 hPa 0,0 l/m 1,4 km/h (1 Bft) W-SW 248 0 min 0,0 UV-I 5 W/m -1,8 C -1,1 C 4,8 km/h (1 Bft)
25.01.2021 08:46 -1,1 C -0,6 C 94 % 1002,6 hPa 0,0 l/m 3,2 km/h (1 Bft) W-SW 248 0 min 0,0 UV-I 5 W/m -1,9 C -1,1 C 4,8 km/h (1 Bft)
25.01.2021 08:48 -1,1 C -0,6 C 95 % 1002,7 hPa 0,0 l/m 1,2 km/h (1 Bft) W-SW 248 0 min 0,0 UV-I 6 W/m -1,8 C -1,1 C 3,2 km/h (1 Bft)
25.01.2021 08:50 -1,1 C -0,6 C 95 % 1002,7 hPa 0,0 l/m 0,8 km/h (0 Bft) W-SW 248 0 min 0,0 UV-I 7 W/m -1,8 C -1,1 C 3,2 km/h (1 Bft)
25.01.2021 08:52 -1,1 C -0,6 C 95 % 1002,8 hPa 0,0 l/m 0,2 km/h (0 Bft) W-SW 248 0 min 0,0 UV-I 7 W/m -1,8 C -1,1 C 1,6 km/h (1 Bft)
25.01.2021 08:54 -1,1 C -0,6 C 95 % 1002,9 hPa 0,0 l/m 2,5 km/h (1 Bft) W-SW 248 0 min 0,0 UV-I 7 W/m -1,8 C -1,1 C 4,8 km/h (1 Bft)
25.01.2021 08:56 -1,0 C -0,6 C 95 % 1002,9 hPa 0,0 l/m 2,9 km/h (1 Bft) W-SW 255 0 min 0,0 UV-I 7 W/m -1,7 C -1,0 C 4,8 km/h (1 Bft)
25.01.2021 08:58 -1,0 C -0,6 C 95 % 1003,0 hPa 0,0 l/m 2,2 km/h (1 Bft) W-SW 256 0 min 0,0 UV-I 8 W/m -1,7 C -1,0 C 4,8 km/h (1 Bft)
25.01.2021 09:00 -1,0 C -0,6 C 95 % 1003,0 hPa 0,0 l/m 3,9 km/h (1 Bft) W-SW 255 0 min 0,0 UV-I 9 W/m -1,7 C -1,0 C 4,8 km/h (1 Bft)
25.01.2021 09:02 -1,0 C -0,6 C 95 % 1003,0 hPa 0,0 l/m 5,1 km/h (1 Bft) W 261 0 min 0,0 UV-I 10 W/m -1,7 C -1,0 C 11,3 km/h (2 Bft)
25.01.2021 09:04 -1,0 C -0,6 C 95 % 1003,1 hPa 0,0 l/m 4,0 km/h (1 Bft) W 259 0 min 0,0 UV-I 11 W/m -1,7 C -1,0 C 6,4 km/h (2 Bft)
25.01.2021 09:06 -1,0 C -0,6 C 95 % 1003,0 hPa 0,0 l/m 2,0 km/h (1 Bft) W 265 0 min 0,0 UV-I 11 W/m -1,7 C -1,0 C 4,8 km/h (1 Bft)
25.01.2021 09:08 -1,0 C -0,6 C 95 % 1003,1 hPa 0,0 l/m 3,0 km/h (1 Bft) W 274 0 min 0,0 UV-I 12 W/m -1,7 C -1,0 C 6,4 km/h (2 Bft)
25.01.2021 09:10 -0,9 C -0,6 C 95 % 1003,2 hPa 0,0 l/m 3,7 km/h (1 Bft) W-SW 245 0 min 0,0 UV-I 12 W/m -1,6 C -0,9 C 11,3 km/h (2 Bft)
25.01.2021 09:12 -1,0 C -0,6 C 95 % 1003,1 hPa 0,0 l/m 4,8 km/h (1 Bft) W 273 0 min 0,0 UV-I 12 W/m -1,7 C -1,0 C 11,3 km/h (2 Bft)
25.01.2021 09:14 -0,9 C -0,6 C 94 % 1003,2 hPa 0,0 l/m 4,2 km/h (1 Bft) SW 230 0 min 0,0 UV-I 12 W/m -1,7 C -0,9 C 6,4 km/h (2 Bft)
25.01.2021 09:16 -1,0 C -0,6 C 95 % 1003,2 hPa 0,0 l/m 3,6 km/h (1 Bft) W-SW 254 0 min 0,0 UV-I 13 W/m -1,7 C -1,0 C 4,8 km/h (1 Bft)
25.01.2021 09:18 -0,9 C -0,6 C 95 % 1003,3 hPa 0,0 l/m 4,7 km/h (1 Bft) W 259 0 min 0,0 UV-I 14 W/m -1,6 C -0,9 C 9,7 km/h (2 Bft)
25.01.2021 09:20 -0,9 C -0,6 C 94 % 1003,3 hPa 0,0 l/m 3,0 km/h (1 Bft) W-SW 242 0 min 0,0 UV-I 15 W/m -1,7 C -0,9 C 4,8 km/h (1 Bft)
25.01.2021 09:22 -1,0 C -0,6 C 94 % 1003,3 hPa 0,0 l/m 4,4 km/h (1 Bft) SW 230 0 min 0,0 UV-I 17 W/m -1,8 C -1,0 C 8,0 km/h (2 Bft)
25.01.2021 09:24 -0,9 C -0,6 C 94 % 1003,3 hPa 0,0 l/m 4,8 km/h (1 Bft) W-SW 251 0 min 0,0 UV-I 18 W/m -1,7 C -0,9 C 8,0 km/h (2 Bft)
25.01.2021 09:26 -0,9 C -0,6 C 94 % 1003,3 hPa 0,0 l/m 5,3 km/h (1 Bft) W-SW 238 0 min 0,0 UV-I 19 W/m -1,7 C -0,9 C 8,0 km/h (2 Bft)
25.01.2021 09:28 -0,9 C -0,6 C 94 % 1003,4 hPa 0,0 l/m 5,4 km/h (1 Bft) W 266 0 min 0,0 UV-I 22 W/m -1,7 C -0,9 C 9,7 km/h (2 Bft)
25.01.2021 09:30 -0,9 C -0,6 C 94 % 1003,5 hPa 0,0 l/m 6,9 km/h (2 Bft) W 260 0 min 0,0 UV-I 23 W/m -1,7 C -1,4 C 11,3 km/h (2 Bft)
25.01.2021 09:32 -0,9 C -0,6 C 94 % 1003,4 hPa 0,0 l/m 6,4 km/h (2 Bft) W 259 0 min 0,0 UV-I 23 W/m -1,7 C -0,9 C 11,3 km/h (2 Bft)
25.01.2021 09:34 -1,0 C -0,6 C 94 % 1003,5 hPa 0,0 l/m 7,0 km/h (2 Bft) W-SW 254 0 min 0,0 UV-I 21 W/m -1,8 C -1,6 C 12,9 km/h (3 Bft)
25.01.2021 09:36 -1,1 C -0,6 C 94 % 1003,5 hPa 0,0 l/m 4,9 km/h (1 Bft) W-SW 251 0 min 0,0 UV-I 23 W/m -1,9 C -1,1 C 9,7 km/h (2 Bft)
25.01.2021 09:38 -1,0 C -0,6 C 94 % 1003,5 hPa 0,0 l/m 3,7 km/h (1 Bft) W 265 0 min 0,0 UV-I 25 W/m -1,8 C -1,0 C 4,8 km/h (1 Bft)
25.01.2021 09:40 -1,0 C -0,6 C 94 % 1003,6 hPa 0,0 l/m 5,1 km/h (1 Bft) W 259 0 min 0,0 UV-I 28 W/m -1,8 C -1,0 C 11,3 km/h (2 Bft)
25.01.2021 09:42 -1,0 C -0,6 C 94 % 1003,6 hPa 0,0 l/m 5,8 km/h (2 Bft) W-NW 284 0 min 0,0 UV-I 32 W/m -1,8 C -1,0 C 11,3 km/h (2 Bft)
25.01.2021 09:44 -0,9 C -0,6 C 94 % 1003,7 hPa 0,0 l/m 3,9 km/h (1 Bft) W 277 0 min 0,0 UV-I 33 W/m -1,7 C -0,9 C 9,7 km/h (2 Bft)
25.01.2021 09:46 -0,9 C -0,6 C 94 % 1003,7 hPa 0,0 l/m 4,8 km/h (1 Bft) W 273 0 min 0,0 UV-I 34 W/m -1,7 C -0,9 C 6,4 km/h (2 Bft)
25.01.2021 09:48 -0,9 C -0,6 C 94 % 1003,8 hPa 0,0 l/m 6,9 km/h (2 Bft) W 271 0 min 0,0 UV-I 34 W/m -1,7 C -1,4 C 12,9 km/h (3 Bft)
25.01.2021 09:50 -0,9 C -0,6 C 94 % 1003,7 hPa 0,0 l/m 3,4 km/h (1 Bft) W 271 0 min 0,0 UV-I 33 W/m -1,7 C -0,9 C 4,8 km/h (1 Bft)
25.01.2021 09:52 -0,8 C 0,0 C 94 % 1003,7 hPa 0,0 l/m 6,7 km/h (2 Bft) W-SW 256 0 min 0,0 UV-I 30 W/m -1,6 C -1,1 C 9,7 km/h (2 Bft)
25.01.2021 09:54 -0,8 C 0,0 C 94 % 1003,8 hPa 0,0 l/m 5,4 km/h (1 Bft) W 266 0 min 0,0 UV-I 31 W/m -1,6 C -0,8 C 12,9 km/h (3 Bft)
25.01.2021 09:56 -0,8 C 0,0 C 94 % 1003,8 hPa 0,0 l/m 5,4 km/h (1 Bft) W 265 0 min 0,0 UV-I 34 W/m -1,6 C -0,8 C 9,7 km/h (2 Bft)
25.01.2021 09:58 -0,7 C 0,0 C 94 % 1003,9 hPa 0,0 l/m 5,4 km/h (1 Bft) W-SW 242 0 min 0,0 UV-I 37 W/m -1,5 C -0,7 C 6,4 km/h (2 Bft)
25.01.2021 10:00 -0,7 C 0,0 C 94 % 1003,9 hPa 0,0 l/m 4,6 km/h (1 Bft) W-SW 254 0 min 0,0 UV-I 38 W/m -1,5 C -0,7 C 9,7 km/h (2 Bft)
25.01.2021 10:02 -0,7 C 0,0 C 94 % 1004,1 hPa 0,0 l/m 6,4 km/h (2 Bft) W 264 0 min 0,0 UV-I 38 W/m -1,5 C -0,7 C 12,9 km/h (3 Bft)
25.01.2021 10:04 -0,6 C 0,0 C 94 % 1004,0 hPa 0,0 l/m 6,3 km/h (2 Bft) W-SW 252 0 min 0,0 UV-I 34 W/m -1,4 C -0,6 C 11,3 km/h (2 Bft)
25.01.2021 10:06 -0,6 C 0,0 C 94 % 1004,1 hPa 0,0 l/m 7,0 km/h (2 Bft) SW 228 0 min 0,0 UV-I 34 W/m -1,4 C -1,2 C 12,9 km/h (3 Bft)
25.01.2021 10:08 -0,6 C 0,0 C 94 % 1004,1 hPa 0,0 l/m 5,7 km/h (1 Bft) W 275 0 min 0,0 UV-I 38 W/m -1,4 C -0,6 C 9,7 km/h (2 Bft)
25.01.2021 10:10 -0,5 C 0,0 C 94 % 1004,1 hPa 0,0 l/m 6,3 km/h (2 Bft) W 266 0 min 0,0 UV-I 39 W/m -1,3 C -0,5 C 9,7 km/h (2 Bft)
25.01.2021 10:12 -0,5 C 0,0 C 94 % 1004,2 hPa 0,0 l/m 5,0 km/h (1 Bft) W 261 0 min 0,0 UV-I 39 W/m -1,3 C -0,5 C 9,7 km/h (2 Bft)
25.01.2021 10:14 -0,4 C 0,0 C 94 % 1004,3 hPa 0,0 l/m 7,9 km/h (2 Bft) W 261 0 min 0,0 UV-I 39 W/m -1,2 C -2,0 C 12,9 km/h (3 Bft)
25.01.2021 10:16 -0,4 C 0,0 C 94 % 1004,2 hPa 0,0 l/m 6,9 km/h (2 Bft) W 260 0 min 0,0 UV-I 37 W/m -1,2 C -0,9 C 11,3 km/h (2 Bft)
25.01.2021 10:18 -0,4 C 0,0 C 94 % 1004,3 hPa 0,0 l/m 6,9 km/h (2 Bft) W-SW 249 0 min 0,0 UV-I 37 W/m -1,2 C -0,9 C 12,9 km/h (3 Bft)
25.01.2021 10:20 -0,4 C 0,0 C 94 % 1004,4 hPa 0,0 l/m 4,6 km/h (1 Bft) W-SW 238 0 min 0,0 UV-I 38 W/m -1,2 C -0,4 C 8,0 km/h (2 Bft)
25.01.2021 10:22 -0,3 C 0,0 C 94 % 1004,4 hPa 0,0 l/m 3,2 km/h (1 Bft) W-SW 239 0 min 0,0 UV-I 39 W/m -1,1 C -0,3 C 4,8 km/h (1 Bft)
25.01.2021 10:24 -0,3 C 0,0 C 94 % 1004,4 hPa 0,0 l/m 5,7 km/h (1 Bft) W 276 0 min 0,0 UV-I 38 W/m -1,1 C -0,3 C 12,9 km/h (3 Bft)
25.01.2021 10:26 -0,3 C 0,0 C 94 % 1004,5 hPa 0,0 l/m 5,5 km/h (1 Bft) W-SW 242 0 min 0,0 UV-I 37 W/m -1,1 C -0,3 C 9,7 km/h (2 Bft)
25.01.2021 10:28 -0,3 C 0,0 C 94 % 1004,6 hPa 0,0 l/m 6,1 km/h (2 Bft) W-SW 258 0 min 0,0 UV-I 38 W/m -1,1 C -0,3 C 11,3 km/h (2 Bft)
25.01.2021 10:30 -0,3 C 0,0 C 93 % 1004,6 hPa 0,0 l/m 6,2 km/h (2 Bft) W-SW 242 0 min 0,0 UV-I 39 W/m -1,3 C -0,3 C 11,3 km/h (2 Bft)
25.01.2021 10:32 -0,3 C 0,0 C 93 % 1004,6 hPa 0,0 l/m 7,8 km/h (2 Bft) W 273 0 min 0,0 UV-I 39 W/m -1,3 C -1,8 C 12,9 km/h (3 Bft)
25.01.2021 10:34 -0,3 C 0,0 C 93 % 1004,6 hPa 0,0 l/m 7,0 km/h (2 Bft) SW 220 0 min 0,0 UV-I 39 W/m -1,3 C -0,9 C 11,3 km/h (2 Bft)
25.01.2021 10:36 -0,3 C 0,0 C 93 % 1004,6 hPa 0,0 l/m 7,4 km/h (2 Bft) W 279 0 min 0,0 UV-I 39 W/m -1,3 C -1,4 C 11,3 km/h (2 Bft)
25.01.2021 10:38 -0,3 C 0,0 C 93 % 1004,6 hPa 0,0 l/m 8,5 km/h (2 Bft) W-SW 237 0 min 0,0 UV-I 39 W/m -1,3 C -2,4 C 16,1 km/h (3 Bft)
25.01.2021 10:40 -0,3 C 0,0 C 93 % 1004,7 hPa 0,0 l/m 8,7 km/h (2 Bft) W-SW 245 0 min 0,0 UV-I 40 W/m -1,3 C -2,6 C 14,5 km/h (3 Bft)
25.01.2021 10:42 -0,3 C 0,0 C 93 % 1004,7 hPa 0,0 l/m 9,6 km/h (2 Bft) W-SW 257 0 min 0,0 UV-I 41 W/m -1,3 C -3,4 C 16,1 km/h (3 Bft)
25.01.2021 10:44 -0,3 C 0,0 C 93 % 1004,7 hPa 0,0 l/m 8,8 km/h (2 Bft) W-SW 248 0 min 0,0 UV-I 42 W/m -1,3 C -2,7 C 14,5 km/h (3 Bft)
25.01.2021 10:46 -0,3 C 0,0 C 93 % 1004,7 hPa 0,0 l/m 8,7 km/h (2 Bft) W-SW 241 0 min 0,0 UV-I 50 W/m -1,3 C -2,6 C 14,5 km/h (3 Bft)
25.01.2021 10:48 -0,3 C 0,0 C 93 % 1004,8 hPa 0,0 l/m 5,0 km/h (1 Bft) W-SW 244 0 min 0,0 UV-I 88 W/m -1,3 C -0,3 C 9,7 km/h (2 Bft)
25.01.2021 10:50 -0,2 C 0,0 C 92 % 1004,7 hPa 0,0 l/m 9,6 km/h (2 Bft) W 259 0 min 0,0 UV-I 108 W/m -1,3 C -3,3 C 17,7 km/h (3 Bft)
25.01.2021 10:52 0,0 C 0,0 C 91 % 1004,8 hPa 0,0 l/m 8,7 km/h (2 Bft) W-SW 252 0 min 0,0 UV-I 113 W/m -1,3 C -2,3 C 12,9 km/h (3 Bft)
25.01.2021 10:54 0,2 C 0,0 C 90 % 1004,9 hPa 0,0 l/m 9,2 km/h (2 Bft) W 263 0 min 0,0 UV-I 113 W/m -1,2 C -2,5 C 14,5 km/h (3 Bft)
25.01.2021 10:56 0,3 C 0,0 C 89 % 1004,9 hPa 0,0 l/m 8,9 km/h (2 Bft) W 270 0 min 0,0 UV-I 109 W/m -1,3 C -2,2 C 12,9 km/h (3 Bft)
25.01.2021 10:58 0,3 C 0,0 C 88 % 1004,9 hPa 0,0 l/m 8,3 km/h (2 Bft) W 259 0 min 0,0 UV-I 99 W/m -1,4 C -1,6 C 12,9 km/h (3 Bft)
25.01.2021 11:00 0,3 C 0,0 C 87 % 1004,9 hPa 0,0 l/m 6,9 km/h (2 Bft) W-SW 254 0 min 0,0 UV-I 66 W/m -1,6 C -0,2 C 9,7 km/h (2 Bft)
25.01.2021 11:02 0,3 C 0,0 C 87 % 1005,0 hPa 0,0 l/m 5,1 km/h (1 Bft) W-SW 251 0 min 0,0 UV-I 72 W/m -1,6 C 0,3 C 9,7 km/h (2 Bft)
25.01.2021 11:04 0,2 C 0,0 C 87 % 1005,0 hPa 0,0 l/m 4,6 km/h (1 Bft) W 259 0 min 0,0 UV-I 96 W/m -1,7 C 0,2 C 6,4 km/h (2 Bft)
25.01.2021 11:06 0,3 C 0,6 C 87 % 1005,1 hPa 0,0 l/m 5,3 km/h (1 Bft) W-SW 247 0 min 0,3 UV-I 92 W/m -1,6 C 0,3 C 8,0 km/h (2 Bft)
25.01.2021 11:08 0,3 C 0,6 C 87 % 1005,1 hPa 0,0 l/m 5,1 km/h (1 Bft) W 261 0 min 0,5 UV-I 91 W/m -1,6 C 0,3 C 11,3 km/h (2 Bft)
25.01.2021 11:10 0,4 C 0,6 C 87 % 1005,1 hPa 0,0 l/m 5,2 km/h (1 Bft) W-SW 244 0 min 0,5 UV-I 96 W/m -1,5 C 0,4 C 11,3 km/h (2 Bft)
25.01.2021 11:12 0,3 C 1,1 C 86 % 1005,3 hPa 0,0 l/m 4,4 km/h (1 Bft) W-SW 237 0 min 0,6 UV-I 101 W/m -1,8 C 0,3 C 8,0 km/h (2 Bft)
25.01.2021 11:14 0,3 C 1,1 C 87 % 1005,3 hPa 0,0 l/m 6,0 km/h (2 Bft) W 260 0 min 0,7 UV-I 118 W/m -1,6 C 0,3 C 11,3 km/h (2 Bft)
25.01.2021 11:16 0,6 C 1,1 C 87 % 1005,3 hPa 0,0 l/m 7,7 km/h (2 Bft) W 261 0 min 0,8 UV-I 133 W/m -1,3 C -0,7 C 11,3 km/h (2 Bft)
25.01.2021 11:18 0,6 C 1,7 C 86 % 1005,4 hPa 0,0 l/m 6,5 km/h (2 Bft) W-SW 257 0 min 0,9 UV-I 111 W/m -1,5 C 0,5 C 11,3 km/h (2 Bft)
25.01.2021 11:20 0,5 C 1,1 C 86 % 1005,3 hPa 0,0 l/m 5,7 km/h (1 Bft) W-SW 243 0 min 0,8 UV-I 87 W/m -1,6 C 0,5 C 11,3 km/h (2 Bft)
25.01.2021 11:22 0,5 C 1,1 C 86 % 1005,4 hPa 0,0 l/m 7,5 km/h (2 Bft) W-SW 250 0 min 0,9 UV-I 89 W/m -1,6 C -0,6 C 12,9 km/h (3 Bft)
25.01.2021 11:24 0,4 C 1,1 C 86 % 1005,4 hPa 0,0 l/m 6,0 km/h (2 Bft) W 260 0 min 0,9 UV-I 79 W/m -1,7 C 0,4 C 11,3 km/h (2 Bft)
25.01.2021 11:26 0,3 C 1,1 C 86 % 1005,4 hPa 0,0 l/m 5,3 km/h (1 Bft) W-SW 251 0 min 1,0 UV-I 82 W/m -1,8 C 0,3 C 9,7 km/h (2 Bft)
25.01.2021 11:28 0,3 C 1,1 C 87 % 1005,4 hPa 0,0 l/m 5,9 km/h (2 Bft) SW 225 0 min 1,0 UV-I 82 W/m -1,6 C 0,3 C 9,7 km/h (2 Bft)
25.01.2021 11:30 0,3 C 1,1 C 87 % 1005,5 hPa 0,0 l/m 10,7 km/h (2 Bft) W 267 0 min 1,1 UV-I 83 W/m -1,6 C -3,7 C 17,7 km/h (3 Bft)
25.01.2021 11:32 0,4 C 0,6 C 87 % 1005,5 hPa 0,0 l/m 6,1 km/h (2 Bft) NW 323 0 min 1,0 UV-I 82 W/m -1,5 C 0,4 C 12,9 km/h (3 Bft)
25.01.2021 11:34 0,3 C 0,6 C 87 % 1005,5 hPa 0,0 l/m 3,2 km/h (1 Bft) W 277 0 min 1,0 UV-I 81 W/m -1,6 C 0,3 C 12,9 km/h (3 Bft)
25.01.2021 11:36 0,3 C 0,6 C 87 % 1005,6 hPa 0,0 l/m 3,7 km/h (1 Bft) W-SW 253 0 min 0,9 UV-I 78 W/m -1,6 C 0,3 C 6,4 km/h (2 Bft)
25.01.2021 11:38 0,3 C 0,6 C 87 % 1005,5 hPa 0,0 l/m 7,3 km/h (2 Bft) W 265 0 min 0,9 UV-I 68 W/m -1,6 C -0,6 C 12,9 km/h (3 Bft)
25.01.2021 11:40 0,3 C 0,6 C 86 % 1005,7 hPa 0,0 l/m 4,3 km/h (1 Bft) W-NW 300 0 min 0,9 UV-I 69 W/m -1,8 C 0,3 C 9,7 km/h (2 Bft)
25.01.2021 11:42 0,3 C 0,6 C 87 % 1005,7 hPa 0,0 l/m 6,1 km/h (2 Bft) W 262 0 min 1,0 UV-I 74 W/m -1,6 C 0,3 C 11,3 km/h (2 Bft)
25.01.2021 11:44 0,3 C 0,6 C 87 % 1005,6 hPa 0,0 l/m 6,0 km/h (2 Bft) W-SW 247 0 min 1,0 UV-I 80 W/m -1,6 C 0,3 C 11,3 km/h (2 Bft)
25.01.2021 11:46 0,4 C 0,6 C 87 % 1005,8 hPa 0,0 l/m 4,3 km/h (1 Bft) W 265 0 min 1,0 UV-I 83 W/m -1,5 C 0,4 C 11,3 km/h (2 Bft)
25.01.2021 11:48 0,4 C 0,6 C 87 % 1005,6 hPa 0,0 l/m 3,0 km/h (1 Bft) W 265 0 min 1,0 UV-I 79 W/m -1,5 C 0,4 C 6,4 km/h (2 Bft)
25.01.2021 11:50 0,4 C 0,6 C 87 % 1005,8 hPa 0,0 l/m 1,5 km/h (1 Bft) W 275 0 min 0,9 UV-I 77 W/m -1,5 C 0,4 C 4,8 km/h (1 Bft)
25.01.2021 11:52 0,4 C 0,6 C 87 % 1005,8 hPa 0,0 l/m 4,3 km/h (1 Bft) W 261 0 min 0,9 UV-I 88 W/m -1,5 C 0,4 C 6,4 km/h (2 Bft)
25.01.2021 11:54 0,4 C 0,6 C 87 % 1005,9 hPa 0,0 l/m 5,0 km/h (1 Bft) W 266 0 min 0,9 UV-I 114 W/m -1,5 C 0,4 C 9,7 km/h (2 Bft)
25.01.2021 11:56 0,4 C 0,6 C 87 % 1005,9 hPa 0,0 l/m 5,1 km/h (1 Bft) W-NW 285 0 min 0,8 UV-I 146 W/m -1,5 C 0,4 C 11,3 km/h (2 Bft)
25.01.2021 11:58 0,4 C 0,6 C 87 % 1006,0 hPa 0,0 l/m 7,2 km/h (2 Bft) W 267 0 min 0,7 UV-I 131 W/m -1,5 C -0,4 C 12,9 km/h (3 Bft)
25.01.2021 12:00 0,4 C 0,6 C 87 % 1006,0 hPa 0,0 l/m 6,8 km/h (2 Bft) W 263 0 min 0,6 UV-I 116 W/m -1,5 C 0,0 C 12,9 km/h (3 Bft)
25.01.2021 12:02 0,4 C 0,6 C 87 % 1006,1 hPa 0,0 l/m 8,8 km/h (2 Bft) W-NW 293 0 min 0,7 UV-I 123 W/m -1,5 C -2,0 C 12,9 km/h (3 Bft)
25.01.2021 12:04 0,4 C 0,6 C 87 % 1006,0 hPa 0,0 l/m 5,2 km/h (1 Bft) W-SW 245 0 min 0,8 UV-I 141 W/m -1,5 C 0,4 C 9,7 km/h (2 Bft)
25.01.2021 12:06 0,3 C 0,6 C 86 % 1006,1 hPa 0,0 l/m 6,3 km/h (2 Bft) W 262 0 min 0,8 UV-I 156 W/m -1,8 C 0,3 C 11,3 km/h (2 Bft)
25.01.2021 12:08 0,3 C 0,6 C 86 % 1006,1 hPa 0,0 l/m 5,6 km/h (1 Bft) W 273 0 min 0,9 UV-I 170 W/m -1,8 C 0,3 C 9,7 km/h (2 Bft)
25.01.2021 12:10 0,3 C 0,6 C 86 % 1006,1 hPa 0,0 l/m 6,7 km/h (2 Bft) W 271 0 min 0,9 UV-I 164 W/m -1,8 C 0,0 C 9,7 km/h (2 Bft)
25.01.2021 12:12 0,3 C 0,6 C 86 % 1006,1 hPa 0,0 l/m 6,8 km/h (2 Bft) W 259 0 min 0,9 UV-I 158 W/m -1,8 C -0,1 C 11,3 km/h (2 Bft)
25.01.2021 12:14 0,3 C 0,6 C 86 % 1006,1 hPa 0,0 l/m 7,0 km/h (2 Bft) W 273 0 min 0,9 UV-I 154 W/m -1,8 C -0,3 C 12,9 km/h (3 Bft)
25.01.2021 12:16 0,3 C 0,6 C 86 % 1006,1 hPa 0,0 l/m 6,7 km/h (2 Bft) W 261 0 min 0,8 UV-I 145 W/m -1,8 C 0,0 C 11,3 km/h (2 Bft)
25.01.2021 12:18 0,3 C 0,6 C 86 % 1006,2 hPa 0,0 l/m 6,0 km/h (2 Bft) W 261 0 min 0,8 UV-I 146 W/m -1,8 C 0,3 C 11,3 km/h (2 Bft)
25.01.2021 12:20 0,3 C 0,6 C 86 % 1006,1 hPa 0,0 l/m 5,3 km/h (1 Bft) W-SW 250 0 min 0,8 UV-I 143 W/m -1,8 C 0,3 C 11,3 km/h (2 Bft)
25.01.2021 12:22 0,4 C 0,6 C 86 % 1006,1 hPa 0,0 l/m 6,6 km/h (2 Bft) W-SW 244 0 min 0,8 UV-I 141 W/m -1,7 C 0,2 C 11,3 km/h (2 Bft)
25.01.2021 12:24 0,4 C 0,6 C 86 % 1006,2 hPa 0,0 l/m 5,7 km/h (1 Bft) W-SW 256 0 min 0,8 UV-I 140 W/m -1,7 C 0,4 C 9,7 km/h (2 Bft)
25.01.2021 12:26 0,4 C 0,6 C 86 % 1006,3 hPa 0,0 l/m 4,7 km/h (1 Bft) W-NW 292 0 min 0,7 UV-I 131 W/m -1,7 C 0,4 C 6,4 km/h (2 Bft)
25.01.2021 12:28 0,6 C 0,6 C 86 % 1006,3 hPa 0,0 l/m 2,3 km/h (1 Bft) W-NW 292 0 min 0,7 UV-I 124 W/m -1,5 C 0,6 C 3,2 km/h (1 Bft)
25.01.2021 12:30 0,6 C 0,6 C 86 % 1006,3 hPa 0,0 l/m 1,9 km/h (1 Bft) W-NW 292 0 min 0,6 UV-I 106 W/m -1,5 C 0,6 C 4,8 km/h (1 Bft)
25.01.2021 12:32 0,6 C 0,6 C 86 % 1006,3 hPa 0,0 l/m 1,6 km/h (1 Bft) W-NW 284 0 min 0,6 UV-I 95 W/m -1,5 C 0,6 C 4,8 km/h (1 Bft)
25.01.2021 12:34 0,6 C 0,6 C 87 % 1006,3 hPa 0,0 l/m 3,8 km/h (1 Bft) W-NW 300 0 min 0,6 UV-I 85 W/m -1,3 C 0,6 C 4,8 km/h (1 Bft)
25.01.2021 12:36 0,6 C 0,6 C 87 % 1006,3 hPa 0,0 l/m 3,0 km/h (1 Bft) NW 309 0 min 0,6 UV-I 83 W/m -1,3 C 0,6 C 6,4 km/h (2 Bft)
25.01.2021 12:38 0,6 C 0,6 C 87 % 1006,4 hPa 0,0 l/m 3,5 km/h (1 Bft) W-NW 288 0 min 0,6 UV-I 95 W/m -1,3 C 0,6 C 4,8 km/h (1 Bft)
25.01.2021 12:40 0,6 C 0,6 C 87 % 1006,4 hPa 0,0 l/m 3,9 km/h (1 Bft) NW 321 0 min 0,6 UV-I 107 W/m -1,3 C 0,6 C 9,7 km/h (2 Bft)
25.01.2021 12:42 0,6 C 0,6 C 87 % 1006,5 hPa 0,0 l/m 2,5 km/h (1 Bft) W-NW 291 0 min 0,7 UV-I 121 W/m -1,3 C 0,6 C 4,8 km/h (1 Bft)
25.01.2021 12:44 0,6 C 0,6 C 87 % 1006,5 hPa 0,0 l/m 2,6 km/h (1 Bft) W-NW 292 0 min 0,8 UV-I 162 W/m -1,3 C 0,6 C 4,8 km/h (1 Bft)
25.01.2021 12:46 0,7 C 0,6 C 87 % 1006,5 hPa 0,0 l/m 3,1 km/h (1 Bft) W-NW 292 0 min 0,9 UV-I 193 W/m -1,2 C 0,7 C 4,8 km/h (1 Bft)
25.01.2021 12:48 0,7 C 0,6 C 87 % 1006,6 hPa 0,0 l/m 7,2 km/h (2 Bft) W 266 0 min 0,9 UV-I 210 W/m -1,2 C -0,1 C 12,9 km/h (3 Bft)
25.01.2021 12:50 0,7 C 0,6 C 87 % 1006,6 hPa 0,0 l/m 8,2 km/h (2 Bft) W 263 0 min 0,9 UV-I 201 W/m -1,2 C -1,1 C 12,9 km/h (3 Bft)
25.01.2021 12:52 0,7 C 0,6 C 87 % 1006,6 hPa 0,0 l/m 4,7 km/h (1 Bft) W 271 0 min 0,8 UV-I 179 W/m -1,2 C 0,7 C 9,7 km/h (2 Bft)
25.01.2021 12:54 0,7 C 0,6 C 87 % 1006,7 hPa 0,0 l/m 6,5 km/h (2 Bft) W 279 0 min 0,7 UV-I 144 W/m -1,2 C 0,6 C 11,3 km/h (2 Bft)
25.01.2021 12:56 0,7 C 0,6 C 87 % 1006,7 hPa 0,0 l/m 6,1 km/h (2 Bft) W 269 0 min 0,6 UV-I 127 W/m -1,2 C 0,7 C 11,3 km/h (2 Bft)
25.01.2021 12:58 0,7 C 0,6 C 87 % 1006,7 hPa 0,0 l/m 3,9 km/h (1 Bft) W 261 0 min 0,7 UV-I 130 W/m -1,2 C 0,7 C 9,7 km/h (2 Bft)
25.01.2021 13:00 0,6 C 0,6 C 88 % 1006,7 hPa 0,0 l/m 6,8 km/h (2 Bft) W-SW 252 0 min 0,6 UV-I 117 W/m -1,2 C 0,2 C 14,5 km/h (3 Bft)
25.01.2021 13:02 0,6 C 0,0 C 87 % 1006,7 hPa 0,0 l/m 6,5 km/h (2 Bft) W 261 0 min 0,6 UV-I 114 W/m -1,3 C 0,5 C 12,9 km/h (3 Bft)
25.01.2021 13:04 0,6 C 0,0 C 87 % 1006,8 hPa 0,0 l/m 5,6 km/h (1 Bft) SW 235 0 min 0,6 UV-I 120 W/m -1,3 C 0,6 C 9,7 km/h (2 Bft)
25.01.2021 13:06 0,6 C 0,0 C 88 % 1006,8 hPa 0,0 l/m 10,5 km/h (2 Bft) W 259 0 min 0,7 UV-I 138 W/m -1,2 C -3,2 C 17,7 km/h (3 Bft)
25.01.2021 13:08 0,5 C 0,0 C 88 % 1006,8 hPa 0,0 l/m 10,8 km/h (2 Bft) W 271 0 min 0,8 UV-I 143 W/m -1,3 C -3,5 C 17,7 km/h (3 Bft)
25.01.2021 13:10 0,4 C 0,0 C 88 % 1006,8 hPa 0,0 l/m 6,7 km/h (2 Bft) W 279 0 min 0,7 UV-I 130 W/m -1,3 C 0,1 C 14,5 km/h (3 Bft)
25.01.2021 13:12 0,4 C 0,0 C 88 % 1006,8 hPa 0,0 l/m 4,6 km/h (1 Bft) W 260 0 min 0,7 UV-I 123 W/m -1,3 C 0,4 C 12,9 km/h (3 Bft)
25.01.2021 13:14 0,4 C 0,6 C 88 % 1006,8 hPa 0,0 l/m 5,6 km/h (1 Bft) W 260 0 min 0,6 UV-I 111 W/m -1,3 C 0,4 C 11,3 km/h (2 Bft)
25.01.2021 13:16 0,4 C 0,6 C 88 % 1006,8 hPa 0,0 l/m 5,6 km/h (1 Bft) W 261 0 min 0,6 UV-I 101 W/m -1,3 C 0,4 C 14,5 km/h (3 Bft)
25.01.2021 13:18 0,4 C 0,0 C 88 % 1006,9 hPa 0,0 l/m 5,4 km/h (1 Bft) W-NW 295 0 min 0,5 UV-I 96 W/m -1,3 C 0,4 C 11,3 km/h (2 Bft)
25.01.2021 13:20 0,4 C 0,6 C 88 % 1006,9 hPa 0,0 l/m 1,8 km/h (1 Bft) W-NW 289 0 min 0,6 UV-I 98 W/m -1,3 C 0,4 C 6,4 km/h (2 Bft)
25.01.2021 13:22 0,4 C 0,6 C 89 % 1007,0 hPa 0,0 l/m 4,0 km/h (1 Bft) N-NW 336 0 min 0,6 UV-I 98 W/m -1,2 C 0,4 C 6,4 km/h (2 Bft)
25.01.2021 13:24 0,4 C 0,6 C 89 % 1007,0 hPa 0,0 l/m 3,1 km/h (1 Bft) NW 310 0 min 0,6 UV-I 95 W/m -1,2 C 0,4 C 6,4 km/h (2 Bft)
25.01.2021 13:26 0,4 C 0,6 C 88 % 1007,0 hPa 0,0 l/m 2,7 km/h (1 Bft) W-NW 292 0 min 0,7 UV-I 108 W/m -1,3 C 0,4 C 6,4 km/h (2 Bft)
25.01.2021 13:28 0,4 C 0,6 C 88 % 1007,0 hPa 0,0 l/m 1,4 km/h (1 Bft) N-NW 344 0 min 0,7 UV-I 124 W/m -1,3 C 0,4 C 4,8 km/h (1 Bft)
25.01.2021 13:30 0,6 C 0,0 C 88 % 1007,1 hPa 0,0 l/m 0,8 km/h (0 Bft) N-NW 344 0 min 0,8 UV-I 141 W/m -1,2 C 0,6 C 3,2 km/h (1 Bft)
25.01.2021 13:32 0,6 C 0,6 C 88 % 1007,0 hPa 0,0 l/m 2,3 km/h (1 Bft) W-NW 297 0 min 0,8 UV-I 156 W/m -1,2 C 0,6 C 8,0 km/h (2 Bft)
25.01.2021 13:34 0,6 C 0,6 C 89 % 1007,0 hPa 0,0 l/m 2,1 km/h (1 Bft) W-NW 298 0 min 0,8 UV-I 159 W/m -1,0 C 0,6 C 4,8 km/h (1 Bft)
25.01.2021 13:36 0,7 C 0,6 C 89 % 1007,0 hPa 0,0 l/m 2,9 km/h (1 Bft) NW 317 0 min 0,7 UV-I 144 W/m -0,9 C 0,7 C 6,4 km/h (2 Bft)
25.01.2021 13:38 0,7 C 0,6 C 89 % 1007,2 hPa 0,0 l/m 3,6 km/h (1 Bft) NW 314 0 min 0,6 UV-I 121 W/m -0,9 C 0,7 C 9,7 km/h (2 Bft)
25.01.2021 13:40 0,7 C 0,6 C 88 % 1007,2 hPa 0,0 l/m 5,4 km/h (1 Bft) NW 319 0 min 0,6 UV-I 104 W/m -1,1 C 0,7 C 11,3 km/h (2 Bft)
25.01.2021 13:42 0,7 C 0,6 C 88 % 1007,2 hPa 0,0 l/m 4,1 km/h (1 Bft) W 277 0 min 0,5 UV-I 88 W/m -1,1 C 0,7 C 6,4 km/h (2 Bft)
25.01.2021 13:44 0,7 C 0,6 C 88 % 1007,2 hPa 0,0 l/m 3,9 km/h (1 Bft) NW 306 0 min 0,5 UV-I 81 W/m -1,1 C 0,7 C 8,0 km/h (2 Bft)
25.01.2021 13:46 0,6 C 0,6 C 88 % 1007,2 hPa 0,0 l/m 1,4 km/h (1 Bft) NW 311 0 min 0,5 UV-I 79 W/m -1,2 C 0,6 C 4,8 km/h (1 Bft)
25.01.2021 13:48 0,7 C 0,6 C 88 % 1007,2 hPa 0,0 l/m 0,5 km/h (0 Bft) NW 311 0 min 0,6 UV-I 100 W/m -1,1 C 0,7 C 3,2 km/h (1 Bft)
25.01.2021 13:50 0,7 C 0,6 C 88 % 1007,3 hPa 0,0 l/m 3,9 km/h (1 Bft) NW 324 0 min 0,7 UV-I 130 W/m -1,1 C 0,7 C 11,3 km/h (2 Bft)
25.01.2021 13:52 0,7 C 0,6 C 88 % 1007,3 hPa 0,0 l/m 4,8 km/h (1 Bft) W-NW 297 0 min 0,7 UV-I 134 W/m -1,1 C 0,7 C 11,3 km/h (2 Bft)
25.01.2021 13:54 0,6 C 0,6 C 88 % 1007,4 hPa 0,0 l/m 6,1 km/h (2 Bft) N-NW 348 0 min 0,7 UV-I 138 W/m -1,2 C 0,6 C 16,1 km/h (3 Bft)
25.01.2021 13:56 0,6 C 0,6 C 88 % 1007,4 hPa 0,0 l/m 9,0 km/h (2 Bft) NW 323 0 min 0,7 UV-I 140 W/m -1,2 C -1,9 C 16,1 km/h (3 Bft)
25.01.2021 13:58 0,4 C 0,6 C 88 % 1007,4 hPa 0,0 l/m 8,1 km/h (2 Bft) N-NW 347 0 min 0,7 UV-I 149 W/m -1,3 C -1,3 C 14,5 km/h (3 Bft)
25.01.2021 14:00 0,4 C 0,6 C 88 % 1007,4 hPa 0,0 l/m 8,4 km/h (2 Bft) N-NW 341 0 min 0,7 UV-I 162 W/m -1,3 C -1,6 C 12,9 km/h (3 Bft)
25.01.2021 14:02 0,4 C 0,6 C 88 % 1007,4 hPa 0,0 l/m 7,9 km/h (2 Bft) N-NW 333 0 min 0,7 UV-I 171 W/m -1,3 C -1,1 C 14,5 km/h (3 Bft)
25.01.2021 14:04 0,3 C 0,6 C 88 % 1007,4 hPa 0,0 l/m 7,5 km/h (2 Bft) N-NW 329 0 min 0,7 UV-I 174 W/m -1,4 C -0,8 C 12,9 km/h (3 Bft)
25.01.2021 14:06 0,4 C 0,6 C 88 % 1007,4 hPa 0,0 l/m 6,3 km/h (2 Bft) N-NW 347 0 min 0,6 UV-I 145 W/m -1,3 C 0,4 C 9,7 km/h (2 Bft)
25.01.2021 14:08 0,3 C 0,6 C 88 % 1007,6 hPa 0,0 l/m 11,8 km/h (2 Bft) N 360 0 min 0,5 UV-I 118 W/m -1,4 C -4,5 C 17,7 km/h (3 Bft)
25.01.2021 14:10 0,3 C 0,6 C 88 % 1007,5 hPa 0,0 l/m 9,4 km/h (2 Bft) W-NW 302 0 min 0,5 UV-I 117 W/m -1,4 C -2,6 C 14,5 km/h (3 Bft)
25.01.2021 14:12 0,3 C 0,6 C 88 % 1007,6 hPa 0,0 l/m 6,7 km/h (2 Bft) NW 321 0 min 0,5 UV-I 116 W/m -1,4 C 0,0 C 12,9 km/h (3 Bft)
25.01.2021 14:14 0,3 C 0,6 C 88 % 1007,5 hPa 0,0 l/m 5,5 km/h (1 Bft) N 360 0 min 0,5 UV-I 106 W/m -1,4 C 0,3 C 12,9 km/h (3 Bft)
25.01.2021 14:16 0,3 C 0,6 C 88 % 1007,6 hPa 0,0 l/m 5,3 km/h (1 Bft) N-NW 336 0 min 0,5 UV-I 104 W/m -1,4 C 0,3 C 8,0 km/h (2 Bft)
25.01.2021 14:18 0,3 C 0,6 C 88 % 1007,7 hPa 0,0 l/m 5,1 km/h (1 Bft) N-NW 343 0 min 0,5 UV-I 97 W/m -1,4 C 0,3 C 9,7 km/h (2 Bft)
25.01.2021 14:20 0,3 C 0,6 C 88 % 1007,8 hPa 0,0 l/m 5,2 km/h (1 Bft) N-NW 344 0 min 0,5 UV-I 92 W/m -1,4 C 0,3 C 8,0 km/h (2 Bft)
25.01.2021 14:22 0,3 C 0,6 C 88 % 1007,8 hPa 0,0 l/m 5,8 km/h (2 Bft) NW 312 0 min 0,5 UV-I 85 W/m -1,4 C 0,3 C 12,9 km/h (3 Bft)
25.01.2021 14:24 0,3 C 0,6 C 88 % 1007,8 hPa 0,0 l/m 5,5 km/h (1 Bft) N-NW 335 0 min 0,2 UV-I 82 W/m -1,4 C 0,3 C 14,5 km/h (3 Bft)
25.01.2021 14:26 0,2 C 0,6 C 88 % 1007,9 hPa 0,0 l/m 4,3 km/h (1 Bft) N-NW 348 0 min 0,0 UV-I 83 W/m -1,5 C 0,2 C 9,7 km/h (2 Bft)
25.01.2021 14:28 0,2 C 0,6 C 88 % 1007,8 hPa 0,0 l/m 4,2 km/h (1 Bft) N-NW 344 0 min 0,0 UV-I 90 W/m -1,5 C 0,2 C 8,0 km/h (2 Bft)
25.01.2021 14:30 0,2 C 0,6 C 88 % 1007,9 hPa 0,0 l/m 4,4 km/h (1 Bft) NW 325 0 min 0,0 UV-I 103 W/m -1,5 C 0,2 C 8,0 km/h (2 Bft)
25.01.2021 14:32 0,2 C 0,6 C 88 % 1007,9 hPa 0,0 l/m 5,8 km/h (2 Bft) N-NW 344 0 min 0,0 UV-I 107 W/m -1,5 C 0,2 C 11,3 km/h (2 Bft)
25.01.2021 14:34 0,2 C 0,6 C 88 % 1008,0 hPa 0,0 l/m 5,9 km/h (2 Bft) N 355 0 min 0,0 UV-I 98 W/m -1,5 C 0,2 C 12,9 km/h (3 Bft)
25.01.2021 14:36 0,2 C 0,6 C 88 % 1008,0 hPa 0,0 l/m 6,5 km/h (2 Bft) N-NW 327 0 min 0,0 UV-I 85 W/m -1,5 C 0,1 C 14,5 km/h (3 Bft)
25.01.2021 14:38 0,2 C 0,6 C 88 % 1008,1 hPa 0,0 l/m 5,8 km/h (2 Bft) N 360 0 min 0,0 UV-I 82 W/m -1,5 C 0,2 C 9,7 km/h (2 Bft)
25.01.2021 14:40 0,2 C 0,6 C 88 % 1008,0 hPa 0,0 l/m 8,2 km/h (2 Bft) N-NW 339 0 min 0,0 UV-I 80 W/m -1,5 C -1,6 C 12,9 km/h (3 Bft)
25.01.2021 14:42 0,1 C 0,0 C 88 % 1008,1 hPa 0,0 l/m 5,8 km/h (2 Bft) N-NW 333 0 min 0,0 UV-I 69 W/m -1,6 C 0,1 C 12,9 km/h (3 Bft)
25.01.2021 14:44 0,1 C 0,0 C 88 % 1008,2 hPa 0,0 l/m 3,6 km/h (1 Bft) N-NW 343 0 min 0,0 UV-I 71 W/m -1,6 C 0,1 C 6,4 km/h (2 Bft)
25.01.2021 14:46 0,1 C 0,0 C 89 % 1008,1 hPa 0,0 l/m 9,8 km/h (2 Bft) N-NW 334 0 min 0,0 UV-I 78 W/m -1,5 C -3,2 C 17,7 km/h (3 Bft)
25.01.2021 14:48 0,0 C 0,0 C 88 % 1008,3 hPa 0,0 l/m 6,7 km/h (2 Bft) N-NW 331 0 min 0,3 UV-I 88 W/m -1,7 C -0,3 C 12,9 km/h (3 Bft)
25.01.2021 14:50 -0,1 C 0,0 C 89 % 1008,2 hPa 0,0 l/m 9,8 km/h (2 Bft) N-NW 334 0 min 0,5 UV-I 90 W/m -1,7 C -3,4 C 17,7 km/h (3 Bft)
25.01.2021 14:52 -0,1 C 0,0 C 89 % 1008,3 hPa 0,0 l/m 8,8 km/h (2 Bft) NW 325 0 min 0,5 UV-I 78 W/m -1,7 C -2,5 C 17,7 km/h (3 Bft)
25.01.2021 14:54 -0,2 C 0,0 C 88 % 1008,4 hPa 0,0 l/m 11,3 km/h (2 Bft) NW 313 0 min 0,5 UV-I 76 W/m -1,9 C -4,7 C 16,1 km/h (3 Bft)
25.01.2021 14:56 -0,3 C 0,0 C 88 % 1008,4 hPa 0,0 l/m 9,2 km/h (2 Bft) NW 320 0 min 0,4 UV-I 71 W/m -2,0 C -3,1 C 16,1 km/h (3 Bft)
25.01.2021 14:58 -0,3 C 0,0 C 89 % 1008,4 hPa 0,0 l/m 7,5 km/h (2 Bft) NW 326 0 min 0,4 UV-I 75 W/m -1,9 C -1,5 C 14,5 km/h (3 Bft)
25.01.2021 15:00 -0,3 C 0,0 C 89 % 1008,6 hPa 0,0 l/m 7,8 km/h (2 Bft) N-NW 330 0 min 0,5 UV-I 94 W/m -1,9 C -1,8 C 14,5 km/h (3 Bft)
25.01.2021 15:02 -0,3 C 0,0 C 89 % 1008,6 hPa 0,0 l/m 8,6 km/h (2 Bft) NW 315 0 min 0,5 UV-I 107 W/m -1,9 C -2,5 C 14,5 km/h (3 Bft)
25.01.2021 15:04 -0,4 C 0,0 C 89 % 1008,7 hPa 0,0 l/m 6,6 km/h (2 Bft) NW 313 0 min 0,5 UV-I 138 W/m -2,0 C -0,6 C 14,5 km/h (3 Bft)
25.01.2021 15:06 -0,3 C 0,0 C 89 % 1008,8 hPa 0,0 l/m 10,6 km/h (2 Bft) W 281 0 min 0,5 UV-I 131 W/m -1,9 C -4,3 C 22,5 km/h (4 Bft)
25.01.2021 15:08 -0,3 C 0,0 C 89 % 1008,8 hPa 0,0 l/m 6,6 km/h (2 Bft) W-NW 302 0 min 0,5 UV-I 116 W/m -1,9 C -0,5 C 14,5 km/h (3 Bft)
25.01.2021 15:10 -0,3 C 0,0 C 89 % 1008,8 hPa 0,0 l/m 7,7 km/h (2 Bft) N-NW 334 0 min 0,5 UV-I 115 W/m -1,9 C -1,7 C 17,7 km/h (3 Bft)
25.01.2021 15:12 -0,3 C 0,0 C 89 % 1008,9 hPa 0,0 l/m 6,0 km/h (2 Bft) W-NW 287 0 min 0,5 UV-I 125 W/m -1,9 C -0,3 C 14,5 km/h (3 Bft)
25.01.2021 15:14 -0,3 C 0,0 C 88 % 1008,8 hPa 0,0 l/m 3,3 km/h (1 Bft) NW 319 0 min 0,5 UV-I 117 W/m -2,0 C -0,3 C 8,0 km/h (2 Bft)
25.01.2021 15:16 -0,3 C 0,0 C 88 % 1008,8 hPa 0,0 l/m 7,8 km/h (2 Bft) NW 320 0 min 0,5 UV-I 116 W/m -2,0 C -1,8 C 12,9 km/h (3 Bft)
25.01.2021 15:18 -0,3 C 0,0 C 88 % 1008,8 hPa 0,0 l/m 6,4 km/h (2 Bft) W-NW 282 0 min 0,5 UV-I 124 W/m -2,0 C -0,3 C 16,1 km/h (3 Bft)
25.01.2021 15:20 -0,3 C 0,0 C 88 % 1008,9 hPa 0,0 l/m 6,5 km/h (2 Bft) W 259 0 min 0,5 UV-I 123 W/m -2,0 C -0,4 C 12,9 km/h (3 Bft)
25.01.2021 15:22 -0,3 C 0,0 C 88 % 1008,9 hPa 0,0 l/m 6,1 km/h (2 Bft) W 278 0 min 0,5 UV-I 127 W/m -2,0 C -0,3 C 16,1 km/h (3 Bft)
25.01.2021 15:24 -0,2 C 0,0 C 88 % 1008,9 hPa 0,0 l/m 5,4 km/h (1 Bft) W 265 0 min 0,5 UV-I 113 W/m -1,9 C -0,2 C 12,9 km/h (3 Bft)
25.01.2021 15:26 -0,2 C 0,0 C 88 % 1008,9 hPa 0,0 l/m 6,0 km/h (2 Bft) NW 325 0 min 0,1 UV-I 92 W/m -1,9 C -0,2 C 14,5 km/h (3 Bft)
25.01.2021 15:28 -0,2 C 0,0 C 87 % 1008,9 hPa 0,0 l/m 7,1 km/h (2 Bft) N 349 0 min 0,0 UV-I 90 W/m -2,1 C -0,9 C 16,1 km/h (3 Bft)
25.01.2021 15:30 -0,3 C 0,0 C 87 % 1008,8 hPa 0,0 l/m 10,0 km/h (2 Bft) W-NW 292 0 min 0,0 UV-I 95 W/m -2,2 C -3,8 C 20,9 km/h (4 Bft)
25.01.2021 15:32 -0,3 C 0,0 C 87 % 1008,9 hPa 0,0 l/m 5,3 km/h (1 Bft) W-NW 303 0 min 0,0 UV-I 95 W/m -2,2 C -0,3 C 12,9 km/h (3 Bft)
25.01.2021 15:34 -0,3 C 0,0 C 87 % 1008,9 hPa 0,0 l/m 11,6 km/h (2 Bft) N-NW 332 0 min 0,0 UV-I 87 W/m -2,2 C -5,1 C 19,3 km/h (3 Bft)
25.01.2021 15:36 -0,3 C 0,0 C 86 % 1009,0 hPa 0,0 l/m 10,7 km/h (2 Bft) W-NW 282 0 min 0,4 UV-I 86 W/m -2,3 C -4,4 C 17,7 km/h (3 Bft)
25.01.2021 15:38 -0,4 C -0,6 C 86 % 1009,0 hPa 0,0 l/m 7,8 km/h (2 Bft) NW 313 0 min 0,0 UV-I 63 W/m -2,4 C -1,9 C 14,5 km/h (3 Bft)
25.01.2021 15:40 -0,5 C 0,0 C 86 % 1009,1 hPa 0,0 l/m 6,3 km/h (2 Bft) W-NW 300 0 min 0,0 UV-I 69 W/m -2,5 C -0,5 C 9,7 km/h (2 Bft)
25.01.2021 15:42 -0,7 C 0,0 C 85 % 1009,0 hPa 0,0 l/m 5,0 km/h (1 Bft) NW 317 0 min 0,5 UV-I 168 W/m -2,9 C -0,7 C 11,3 km/h (2 Bft)
25.01.2021 15:44 -0,8 C 0,6 C 85 % 1009,0 hPa 0,0 l/m 0,9 km/h (0 Bft) NW 321 0 min 0,5 UV-I 182 W/m -3,0 C -0,8 C 3,2 km/h (1 Bft)
25.01.2021 15:46 -0,8 C 0,6 C 86 % 1009,2 hPa 0,0 l/m 4,8 km/h (1 Bft) NW 304 0 min 0,5 UV-I 180 W/m -2,8 C -0,8 C 11,3 km/h (2 Bft)
25.01.2021 15:48 -0,8 C 1,1 C 86 % 1009,2 hPa 0,0 l/m 3,0 km/h (1 Bft) NW 315 0 min 0,2 UV-I 135 W/m -2,8 C -0,8 C 6,4 km/h (2 Bft)
25.01.2021 15:50 -0,8 C 1,1 C 86 % 1009,2 hPa 0,0 l/m 3,6 km/h (1 Bft) N 355 0 min 0,0 UV-I 128 W/m -2,8 C -0,8 C 8,0 km/h (2 Bft)
25.01.2021 15:52 -0,8 C 0,6 C 86 % 1009,2 hPa 0,0 l/m 1,6 km/h (1 Bft) N 355 0 min 0,0 UV-I 142 W/m -2,8 C -0,8 C 4,8 km/h (1 Bft)
25.01.2021 15:54 -0,8 C 0,6 C 86 % 1009,4 hPa 0,0 l/m 1,9 km/h (1 Bft) N 355 0 min 0,0 UV-I 130 W/m -2,8 C -0,8 C 3,2 km/h (1 Bft)
25.01.2021 15:56 -0,9 C 0,0 C 86 % 1009,4 hPa 0,0 l/m 1,4 km/h (1 Bft) N 355 0 min 0,0 UV-I 109 W/m -2,9 C -0,9 C 3,2 km/h (1 Bft)
25.01.2021 15:58 -0,9 C 0,0 C 86 % 1009,5 hPa 0,0 l/m 2,8 km/h (1 Bft) W-NW 293 0 min 0,0 UV-I 76 W/m -2,9 C -0,9 C 4,8 km/h (1 Bft)
25.01.2021 16:00 -0,9 C 0,0 C 86 % 1009,5 hPa 0,0 l/m 2,7 km/h (1 Bft) W-NW 293 0 min 0,0 UV-I 65 W/m -2,9 C -0,9 C 4,8 km/h (1 Bft)
25.01.2021 16:02 -0,8 C -0,6 C 86 % 1009,7 hPa 0,0 l/m 3,0 km/h (1 Bft) W 270 0 min 0,0 UV-I 72 W/m -2,8 C -0,8 C 4,8 km/h (1 Bft)
25.01.2021 16:04 -0,8 C -0,6 C 86 % 1009,7 hPa 0,0 l/m 1,8 km/h (1 Bft) W 281 0 min 0,0 UV-I 74 W/m -2,8 C -0,8 C 4,8 km/h (1 Bft)
25.01.2021 16:06 -0,7 C 0,0 C 87 % 1009,7 hPa 0,0 l/m 5,3 km/h (1 Bft) NW 322 0 min 0,0 UV-I 72 W/m -2,6 C -0,7 C 14,5 km/h (3 Bft)
25.01.2021 16:08 -0,7 C -0,6 C 87 % 1009,8 hPa 0,0 l/m 10,5 km/h (2 Bft) W-NW 303 0 min 0,0 UV-I 64 W/m -2,6 C -4,6 C 19,3 km/h (3 Bft)
25.01.2021 16:10 -0,7 C -0,6 C 87 % 1009,8 hPa 0,0 l/m 8,8 km/h (2 Bft) W-NW 301 0 min 0,0 UV-I 57 W/m -2,6 C -3,2 C 16,1 km/h (3 Bft)
25.01.2021 16:12 -0,7 C -0,6 C 87 % 1009,9 hPa 0,0 l/m 7,8 km/h (2 Bft) W-NW 294 0 min 0,0 UV-I 44 W/m -2,6 C -2,2 C 14,5 km/h (3 Bft)
25.01.2021 16:14 -0,7 C -0,6 C 87 % 1009,9 hPa 0,0 l/m 8,1 km/h (2 Bft) W-NW 296 0 min 0,0 UV-I 41 W/m -2,6 C -2,5 C 14,5 km/h (3 Bft)
25.01.2021 16:16 -0,8 C -0,6 C 87 % 1010,0 hPa 0,0 l/m 5,1 km/h (1 Bft) NW 306 0 min 0,0 UV-I 41 W/m -2,7 C -0,8 C 14,5 km/h (3 Bft)
25.01.2021 16:18 -0,8 C -0,6 C 87 % 1010,0 hPa 0,0 l/m 3,3 km/h (1 Bft) W-NW 296 0 min 0,0 UV-I 41 W/m -2,7 C -0,8 C 6,4 km/h (2 Bft)
25.01.2021 16:20 -0,8 C -0,6 C 87 % 1010,0 hPa 0,0 l/m 1,0 km/h (0 Bft) W-NW 296 0 min 0,0 UV-I 46 W/m -2,7 C -0,8 C 3,2 km/h (1 Bft)
25.01.2021 16:22 -0,8 C -0,6 C 87 % 1010,1 hPa 0,0 l/m 1,6 km/h (1 Bft) W-NW 288 0 min 0,0 UV-I 66 W/m -2,7 C -0,8 C 3,2 km/h (1 Bft)
25.01.2021 16:24 -0,8 C -0,6 C 87 % 1010,0 hPa 0,0 l/m 5,3 km/h (1 Bft) W-SW 237 0 min 0,0 UV-I 70 W/m -2,7 C -0,8 C 8,0 km/h (2 Bft)
25.01.2021 16:26 -0,8 C -1,1 C 87 % 1010,0 hPa 0,0 l/m 8,3 km/h (2 Bft) NW 305 0 min 0,0 UV-I 58 W/m -2,7 C -2,8 C 14,5 km/h (3 Bft)
25.01.2021 16:28 -0,9 C -1,1 C 86 % 1010,1 hPa 0,0 l/m 6,1 km/h (2 Bft) W-NW 286 0 min 0,0 UV-I 50 W/m -2,9 C -0,9 C 12,9 km/h (3 Bft)
25.01.2021 16:30 -0,9 C -1,1 C 86 % 1010,0 hPa 0,0 l/m 4,9 km/h (1 Bft) W-NW 300 0 min 0,0 UV-I 29 W/m -2,9 C -0,9 C 9,7 km/h (2 Bft)
25.01.2021 16:32 -1,0 C -1,1 C 86 % 1010,1 hPa 0,0 l/m 5,5 km/h (1 Bft) W-SW 241 0 min 0,0 UV-I 33 W/m -3,0 C -1,0 C 12,9 km/h (3 Bft)
25.01.2021 16:34 -1,1 C -1,1 C 86 % 1010,2 hPa 0,0 l/m 3,2 km/h (1 Bft) SW 221 0 min 0,0 UV-I 24 W/m -3,1 C -1,1 C 6,4 km/h (2 Bft)
25.01.2021 16:36 -1,2 C -1,7 C 86 % 1010,3 hPa 0,0 l/m 3,1 km/h (1 Bft) W-SW 240 0 min 0,0 UV-I 26 W/m -3,2 C -1,2 C 6,4 km/h (2 Bft)
25.01.2021 16:38 -1,2 C -1,7 C 86 % 1010,3 hPa 0,0 l/m 3,6 km/h (1 Bft) W 261 0 min 0,0 UV-I 26 W/m -3,2 C -1,2 C 6,4 km/h (2 Bft)
25.01.2021 16:40 -1,2 C -1,1 C 86 % 1010,4 hPa 0,0 l/m 2,4 km/h (1 Bft) W 261 0 min 0,0 UV-I 28 W/m -3,2 C -1,2 C 4,8 km/h (1 Bft)
25.01.2021 16:42 -1,3 C -1,7 C 86 % 1010,5 hPa 0,0 l/m 4,1 km/h (1 Bft) W-SW 258 0 min 0,0 UV-I 32 W/m -3,3 C -1,3 C 9,7 km/h (2 Bft)
25.01.2021 16:44 -1,3 C -1,7 C 86 % 1010,5 hPa 0,0 l/m 4,9 km/h (1 Bft) W-SW 254 0 min 0,0 UV-I 19 W/m -3,3 C -1,3 C 6,4 km/h (2 Bft)
25.01.2021 16:46 -1,4 C -1,7 C 86 % 1010,6 hPa 0,0 l/m 1,9 km/h (1 Bft) W-SW 242 0 min 0,0 UV-I 16 W/m -3,4 C -1,4 C 4,8 km/h (1 Bft)
25.01.2021 16:48 -1,4 C -1,7 C 86 % 1010,6 hPa 0,0 l/m 3,7 km/h (1 Bft) W-SW 250 0 min 0,0 UV-I 14 W/m -3,4 C -1,4 C 8,0 km/h (2 Bft)
25.01.2021 16:50 -1,5 C -2,2 C 86 % 1010,7 hPa 0,0 l/m 5,9 km/h (2 Bft) W 260 0 min 0,0 UV-I 16 W/m -3,5 C -1,5 C 11,3 km/h (2 Bft)
25.01.2021 16:52 -1,6 C -2,2 C 86 % 1010,6 hPa 0,0 l/m 8,1 km/h (2 Bft) W 268 0 min 0,0 UV-I 18 W/m -3,6 C -3,4 C 12,9 km/h (3 Bft)
25.01.2021 16:54 -1,6 C -1,7 C 87 % 1010,8 hPa 0,0 l/m 4,6 km/h (1 Bft) W-SW 254 0 min 0,0 UV-I 16 W/m -3,5 C -1,6 C 6,4 km/h (2 Bft)
25.01.2021 16:56 -1,7 C -1,7 C 87 % 1010,7 hPa 0,0 l/m 4,2 km/h (1 Bft) W-SW 240 0 min 0,0 UV-I 20 W/m -3,6 C -1,7 C 6,4 km/h (2 Bft)
25.01.2021 16:58 -1,7 C -2,2 C 87 % 1010,7 hPa 0,0 l/m 9,8 km/h (2 Bft) W 281 0 min 0,0 UV-I 23 W/m -3,6 C -5,2 C 16,1 km/h (3 Bft)
25.01.2021 17:00 -1,8 C -1,7 C 87 % 1010,8 hPa 0,0 l/m 6,5 km/h (2 Bft) W 259 0 min 0,0 UV-I 18 W/m -3,7 C -1,9 C 11,3 km/h (2 Bft)
25.01.2021 17:02 -1,8 C -2,2 C 87 % 1011,0 hPa 0,0 l/m 7,0 km/h (2 Bft) W 267 0 min 0,0 UV-I 14 W/m -3,7 C -2,5 C 14,5 km/h (3 Bft)
25.01.2021 17:04 -1,9 C -2,2 C 87 % 1011,0 hPa 0,0 l/m 7,5 km/h (2 Bft) W-SW 242 0 min 0,0 UV-I 13 W/m -3,8 C -3,1 C 11,3 km/h (2 Bft)
25.01.2021 17:06 -1,9 C -2,8 C 88 % 1011,0 hPa 0,0 l/m 7,4 km/h (2 Bft) W-SW 240 0 min 0,0 UV-I 11 W/m -3,6 C -3,0 C 12,9 km/h (3 Bft)
25.01.2021 17:08 -2,0 C -2,8 C 88 % 1011,0 hPa 0,0 l/m 5,4 km/h (1 Bft) W-SW 257 0 min 0,0 UV-I 8 W/m -3,7 C -2,0 C 11,3 km/h (2 Bft)
25.01.2021 17:10 -2,1 C -2,8 C 88 % 1011,0 hPa 0,0 l/m 6,8 km/h (2 Bft) W 281 0 min 0,0 UV-I 7 W/m -3,8 C -2,5 C 12,9 km/h (3 Bft)
25.01.2021 17:12 -2,1 C -2,8 C 88 % 1011,0 hPa 0,0 l/m 8,5 km/h (2 Bft) W 269 0 min 0,0 UV-I 6 W/m -3,8 C -4,4 C 12,9 km/h (3 Bft)
25.01.2021 17:14 -2,2 C -2,8 C 88 % 1011,1 hPa 0,0 l/m 9,4 km/h (2 Bft) W-SW 242 0 min 0,0 UV-I 5 W/m -3,9 C -5,3 C 14,5 km/h (3 Bft)
25.01.2021 17:16 -2,2 C -2,8 C 88 % 1011,1 hPa 0,0 l/m 8,1 km/h (2 Bft) W-NW 297 0 min 0,0 UV-I 5 W/m -3,9 C -4,1 C 12,9 km/h (3 Bft)
25.01.2021 17:18 -2,3 C -3,3 C 88 % 1011,2 hPa 0,0 l/m 9,4 km/h (2 Bft) W 260 0 min 0,0 UV-I 5 W/m -4,0 C -5,4 C 14,5 km/h (3 Bft)
25.01.2021 17:20 -2,4 C -3,3 C 88 % 1011,3 hPa 0,0 l/m 9,3 km/h (2 Bft) W-SW 250 0 min 0,0 UV-I 0 W/m -4,1 C -5,5 C 14,5 km/h (3 Bft)
25.01.2021 17:22 -2,4 C -3,3 C 88 % 1011,3 hPa 0,0 l/m 9,0 km/h (2 Bft) W-SW 258 0 min 0,0 UV-I 0 W/m -4,1 C -5,2 C 14,5 km/h (3 Bft)
25.01.2021 17:24 -2,5 C -3,3 C 88 % 1011,3 hPa 0,0 l/m 9,8 km/h (2 Bft) W 261 0 min 0,0 UV-I 0 W/m -4,2 C -6,0 C 12,9 km/h (3 Bft)
25.01.2021 17:26 -2,6 C -3,3 C 88 % 1011,3 hPa 0,0 l/m 8,0 km/h (2 Bft) W-SW 250 0 min 0,0 UV-I 0 W/m -4,3 C -4,4 C 12,9 km/h (3 Bft)
25.01.2021 17:28 -2,7 C -3,3 C 88 % 1011,4 hPa 0,0 l/m 11,1 km/h (2 Bft) W 265 0 min 0,0 UV-I 0 W/m -4,4 C -7,4 C 14,5 km/h (3 Bft)
25.01.2021 17:30 -2,7 C -3,3 C 88 % 1011,5 hPa 0,0 l/m 9,4 km/h (2 Bft) W 260 0 min 0,0 UV-I 0 W/m -4,4 C -5,9 C 12,9 km/h (3 Bft)
25.01.2021 17:32 -2,8 C -3,3 C 88 % 1011,4 hPa 0,0 l/m 9,3 km/h (2 Bft) SW 236 0 min 0,0 UV-I 0 W/m -4,5 C -5,9 C 12,9 km/h (3 Bft)
25.01.2021 17:34 -2,8 C -3,3 C 89 % 1011,3 hPa 0,0 l/m 6,2 km/h (2 Bft) W-SW 249 0 min 0,0 UV-I 0 W/m -4,4 C -2,8 C 9,7 km/h (2 Bft)
25.01.2021 17:36 -2,8 C -3,9 C 88 % 1011,5 hPa 0,0 l/m 6,5 km/h (2 Bft) SW 229 0 min 0,0 UV-I 0 W/m -4,5 C -2,9 C 11,3 km/h (2 Bft)
25.01.2021 17:38 -2,9 C -3,9 C 88 % 1011,5 hPa 0,0 l/m 7,5 km/h (2 Bft) W-SW 253 0 min 0,0 UV-I 0 W/m -4,6 C -4,1 C 11,3 km/h (2 Bft)
25.01.2021 17:40 -3,0 C -3,9 C 88 % 1011,5 hPa 0,0 l/m 9,6 km/h (2 Bft) W-SW 254 0 min 0,0 UV-I 0 W/m -4,7 C -6,4 C 12,9 km/h (3 Bft)
25.01.2021 17:42 -3,1 C -3,9 C 89 % 1011,6 hPa 0,0 l/m 8,0 km/h (2 Bft) W-SW 247 0 min 0,0 UV-I 0 W/m -4,6 C -4,9 C 11,3 km/h (2 Bft)
25.01.2021 17:44 -3,1 C -3,9 C 89 % 1011,6 hPa 0,0 l/m 7,0 km/h (2 Bft) W-SW 249 0 min 0,0 UV-I 0 W/m -4,6 C -3,8 C 11,3 km/h (2 Bft)
25.01.2021 17:46 -3,1 C -3,9 C 89 % 1011,5 hPa 0,0 l/m 5,0 km/h (1 Bft) W-SW 244 0 min 0,0 UV-I 0 W/m -4,6 C -3,1 C 11,3 km/h (2 Bft)
25.01.2021 17:48 -3,2 C -3,9 C 89 % 1011,5 hPa 0,0 l/m 3,5 km/h (1 Bft) W-SW 244 0 min 0,0 UV-I 0 W/m -4,7 C -3,2 C 4,8 km/h (1 Bft)
25.01.2021 17:50 -3,2 C -3,3 C 89 % 1011,6 hPa 0,0 l/m 4,4 km/h (1 Bft) W-SW 250 0 min 0,0 UV-I 0 W/m -4,7 C -3,2 C 6,4 km/h (2 Bft)
25.01.2021 17:52 -3,2 C -3,9 C 89 % 1011,8 hPa 0,0 l/m 3,4 km/h (1 Bft) W-SW 250 0 min 0,0 UV-I 0 W/m -4,7 C -3,2 C 6,4 km/h (2 Bft)
25.01.2021 17:54 -3,3 C -3,9 C 89 % 1011,8 hPa 0,0 l/m 1,4 km/h (1 Bft) W-SW 250 0 min 0,0 UV-I 0 W/m -4,8 C -3,3 C 3,2 km/h (1 Bft)
25.01.2021 17:56 -3,3 C -3,9 C 89 % 1011,9 hPa 0,0 l/m 0,0 km/h (0 Bft) W-SW 250 0 min 0,0 UV-I 0 W/m -4,8 C -3,3 C 0,0 km/h (0 Bft)
25.01.2021 17:58 -3,3 C -3,9 C 89 % 1011,9 hPa 0,0 l/m 0,0 km/h (0 Bft) W-SW 250 0 min 0,0 UV-I 0 W/m -4,8 C -3,3 C 0,0 km/h (0 Bft)
25.01.2021 18:00 -3,4 C -3,3 C 89 % 1012,0 hPa 0,0 l/m 0,7 km/h (0 Bft) W-SW 250 0 min 0,0 UV-I 0 W/m -4,9 C -3,4 C 3,2 km/h (1 Bft)
25.01.2021 18:02 -3,4 C -3,3 C 89 % 1012,0 hPa 0,0 l/m 0,6 km/h (0 Bft) W-SW 250 0 min 0,0 UV-I 0 W/m -4,9 C -3,4 C 3,2 km/h (1 Bft)
25.01.2021 18:04 -3,5 C -3,9 C 89 % 1012,0 hPa 0,0 l/m 0,0 km/h (0 Bft) W-SW 250 0 min 0,0 UV-I 0 W/m -5,0 C -3,5 C 0,0 km/h (0 Bft)
25.01.2021 18:06 -3,6 C -3,9 C 88 % 1012,0 hPa 0,0 l/m 1,6 km/h (1 Bft) W-SW 257 0 min 0,0 UV-I 0 W/m -5,3 C -3,6 C 6,4 km/h (2 Bft)
25.01.2021 18:08 -3,7 C -3,9 C 88 % 1012,0 hPa 0,0 l/m 0,5 km/h (0 Bft) W-SW 257 0 min 0,0 UV-I 0 W/m -5,4 C -3,7 C 3,2 km/h (1 Bft)
25.01.2021 18:10 -3,7 C -3,9 C 88 % 1012,1 hPa 0,0 l/m 1,1 km/h (1 Bft) W-SW 256 0 min 0,0 UV-I 0 W/m -5,4 C -3,7 C 4,8 km/h (1 Bft)
25.01.2021 18:12 -3,8 C -3,9 C 88 % 1012,1 hPa 0,0 l/m 2,4 km/h (1 Bft) W 260 0 min 0,0 UV-I 0 W/m -5,5 C -3,8 C 4,8 km/h (1 Bft)
25.01.2021 18:14 -3,9 C -3,9 C 88 % 1012,1 hPa 0,0 l/m 1,1 km/h (1 Bft) W 260 0 min 0,0 UV-I 0 W/m -5,6 C -3,9 C 3,2 km/h (1 Bft)
25.01.2021 18:16 -3,9 C -3,9 C 88 % 1012,2 hPa 0,0 l/m 3,1 km/h (1 Bft) SW 234 0 min 0,0 UV-I 0 W/m -5,6 C -3,9 C 8,0 km/h (2 Bft)
25.01.2021 18:18 -4,1 C -4,4 C 88 % 1012,1 hPa 0,0 l/m 4,3 km/h (1 Bft) W-SW 258 0 min 0,0 UV-I 0 W/m -5,8 C -4,1 C 11,3 km/h (2 Bft)
25.01.2021 18:20 -4,1 C -4,4 C 88 % 1012,2 hPa 0,0 l/m 4,8 km/h (1 Bft) W-SW 240 0 min 0,0 UV-I 0 W/m -5,8 C -4,1 C 6,4 km/h (2 Bft)
25.01.2021 18:22 -4,2 C -4,4 C 88 % 1012,3 hPa 0,0 l/m 4,7 km/h (1 Bft) W-SW 243 0 min 0,0 UV-I 0 W/m -5,9 C -4,2 C 6,4 km/h (2 Bft)
25.01.2021 18:24 -4,3 C -4,4 C 88 % 1012,2 hPa 0,0 l/m 4,4 km/h (1 Bft) SW 230 0 min 0,0 UV-I 0 W/m -6,0 C -4,3 C 6,4 km/h (2 Bft)
25.01.2021 18:26 -4,3 C -5,0 C 88 % 1012,3 hPa 0,0 l/m 2,1 km/h (1 Bft) SW 230 0 min 0,0 UV-I 0 W/m -6,0 C -4,3 C 3,2 km/h (1 Bft)
25.01.2021 18:28 -4,4 C -4,4 C 88 % 1012,3 hPa 0,0 l/m 4,2 km/h (1 Bft) W-SW 239 0 min 0,0 UV-I 0 W/m -6,1 C -4,4 C 9,7 km/h (2 Bft)
25.01.2021 18:30 -4,4 C -4,4 C 88 % 1012,4 hPa 0,0 l/m 6,7 km/h (2 Bft) W-SW 237 0 min 0,0 UV-I 0 W/m -6,1 C -4,7 C 11,3 km/h (2 Bft)
25.01.2021 18:32 -4,5 C -4,4 C 89 % 1012,4 hPa 0,0 l/m 5,9 km/h (2 Bft) W-SW 251 0 min 0,0 UV-I 0 W/m -6,0 C -4,5 C 11,3 km/h (2 Bft)
25.01.2021 18:34 -4,5 C -5,0 C 89 % 1012,4 hPa 0,0 l/m 5,8 km/h (2 Bft) W-SW 244 0 min 0,0 UV-I 0 W/m -6,0 C -4,5 C 9,7 km/h (2 Bft)
25.01.2021 18:36 -4,6 C -4,4 C 89 % 1012,5 hPa 0,0 l/m 7,0 km/h (2 Bft) W-SW 240 0 min 0,0 UV-I 0 W/m -6,1 C -5,3 C 11,3 km/h (2 Bft)
25.01.2021 18:38 -4,6 C -5,0 C 90 % 1012,6 hPa 0,0 l/m 7,8 km/h (2 Bft) W-SW 250 0 min 0,0 UV-I 0 W/m -6,0 C -6,3 C 12,9 km/h (3 Bft)
25.01.2021 18:40 -4,6 C -5,0 C 90 % 1012,6 hPa 0,0 l/m 6,6 km/h (2 Bft) W-SW 249 0 min 0,0 UV-I 0 W/m -6,0 C -4,8 C 11,3 km/h (2 Bft)
25.01.2021 18:42 -4,5 C -5,0 C 90 % 1012,5 hPa 0,0 l/m 5,3 km/h (1 Bft) W-SW 247 0 min 0,0 UV-I 0 W/m -5,9 C -4,5 C 6,4 km/h (2 Bft)
25.01.2021 18:44 -4,5 C -4,4 C 90 % 1012,6 hPa 0,0 l/m 5,6 km/h (1 Bft) W 266 0 min 0,0 UV-I 0 W/m -5,9 C -4,5 C 9,7 km/h (2 Bft)
25.01.2021 18:46 -4,4 C -4,4 C 90 % 1012,6 hPa 0,0 l/m 4,7 km/h (1 Bft) W-SW 252 0 min 0,0 UV-I 0 W/m -5,8 C -4,4 C 6,4 km/h (2 Bft)
25.01.2021 18:48 -4,4 C -5,0 C 91 % 1012,6 hPa 0,0 l/m 5,7 km/h (1 Bft) W-SW 238 0 min 0,0 UV-I 0 W/m -5,6 C -4,4 C 11,3 km/h (2 Bft)
25.01.2021 18:50 -4,4 C -4,4 C 91 % 1012,7 hPa 0,0 l/m 6,1 km/h (2 Bft) SW 225 0 min 0,0 UV-I 0 W/m -5,6 C -4,4 C 8,0 km/h (2 Bft)
25.01.2021 18:52 -4,4 C -4,4 C 91 % 1012,6 hPa 0,0 l/m 4,6 km/h (1 Bft) SW 227 0 min 0,0 UV-I 0 W/m -5,6 C -4,4 C 8,0 km/h (2 Bft)
25.01.2021 18:54 -4,4 C -4,4 C 91 % 1012,7 hPa 0,0 l/m 3,5 km/h (1 Bft) SW 227 0 min 0,0 UV-I 0 W/m -5,6 C -4,4 C 4,8 km/h (1 Bft)
25.01.2021 18:56 -4,4 C -4,4 C 91 % 1012,7 hPa 0,0 l/m 4,6 km/h (1 Bft) SW 227 0 min 0,0 UV-I 0 W/m -5,6 C -4,4 C 8,0 km/h (2 Bft)
25.01.2021 18:58 -4,5 C -4,4 C 91 % 1012,9 hPa 0,0 l/m 4,2 km/h (1 Bft) W-SW 243 0 min 0,0 UV-I 0 W/m -5,7 C -4,5 C 8,0 km/h (2 Bft)
25.01.2021 19:00 -4,5 C -4,4 C 91 % 1012,9 hPa 0,0 l/m 3,9 km/h (1 Bft) SW 229 0 min 0,0 UV-I 0 W/m -5,7 C -4,5 C 6,4 km/h (2 Bft)
25.01.2021 19:02 -4,5 C -4,4 C 91 % 1012,8 hPa 0,0 l/m 4,8 km/h (1 Bft) W-SW 240 0 min 0,0 UV-I 0 W/m -5,7 C -4,5 C 6,4 km/h (2 Bft)
25.01.2021 19:04 -4,4 C -4,4 C 91 % 1012,8 hPa 0,0 l/m 4,9 km/h (1 Bft) W-SW 247 0 min 0,0 UV-I 0 W/m -5,6 C -4,4 C 8,0 km/h (2 Bft)
25.01.2021 19:06 -4,4 C -4,4 C 91 % 1012,8 hPa 0,0 l/m 5,5 km/h (1 Bft) W-SW 255 0 min 0,0 UV-I 0 W/m -5,6 C -4,4 C 11,3 km/h (2 Bft)
25.01.2021 19:08 -4,4 C -4,4 C 91 % 1012,9 hPa 0,0 l/m 5,6 km/h (1 Bft) W-SW 238 0 min 0,0 UV-I 0 W/m -5,6 C -4,4 C 9,7 km/h (2 Bft)
25.01.2021 19:10 -4,4 C -3,9 C 91 % 1012,9 hPa 0,0 l/m 6,0 km/h (2 Bft) W-SW 244 0 min 0,0 UV-I 0 W/m -5,6 C -4,4 C 9,7 km/h (2 Bft)
25.01.2021 19:12 -4,4 C -3,9 C 92 % 1013,0 hPa 0,0 l/m 4,6 km/h (1 Bft) SW 234 0 min 0,0 UV-I 0 W/m -5,5 C -4,4 C 6,4 km/h (2 Bft)
25.01.2021 19:14 -4,4 C -3,9 C 92 % 1012,9 hPa 0,0 l/m 4,6 km/h (1 Bft) SW 224 0 min 0,0 UV-I 0 W/m -5,5 C -4,4 C 8,0 km/h (2 Bft)
25.01.2021 19:16 -4,3 C -3,9 C 92 % 1013,1 hPa 0,0 l/m 4,8 km/h (1 Bft) W-SW 244 0 min 0,0 UV-I 0 W/m -5,4 C -4,3 C 8,0 km/h (2 Bft)
25.01.2021 19:18 -4,3 C -3,9 C 92 % 1013,1 hPa 0,0 l/m 6,0 km/h (2 Bft) SW 229 0 min 0,0 UV-I 0 W/m -5,4 C -4,3 C 9,7 km/h (2 Bft)
25.01.2021 19:20 -4,3 C -3,9 C 92 % 1013,1 hPa 0,0 l/m 5,9 km/h (2 Bft) SW 233 0 min 0,0 UV-I 0 W/m -5,4 C -4,3 C 9,7 km/h (2 Bft)
25.01.2021 19:22 -4,3 C -4,4 C 92 % 1013,2 hPa 0,0 l/m 5,1 km/h (1 Bft) SW 224 0 min 0,0 UV-I 0 W/m -5,4 C -4,3 C 9,7 km/h (2 Bft)
25.01.2021 19:24 -4,3 C -4,4 C 92 % 1013,3 hPa 0,0 l/m 3,8 km/h (1 Bft) W-SW 256 0 min 0,0 UV-I 0 W/m -5,4 C -4,3 C 6,4 km/h (2 Bft)
25.01.2021 19:26 -4,3 C -3,9 C 92 % 1013,3 hPa 0,0 l/m 4,8 km/h (1 Bft) SW 222 0 min 0,0 UV-I 0 W/m -5,4 C -4,3 C 9,7 km/h (2 Bft)
25.01.2021 19:28 -4,3 C -3,9 C 92 % 1013,3 hPa 0,0 l/m 5,8 km/h (2 Bft) W-SW 241 0 min 0,0 UV-I 0 W/m -5,4 C -4,3 C 8,0 km/h (2 Bft)
25.01.2021 19:30 -4,3 C -4,4 C 92 % 1013,3 hPa 0,0 l/m 5,5 km/h (1 Bft) W-SW 242 0 min 0,0 UV-I 0 W/m -5,4 C -4,3 C 11,3 km/h (2 Bft)
25.01.2021 19:32 -4,3 C -4,4 C 92 % 1013,4 hPa 0,0 l/m 6,8 km/h (2 Bft) SW 236 0 min 0,0 UV-I 0 W/m -5,4 C -4,8 C 11,3 km/h (2 Bft)
25.01.2021 19:34 -4,3 C -4,4 C 92 % 1013,3 hPa 0,0 l/m 7,1 km/h (2 Bft) SW 235 0 min 0,0 UV-I 0 W/m -5,4 C -5,1 C 14,5 km/h (3 Bft)
25.01.2021 19:36 -4,2 C -4,4 C 92 % 1013,3 hPa 0,0 l/m 6,4 km/h (2 Bft) W-SW 241 0 min 0,0 UV-I 0 W/m -5,3 C -4,1 C 11,3 km/h (2 Bft)
25.01.2021 19:38 -4,2 C -4,4 C 92 % 1013,3 hPa 0,0 l/m 6,3 km/h (2 Bft) W 259 0 min 0,0 UV-I 0 W/m -5,3 C -4,2 C 9,7 km/h (2 Bft)
25.01.2021 19:40 -4,2 C -4,4 C 92 % 1013,4 hPa 0,0 l/m 5,6 km/h (1 Bft) W-SW 240 0 min 0,0 UV-I 0 W/m -5,3 C -4,2 C 8,0 km/h (2 Bft)
25.01.2021 19:42 -4,2 C -4,4 C 92 % 1013,5 hPa 0,0 l/m 5,0 km/h (1 Bft) W-SW 240 0 min 0,0 UV-I 0 W/m -5,3 C -4,2 C 9,7 km/h (2 Bft)
25.01.2021 19:44 -4,2 C -4,4 C 92 % 1013,5 hPa 0,0 l/m 4,8 km/h (1 Bft) SW 219 0 min 0,0 UV-I 0 W/m -5,3 C -4,2 C 8,0 km/h (2 Bft)
25.01.2021 19:46 -4,1 C -4,4 C 92 % 1013,5 hPa 0,0 l/m 4,9 km/h (1 Bft) SW 225 0 min 0,0 UV-I 0 W/m -5,2 C -4,1 C 9,7 km/h (2 Bft)
25.01.2021 19:48 -4,1 C -4,4 C 92 % 1013,4 hPa 0,0 l/m 6,1 km/h (2 Bft) SW 221 0 min 0,0 UV-I 0 W/m -5,2 C -4,1 C 8,0 km/h (2 Bft)
25.01.2021 19:50 -4,1 C -3,9 C 93 % 1013,4 hPa 0,0 l/m 4,4 km/h (1 Bft) SW 216 0 min 0,0 UV-I 0 W/m -5,1 C -4,1 C 6,4 km/h (2 Bft)
25.01.2021 19:52 -4,1 C -3,9 C 93 % 1013,5 hPa 0,0 l/m 3,7 km/h (1 Bft) SW 225 0 min 0,0 UV-I 0 W/m -5,1 C -4,1 C 6,4 km/h (2 Bft)
25.01.2021 19:54 -4,0 C -3,9 C 93 % 1013,5 hPa 0,0 l/m 5,3 km/h (1 Bft) SW 235 0 min 0,0 UV-I 0 W/m -5,0 C -4,0 C 9,7 km/h (2 Bft)
25.01.2021 19:56 -4,0 C -3,9 C 93 % 1013,5 hPa 0,0 l/m 4,6 km/h (1 Bft) SW 222 0 min 0,0 UV-I 0 W/m -5,0 C -4,0 C 8,0 km/h (2 Bft)
25.01.2021 19:58 -3,9 C -3,3 C 93 % 1013,5 hPa 0,0 l/m 4,8 km/h (1 Bft) S-SW 209 0 min 0,0 UV-I 0 W/m -4,9 C -3,9 C 8,0 km/h (2 Bft)
25.01.2021 20:00 -3,9 C -3,3 C 93 % 1013,5 hPa 0,0 l/m 4,8 km/h (1 Bft) SW 225 0 min 0,0 UV-I 0 W/m -4,9 C -3,9 C 8,0 km/h (2 Bft)
25.01.2021 20:02 -3,8 C -3,3 C 93 % 1013,4 hPa 0,0 l/m 4,9 km/h (1 Bft) S-SW 200 0 min 0,0 UV-I 0 W/m -4,8 C -3,8 C 9,7 km/h (2 Bft)
25.01.2021 20:04 -3,8 C -3,3 C 93 % 1013,5 hPa 0,0 l/m 5,2 km/h (1 Bft) SW 217 0 min 0,0 UV-I 0 W/m -4,8 C -3,8 C 9,7 km/h (2 Bft)
25.01.2021 20:06 -3,7 C -3,3 C 93 % 1013,5 hPa 0,0 l/m 4,4 km/h (1 Bft) S-SW 200 0 min 0,0 UV-I 0 W/m -4,7 C -3,7 C 9,7 km/h (2 Bft)
25.01.2021 20:08 -3,7 C -3,3 C 93 % 1013,5 hPa 0,0 l/m 5,0 km/h (1 Bft) SW 229 0 min 0,0 UV-I 0 W/m -4,7 C -3,7 C 9,7 km/h (2 Bft)
25.01.2021 20:10 -3,6 C -2,8 C 93 % 1013,6 hPa 0,0 l/m 7,1 km/h (2 Bft) SW 214 0 min 0,0 UV-I 0 W/m -4,6 C -4,4 C 12,9 km/h (3 Bft)
25.01.2021 20:12 -3,5 C -3,3 C 93 % 1013,6 hPa 0,0 l/m 5,6 km/h (1 Bft) SW 217 0 min 0,0 UV-I 0 W/m -4,5 C -3,5 C 9,7 km/h (2 Bft)
25.01.2021 20:14 -3,4 C -3,3 C 93 % 1013,7 hPa 0,0 l/m 6,0 km/h (2 Bft) S-SW 201 0 min 0,0 UV-I 0 W/m -4,4 C -3,4 C 8,0 km/h (2 Bft)
25.01.2021 20:16 -3,3 C -3,3 C 93 % 1013,7 hPa 0,0 l/m 6,7 km/h (2 Bft) SW 223 0 min 0,0 UV-I 0 W/m -4,3 C -3,6 C 11,3 km/h (2 Bft)
25.01.2021 20:18 -3,2 C -2,8 C 94 % 1013,7 hPa 0,0 l/m 7,9 km/h (2 Bft) S-SW 212 0 min 0,0 UV-I 0 W/m -4,0 C -4,9 C 12,9 km/h (3 Bft)
25.01.2021 20:20 -3,2 C -2,8 C 94 % 1013,6 hPa 0,0 l/m 8,1 km/h (2 Bft) SW 219 0 min 0,0 UV-I 0 W/m -4,0 C -5,1 C 11,3 km/h (2 Bft)
25.01.2021 20:22 -3,2 C -2,8 C 93 % 1013,8 hPa 0,0 l/m 6,1 km/h (2 Bft) SW 215 0 min 0,0 UV-I 0 W/m -4,2 C -3,2 C 8,0 km/h (2 Bft)
25.01.2021 20:24 -3,1 C -2,8 C 93 % 1013,7 hPa 0,0 l/m 6,5 km/h (2 Bft) S-SW 192 0 min 0,0 UV-I 0 W/m -4,1 C -3,2 C 9,7 km/h (2 Bft)
25.01.2021 20:26 -3,1 C -2,8 C 93 % 1013,8 hPa 0,0 l/m 7,6 km/h (2 Bft) SW 218 0 min 0,0 UV-I 0 W/m -4,1 C -4,5 C 11,3 km/h (2 Bft)
25.01.2021 20:28 -3,1 C -2,8 C 93 % 1013,8 hPa 0,0 l/m 7,3 km/h (2 Bft) S-SW 202 0 min 0,0 UV-I 0 W/m -4,1 C -4,1 C 11,3 km/h (2 Bft)
25.01.2021 20:30 -3,0 C -2,8 C 93 % 1013,7 hPa 0,0 l/m 7,6 km/h (2 Bft) S-SW 213 0 min 0,0 UV-I 0 W/m -4,0 C -4,4 C 12,9 km/h (3 Bft)
25.01.2021 20:32 -3,0 C -2,8 C 93 % 1013,8 hPa 0,0 l/m 7,7 km/h (2 Bft) S-SW 197 0 min 0,0 UV-I 0 W/m -4,0 C -4,5 C 11,3 km/h (2 Bft)
25.01.2021 20:34 -2,9 C -2,8 C 94 % 1013,9 hPa 0,0 l/m 8,9 km/h (2 Bft) S-SW 204 0 min 0,0 UV-I 0 W/m -3,7 C -5,6 C 12,9 km/h (3 Bft)
25.01.2021 20:36 -2,9 C -2,8 C 94 % 1013,8 hPa 0,0 l/m 8,5 km/h (2 Bft) S-SW 206 0 min 0,0 UV-I 0 W/m -3,7 C -5,2 C 14,5 km/h (3 Bft)
25.01.2021 20:38 -2,9 C -2,8 C 94 % 1013,8 hPa 0,0 l/m 9,0 km/h (2 Bft) S-SW 207 0 min 0,0 UV-I 0 W/m -3,7 C -5,7 C 14,5 km/h (3 Bft)
25.01.2021 20:40 -2,8 C -2,8 C 94 % 1014,0 hPa 0,0 l/m 8,4 km/h (2 Bft) S-SW 207 0 min 0,0 UV-I 0 W/m -3,6 C -5,0 C 12,9 km/h (3 Bft)
25.01.2021 20:42 -2,8 C -2,8 C 94 % 1014,0 hPa 0,0 l/m 8,6 km/h (2 Bft) SW 221 0 min 0,0 UV-I 0 W/m -3,6 C -5,2 C 11,3 km/h (2 Bft)
25.01.2021 20:44 -2,8 C -2,8 C 94 % 1014,0 hPa 0,0 l/m 8,2 km/h (2 Bft) S-SW 209 0 min 0,0 UV-I 0 W/m -3,6 C -4,8 C 12,9 km/h (3 Bft)
25.01.2021 20:46 -2,8 C -2,8 C 94 % 1014,0 hPa 0,0 l/m 7,4 km/h (2 Bft) SW 215 0 min 0,0 UV-I 0 W/m -3,6 C -3,9 C 11,3 km/h (2 Bft)
25.01.2021 20:48 -2,8 C -2,8 C 94 % 1014,1 hPa 0,0 l/m 7,7 km/h (2 Bft) SW 218 0 min 0,0 UV-I 0 W/m -3,6 C -4,3 C 9,7 km/h (2 Bft)
25.01.2021 20:50 -2,8 C -2,8 C 94 % 1014,0 hPa 0,0 l/m 7,9 km/h (2 Bft) S-SW 209 0 min 0,0 UV-I 0 W/m -3,6 C -4,5 C 11,3 km/h (2 Bft)
25.01.2021 20:52 -2,8 C -2,8 C 94 % 1014,1 hPa 0,0 l/m 7,1 km/h (2 Bft) S-SW 194 0 min 0,0 UV-I 0 W/m -3,6 C -3,6 C 11,3 km/h (2 Bft)
25.01.2021 20:54 -2,8 C -2,8 C 93 % 1014,1 hPa 0,0 l/m 9,2 km/h (2 Bft) S-SW 202 0 min 0,0 UV-I 0 W/m -3,8 C -5,8 C 12,9 km/h (3 Bft)
25.01.2021 20:56 -2,8 C -2,8 C 93 % 1014,1 hPa 0,0 l/m 7,1 km/h (2 Bft) S-SW 211 0 min 0,0 UV-I 0 W/m -3,8 C -3,6 C 11,3 km/h (2 Bft)
25.01.2021 20:58 -2,8 C -2,8 C 93 % 1014,1 hPa 0,0 l/m 8,0 km/h (2 Bft) SW 218 0 min 0,0 UV-I 0 W/m -3,8 C -4,6 C 11,3 km/h (2 Bft)
25.01.2021 21:00 -2,7 C -2,8 C 93 % 1014,2 hPa 0,0 l/m 7,5 km/h (2 Bft) S-SW 210 0 min 0,0 UV-I 0 W/m -3,7 C -3,9 C 9,7 km/h (2 Bft)
25.01.2021 21:02 -2,7 C -2,8 C 93 % 1014,2 hPa 0,0 l/m 7,0 km/h (2 Bft) S-SW 207 0 min 0,0 UV-I 0 W/m -3,7 C -3,4 C 9,7 km/h (2 Bft)
25.01.2021 21:04 -2,7 C -2,8 C 93 % 1014,1 hPa 0,0 l/m 7,4 km/h (2 Bft) SW 222 0 min 0,0 UV-I 0 W/m -3,7 C -3,8 C 11,3 km/h (2 Bft)
25.01.2021 21:06 -2,7 C -2,8 C 93 % 1014,3 hPa 0,0 l/m 7,0 km/h (2 Bft) S-SW 205 0 min 0,0 UV-I 0 W/m -3,7 C -3,4 C 9,7 km/h (2 Bft)
25.01.2021 21:08 -2,7 C -2,8 C 93 % 1014,1 hPa 0,0 l/m 7,8 km/h (2 Bft) SW 217 0 min 0,0 UV-I 0 W/m -3,7 C -4,3 C 11,3 km/h (2 Bft)
25.01.2021 21:10 -2,7 C -2,8 C 94 % 1014,3 hPa 0,0 l/m 7,4 km/h (2 Bft) SW 221 0 min 0,0 UV-I 0 W/m -3,5 C -3,8 C 9,7 km/h (2 Bft)
25.01.2021 21:12 -2,7 C -2,8 C 94 % 1014,3 hPa 0,0 l/m 7,8 km/h (2 Bft) S-SW 198 0 min 0,0 UV-I 0 W/m -3,5 C -4,3 C 12,9 km/h (3 Bft)
25.01.2021 21:14 -2,6 C -2,8 C 94 % 1014,3 hPa 0,0 l/m 9,7 km/h (2 Bft) S-SW 196 0 min 0,0 UV-I 0 W/m -3,4 C -6,0 C 12,9 km/h (3 Bft)
25.01.2021 21:16 -2,6 C -2,8 C 94 % 1014,2 hPa 0,0 l/m 9,9 km/h (2 Bft) S-SW 208 0 min 0,0 UV-I 0 W/m -3,4 C -6,2 C 14,5 km/h (3 Bft)
25.01.2021 21:18 -2,6 C -2,8 C 94 % 1014,3 hPa 0,0 l/m 7,6 km/h (2 Bft) S-SW 206 0 min 0,0 UV-I 0 W/m -3,4 C -3,9 C 9,7 km/h (2 Bft)
25.01.2021 21:20 -2,5 C -2,8 C 94 % 1014,3 hPa 0,0 l/m 9,1 km/h (2 Bft) S-SW 197 0 min 0,0 UV-I 0 W/m -3,3 C -5,4 C 12,9 km/h (3 Bft)
25.01.2021 21:22 -2,5 C -2,8 C 94 % 1014,3 hPa 0,0 l/m 7,7 km/h (2 Bft) S-SW 207 0 min 0,0 UV-I 0 W/m -3,3 C -4,0 C 12,9 km/h (3 Bft)
25.01.2021 21:24 -2,5 C -2,2 C 94 % 1014,3 hPa 0,0 l/m 5,8 km/h (2 Bft) SW 229 0 min 0,0 UV-I 0 W/m -3,3 C -2,5 C 8,0 km/h (2 Bft)
25.01.2021 21:26 -2,5 C -2,2 C 94 % 1014,4 hPa 0,0 l/m 6,5 km/h (2 Bft) S-SW 200 0 min 0,0 UV-I 0 W/m -3,3 C -2,6 C 11,3 km/h (2 Bft)
25.01.2021 21:28 -2,4 C -2,8 C 94 % 1014,4 hPa 0,0 l/m 9,1 km/h (2 Bft) S-SW 213 0 min 0,0 UV-I 0 W/m -3,2 C -5,3 C 14,5 km/h (3 Bft)
25.01.2021 21:30 -2,4 C -2,2 C 94 % 1014,5 hPa 0,0 l/m 11,1 km/h (2 Bft) S-SW 209 0 min 0,0 UV-I 0 W/m -3,2 C -7,0 C 14,5 km/h (3 Bft)
25.01.2021 21:32 -2,3 C -2,2 C 94 % 1014,4 hPa 0,0 l/m 10,2 km/h (2 Bft) W 265 0 min 0,0 UV-I 0 W/m -3,1 C -6,2 C 14,5 km/h (3 Bft)
25.01.2021 21:34 -2,3 C -2,2 C 94 % 1014,5 hPa 0,0 l/m 11,4 km/h (2 Bft) S-SW 209 0 min 0,0 UV-I 0 W/m -3,1 C -7,2 C 16,1 km/h (3 Bft)
25.01.2021 21:36 -2,2 C -2,2 C 94 % 1014,5 hPa 0,0 l/m 9,6 km/h (2 Bft) SW 217 0 min 0,0 UV-I 0 W/m -3,0 C -5,5 C 12,9 km/h (3 Bft)
25.01.2021 21:38 -2,2 C -2,2 C 94 % 1014,5 hPa 0,0 l/m 11,3 km/h (2 Bft) S-SW 213 0 min 0,0 UV-I 0 W/m -3,0 C -7,0 C 17,7 km/h (3 Bft)
25.01.2021 21:40 -2,2 C -2,2 C 94 % 1014,6 hPa 0,0 l/m 8,4 km/h (2 Bft) SW 225 0 min 0,0 UV-I 0 W/m -3,0 C -4,4 C 12,9 km/h (3 Bft)
25.01.2021 21:42 -2,2 C -2,2 C 94 % 1014,5 hPa 0,0 l/m 12,3 km/h (3 Bft) S-SW 205 0 min 0,0 UV-I 0 W/m -3,0 C -7,8 C 20,9 km/h (4 Bft)
25.01.2021 21:44 -2,1 C -2,2 C 94 % 1014,5 hPa 0,0 l/m 8,5 km/h (2 Bft) S-SW 195 0 min 0,0 UV-I 0 W/m -2,9 C -4,4 C 12,9 km/h (3 Bft)
25.01.2021 21:46 -2,1 C -2,2 C 94 % 1014,5 hPa 0,0 l/m 9,3 km/h (2 Bft) S-SW 212 0 min 0,0 UV-I 0 W/m -2,9 C -5,1 C 12,9 km/h (3 Bft)
25.01.2021 21:48 -2,1 C -2,2 C 94 % 1014,4 hPa 0,0 l/m 11,8 km/h (2 Bft) SW 215 0 min 0,0 UV-I 0 W/m -2,9 C -7,3 C 17,7 km/h (3 Bft)
25.01.2021 21:50 -2,1 C -2,2 C 94 % 1014,6 hPa 0,0 l/m 13,3 km/h (3 Bft) S-SW 201 0 min 0,0 UV-I 0 W/m -2,9 C -8,4 C 19,3 km/h (3 Bft)
25.01.2021 21:52 -2,1 C -2,2 C 94 % 1014,6 hPa 0,0 l/m 10,6 km/h (2 Bft) W-SW 257 0 min 0,0 UV-I 0 W/m -2,9 C -6,3 C 16,1 km/h (3 Bft)
25.01.2021 21:54 -2,1 C -2,2 C 94 % 1014,5 hPa 0,0 l/m 9,4 km/h (2 Bft) S-SW 207 0 min 0,0 UV-I 0 W/m -2,9 C -5,2 C 14,5 km/h (3 Bft)
25.01.2021 21:56 -2,0 C -2,2 C 94 % 1014,5 hPa 0,0 l/m 9,6 km/h (2 Bft) S-SW 208 0 min 0,0 UV-I 0 W/m -2,8 C -5,3 C 14,5 km/h (3 Bft)
25.01.2021 21:58 -2,0 C -2,2 C 94 % 1014,5 hPa 0,0 l/m 10,9 km/h (2 Bft) S-SW 211 0 min 0,0 UV-I 0 W/m -2,8 C -6,4 C 14,5 km/h (3 Bft)
25.01.2021 22:00 -1,9 C -2,2 C 94 % 1014,5 hPa 0,0 l/m 11,6 km/h (2 Bft) SW 223 0 min 0,0 UV-I 0 W/m -2,7 C -6,9 C 14,5 km/h (3 Bft)
25.01.2021 22:02 -1,9 C -2,2 C 94 % 1014,6 hPa 0,0 l/m 11,9 km/h (2 Bft) S-SW 196 0 min 0,0 UV-I 0 W/m -2,7 C -7,1 C 17,7 km/h (3 Bft)
25.01.2021 22:04 -1,9 C -2,2 C 94 % 1014,5 hPa 0,0 l/m 8,8 km/h (2 Bft) W-NW 288 0 min 0,0 UV-I 0 W/m -2,7 C -4,4 C 14,5 km/h (3 Bft)
25.01.2021 22:06 -1,9 C -2,2 C 94 % 1014,6 hPa 0,0 l/m 11,5 km/h (2 Bft) SW 219 0 min 0,0 UV-I 0 W/m -2,7 C -6,8 C 17,7 km/h (3 Bft)
25.01.2021 22:08 -1,9 C -2,2 C 94 % 1014,6 hPa 0,0 l/m 8,1 km/h (2 Bft) SW 227 0 min 0,0 UV-I 0 W/m -2,7 C -3,7 C 14,5 km/h (3 Bft)
25.01.2021 22:10 -1,9 C -2,2 C 94 % 1014,6 hPa 0,0 l/m 7,4 km/h (2 Bft) SW 216 0 min 0,0 UV-I 0 W/m -2,7 C -3,0 C 11,3 km/h (2 Bft)
25.01.2021 22:12 -1,9 C -2,2 C 94 % 1014,6 hPa 0,0 l/m 7,9 km/h (2 Bft) S-SW 204 0 min 0,0 UV-I 0 W/m -2,7 C -3,5 C 11,3 km/h (2 Bft)
25.01.2021 22:14 -1,9 C -2,2 C 94 % 1014,6 hPa 0,0 l/m 7,0 km/h (2 Bft) SW 225 0 min 0,0 UV-I 0 W/m -2,7 C -2,6 C 11,3 km/h (2 Bft)
25.01.2021 22:16 -1,9 C -2,2 C 94 % 1014,7 hPa 0,0 l/m 7,7 km/h (2 Bft) S-SW 210 0 min 0,0 UV-I 0 W/m -2,7 C -3,3 C 11,3 km/h (2 Bft)
25.01.2021 22:18 -1,9 C -2,2 C 94 % 1014,7 hPa 0,0 l/m 9,1 km/h (2 Bft) W 265 0 min 0,0 UV-I 0 W/m -2,7 C -4,7 C 11,3 km/h (2 Bft)
25.01.2021 22:20 -1,9 C -2,2 C 94 % 1014,6 hPa 0,0 l/m 8,3 km/h (2 Bft) S 191 0 min 0,0 UV-I 0 W/m -2,7 C -3,9 C 11,3 km/h (2 Bft)
25.01.2021 22:22 -1,9 C -2,2 C 94 % 1014,6 hPa 0,0 l/m 6,7 km/h (2 Bft) S 184 0 min 0,0 UV-I 0 W/m -2,7 C -2,2 C 9,7 km/h (2 Bft)
25.01.2021 22:24 -1,9 C -2,2 C 94 % 1014,7 hPa 0,0 l/m 9,0 km/h (2 Bft) SW 220 0 min 0,0 UV-I 0 W/m -2,7 C -4,6 C 14,5 km/h (3 Bft)
25.01.2021 22:26 -1,9 C -2,2 C 94 % 1014,6 hPa 0,0 l/m 9,7 km/h (2 Bft) SW 224 0 min 0,0 UV-I 0 W/m -2,7 C -5,3 C 12,9 km/h (3 Bft)
25.01.2021 22:28 -1,9 C -2,2 C 94 % 1014,6 hPa 0,0 l/m 9,6 km/h (2 Bft) S-SW 207 0 min 0,0 UV-I 0 W/m -2,7 C -5,2 C 12,9 km/h (3 Bft)
25.01.2021 22:30 -1,8 C -2,2 C 94 % 1014,6 hPa 0,0 l/m 9,1 km/h (2 Bft) S-SW 196 0 min 0,0 UV-I 0 W/m -2,6 C -4,6 C 11,3 km/h (2 Bft)
25.01.2021 22:32 -1,8 C -2,2 C 94 % 1014,6 hPa 0,0 l/m 9,0 km/h (2 Bft) S-SW 211 0 min 0,0 UV-I 0 W/m -2,6 C -4,5 C 11,3 km/h (2 Bft)
25.01.2021 22:34 -1,8 C -2,2 C 94 % 1014,7 hPa 0,0 l/m 10,2 km/h (2 Bft) S-SW 204 0 min 0,0 UV-I 0 W/m -2,6 C -5,6 C 14,5 km/h (3 Bft)
25.01.2021 22:36 -1,8 C -2,2 C 94 % 1014,7 hPa 0,0 l/m 5,4 km/h (1 Bft) S-SW 213 0 min 0,0 UV-I 0 W/m -2,6 C -1,8 C 9,7 km/h (2 Bft)
25.01.2021 22:38 -1,8 C -2,2 C 94 % 1014,8 hPa 0,0 l/m 5,2 km/h (1 Bft) SW 233 0 min 0,0 UV-I 0 W/m -2,6 C -1,8 C 9,7 km/h (2 Bft)
25.01.2021 22:40 -1,8 C -2,2 C 94 % 1014,7 hPa 0,0 l/m 6,6 km/h (2 Bft) W 264 0 min 0,0 UV-I 0 W/m -2,6 C -2,0 C 14,5 km/h (3 Bft)
25.01.2021 22:42 -1,8 C -2,2 C 94 % 1014,7 hPa 0,0 l/m 9,6 km/h (2 Bft) W-SW 246 0 min 0,0 UV-I 0 W/m -2,6 C -5,1 C 19,3 km/h (3 Bft)
25.01.2021 22:44 -1,8 C -1,7 C 94 % 1014,7 hPa 0,0 l/m 8,3 km/h (2 Bft) S-SW 209 0 min 0,0 UV-I 0 W/m -2,6 C -3,8 C 14,5 km/h (3 Bft)
25.01.2021 22:46 -1,7 C -1,7 C 94 % 1014,7 hPa 0,0 l/m 11,3 km/h (2 Bft) S 180 0 min 0,0 UV-I 0 W/m -2,5 C -6,4 C 25,7 km/h (4 Bft)
25.01.2021 22:48 -1,6 C -1,7 C 94 % 1014,7 hPa 0,0 l/m 11,3 km/h (2 Bft) SW 235 0 min 0,0 UV-I 0 W/m -2,4 C -6,3 C 19,3 km/h (3 Bft)
25.01.2021 22:50 -1,6 C -1,7 C 94 % 1014,7 hPa 0,0 l/m 8,6 km/h (2 Bft) SW 214 0 min 0,0 UV-I 0 W/m -2,4 C -3,9 C 20,9 km/h (4 Bft)
25.01.2021 22:52 -1,6 C -1,7 C 94 % 1014,6 hPa 0,0 l/m 7,5 km/h (2 Bft) SW 218 0 min 0,0 UV-I 0 W/m -2,4 C -2,8 C 12,9 km/h (3 Bft)
25.01.2021 22:54 -1,6 C -1,7 C 94 % 1014,5 hPa 0,0 l/m 9,8 km/h (2 Bft) W-SW 253 0 min 0,0 UV-I 0 W/m -2,4 C -5,0 C 20,9 km/h (4 Bft)
25.01.2021 22:55 -1,6 C -1,7 C 94 % 1014,5 hPa 0,0 l/m 9,7 km/h (2 Bft) S-SW 202 0 min 0,0 UV-I 0 W/m -2,4 C -5,0 C 12,9 km/h (3 Bft)
25.01.2021 22:56 -1,5 C -1,7 C 94 % 1014,6 hPa 0,0 l/m 11,3 km/h (2 Bft) SW 225 0 min 0,0 UV-I 0 W/m -2,3 C -6,2 C 14,5 km/h (3 Bft)
25.01.2021 22:58 -1,5 C -1,7 C 94 % 1014,6 hPa 0,0 l/m 6,9 km/h (2 Bft) SW 221 0 min 0,0 UV-I 0 W/m -2,3 C -2,0 C 11,3 km/h (2 Bft)
25.01.2021 23:00 -1,4 C -1,7 C 93 % 1014,6 hPa 0,0 l/m 8,3 km/h (2 Bft) SW 232 0 min 0,0 UV-I 0 W/m -2,4 C -3,4 C 17,7 km/h (3 Bft)
25.01.2021 23:02 -1,4 C -1,7 C 93 % 1014,6 hPa 0,0 l/m 7,0 km/h (2 Bft) S-SW 202 0 min 0,0 UV-I 0 W/m -2,4 C -2,0 C 12,9 km/h (3 Bft)
25.01.2021 23:04 -1,4 C -1,7 C 93 % 1014,5 hPa 0,0 l/m 8,4 km/h (2 Bft) SW 219 0 min 0,0 UV-I 0 W/m -2,4 C -3,5 C 12,9 km/h (3 Bft)
25.01.2021 23:06 -1,4 C -1,7 C 94 % 1014,5 hPa 0,0 l/m 10,2 km/h (2 Bft) S-SW 209 0 min 0,0 UV-I 0 W/m -2,2 C -5,2 C 16,1 km/h (3 Bft)
25.01.2021 23:08 -1,4 C -1,7 C 93 % 1014,4 hPa 0,0 l/m 10,4 km/h (2 Bft) SW 219 0 min 0,0 UV-I 0 W/m -2,4 C -5,3 C 14,5 km/h (3 Bft)
25.01.2021 23:10 -1,4 C -1,7 C 93 % 1014,4 hPa 0,0 l/m 10,4 km/h (2 Bft) SW 223 0 min 0,0 UV-I 0 W/m -2,4 C -5,3 C 12,9 km/h (3 Bft)
25.01.2021 23:12 -1,3 C -1,7 C 93 % 1014,5 hPa 0,0 l/m 10,2 km/h (2 Bft) S-SW 201 0 min 0,0 UV-I 0 W/m -2,3 C -5,1 C 12,9 km/h (3 Bft)
25.01.2021 23:14 -1,3 C -1,7 C 93 % 1014,5 hPa 0,0 l/m 11,4 km/h (2 Bft) S-SW 212 0 min 0,0 UV-I 0 W/m -2,3 C -6,0 C 19,3 km/h (3 Bft)
25.01.2021 23:16 -1,3 C -1,7 C 93 % 1014,5 hPa 0,0 l/m 11,0 km/h (2 Bft) S-SW 209 0 min 0,0 UV-I 0 W/m -2,3 C -5,7 C 17,7 km/h (3 Bft)
25.01.2021 23:18 -1,3 C -1,7 C 93 % 1014,4 hPa 0,0 l/m 9,9 km/h (2 Bft) S-SW 211 0 min 0,0 UV-I 0 W/m -2,3 C -4,8 C 17,7 km/h (3 Bft)
25.01.2021 23:20 -1,3 C -1,7 C 93 % 1014,5 hPa 0,0 l/m 12,2 km/h (2 Bft) W-SW 248 0 min 0,0 UV-I 0 W/m -2,3 C -6,6 C 16,1 km/h (3 Bft)
25.01.2021 23:22 -1,3 C -1,7 C 93 % 1014,4 hPa 0,0 l/m 9,6 km/h (2 Bft) SW 220 0 min 0,0 UV-I 0 W/m -2,3 C -4,5 C 16,1 km/h (3 Bft)
25.01.2021 23:24 -1,3 C -1,7 C 93 % 1014,4 hPa 0,0 l/m 11,5 km/h (2 Bft) S 179 0 min 0,0 UV-I 0 W/m -2,3 C -6,1 C 16,1 km/h (3 Bft)
25.01.2021 23:26 -1,3 C -1,7 C 93 % 1014,4 hPa 0,0 l/m 12,4 km/h (3 Bft) S-SW 211 0 min 0,0 UV-I 0 W/m -2,3 C -6,8 C 17,7 km/h (3 Bft)
25.01.2021 23:28 -1,3 C -1,7 C 93 % 1014,4 hPa 0,0 l/m 11,9 km/h (2 Bft) SW 215 0 min 0,0 UV-I 0 W/m -2,3 C -6,4 C 16,1 km/h (3 Bft)
25.01.2021 23:30 -1,3 C -1,7 C 93 % 1014,4 hPa 0,0 l/m 12,7 km/h (3 Bft) SW 220 0 min 0,0 UV-I 0 W/m -2,3 C -7,0 C 20,9 km/h (4 Bft)
25.01.2021 23:32 -1,3 C -1,7 C 93 % 1014,5 hPa 0,0 l/m 15,1 km/h (3 Bft) S-SW 197 0 min 0,0 UV-I 0 W/m -2,3 C -8,6 C 22,5 km/h (4 Bft)
25.01.2021 23:34 -1,3 C -1,7 C 93 % 1014,4 hPa 0,0 l/m 10,5 km/h (2 Bft) S-SW 209 0 min 0,0 UV-I 0 W/m -2,3 C -5,3 C 14,5 km/h (3 Bft)
25.01.2021 23:36 -1,3 C -1,7 C 93 % 1014,4 hPa 0,0 l/m 10,8 km/h (2 Bft) S-SW 205 0 min 0,0 UV-I 0 W/m -2,3 C -5,6 C 19,3 km/h (3 Bft)
25.01.2021 23:38 -1,3 C -1,7 C 93 % 1014,4 hPa 0,0 l/m 10,5 km/h (2 Bft) S-SW 196 0 min 0,0 UV-I 0 W/m -2,3 C -5,3 C 19,3 km/h (3 Bft)
25.01.2021 23:40 -1,4 C -1,7 C 93 % 1014,4 hPa 0,0 l/m 11,8 km/h (2 Bft) W-SW 244 0 min 0,0 UV-I 0 W/m -2,4 C -6,5 C 16,1 km/h (3 Bft)
25.01.2021 23:42 -1,3 C -1,7 C 93 % 1014,5 hPa 0,0 l/m 10,3 km/h (2 Bft) SW 215 0 min 0,0 UV-I 0 W/m -2,3 C -5,1 C 14,5 km/h (3 Bft)
25.01.2021 23:44 -1,3 C -1,7 C 93 % 1014,4 hPa 0,0 l/m 11,6 km/h (2 Bft) SW 221 0 min 0,0 UV-I 0 W/m -2,3 C -6,2 C 17,7 km/h (3 Bft)
25.01.2021 23:46 -1,3 C -1,7 C 93 % 1014,5 hPa 0,0 l/m 9,1 km/h (2 Bft) S-SW 206 0 min 0,0 UV-I 0 W/m -2,3 C -4,1 C 16,1 km/h (3 Bft)
25.01.2021 23:48 -1,3 C -1,7 C 93 % 1014,5 hPa 0,0 l/m 9,8 km/h (2 Bft) S-SW 207 0 min 0,0 UV-I 0 W/m -2,3 C -4,7 C 16,1 km/h (3 Bft)
25.01.2021 23:50 -1,3 C -1,7 C 93 % 1014,5 hPa 0,0 l/m 12,1 km/h (2 Bft) S-SW 209 0 min 0,0 UV-I 0 W/m -2,3 C -6,6 C 19,3 km/h (3 Bft)
25.01.2021 23:52 -1,3 C -1,7 C 93 % 1014,5 hPa 0,0 l/m 12,8 km/h (3 Bft) SW 236 0 min 0,0 UV-I 0 W/m -2,3 C -7,1 C 19,3 km/h (3 Bft)
25.01.2021 23:54 -1,3 C -1,7 C 93 % 1014,6 hPa 0,0 l/m 11,1 km/h (2 Bft) S-SW 194 0 min 0,0 UV-I 0 W/m -2,3 C -5,8 C 14,5 km/h (3 Bft)
25.01.2021 23:56 -1,3 C -1,7 C 93 % 1014,6 hPa 0,0 l/m 10,6 km/h (2 Bft) S-SW 201 0 min 0,0 UV-I 0 W/m -2,3 C -5,4 C 16,1 km/h (3 Bft)
25.01.2021 23:58 -1,3 C -1,7 C 93 % 1014,6 hPa 0,0 l/m 12,8 km/h (3 Bft) SW 215 0 min 0,0 UV-I 0 W/m -2,3 C -7,1 C 17,7 km/h (3 Bft)
25.01.2021 23:59 -1,3 C -1,7 C 93 % 1014,7 hPa 0,0 l/m 8,0 km/h (2 Bft) SW 225 0 min 0,0 UV-I 0 W/m -2,3 C -3,0 C 11,3 km/h (2 Bft)
_ Min-Zeit 18:34 18:26 15:42 00:03 - 01:49 - - - - - 18:36 23:32 07:36
Minimum _ -4,6 C -5,0 C 85 % 999,1 hPa - 0,0 km/h (0 Bft) - - - - - -6,1 C -8,6 C 0,0 km/h (0 Bft)
_ Max-Zeit 12:46 11:18 08:44 22:38 01:24 23:32 - - 00:00 11:30 12:48 13:36 12:46 22:46
Maximum _ 0,7 C 1,7 C 95 % 1014,8 hPa 0,2 l/m 15,1 km/h
S-SW (3 Bft)
- - 0 min 1,1 UV-I 210 W/m -0,9 C 0,7 C 25,7 km/h
SW (4 Bft)
Durchschnitt _ -1,4 C -1,1 C 92 % 1006,2 hPa #1,6 l/m 5,4 km/h (1 Bft) S-SO - #0 min. 0,7 UV-I 79 W/m -2,6 C -2,2 C 9,2 km/h (2 Bft)